Date StartTime U_cm/s V_cm/s W_cm/s Ustd_cm/s Vstd_cm/s Wstd_cm/s Uvar_(cm/s)^2 Vvar_(cm/s)^2 Wvar_(cm/s)^2 KE_(m/s)^2 TurbulentKE_(m/s)^2 HorizWindSpeed_cm/s FrictionSpeec_cm/s DragCoef SpeedOfSound_m/s SonicTemperature_C Pressure_mb 
10/05/2014  00:00:00     -110.323      -66.877      -14.397        9.832       12.157        8.555       96.669      147.803       73.192        0.858        0.016      129.011        5.590        0.002      340.281       14.195      866.806
10/05/2014  00:01:00      -95.431      -57.787      -13.586       11.051       12.225        9.625      122.134      149.451       92.636        0.650        0.018      111.564        5.451        0.002      340.267       14.169      866.820
10/05/2014  00:02:00     -100.958      -57.382      -13.754        9.833       14.355        7.961       96.689      206.063       63.370        0.702        0.018      116.125        4.380        0.001      340.238       14.121      866.820
10/05/2014  00:03:00     -103.508      -45.139      -10.155       10.550       13.388        8.508      111.312      179.230       72.388        0.661        0.018      112.922        3.717        0.001      340.181       14.023      866.803
10/05/2014  00:04:00      -92.369      -38.605       -7.473       10.965       12.476        9.960      120.226      155.642       99.202        0.523        0.019      100.112        6.035        0.004      340.204       14.063      866.798
10/05/2014  00:05:00      -80.634      -51.062       -8.091       11.715       13.802        9.026      137.246      190.501       81.472        0.479        0.020       95.442        5.896        0.004      340.261       14.159      866.791
10/05/2014  00:06:00      -97.542      -52.803      -11.256       11.267       10.052        8.868      126.942      101.043       78.634        0.637        0.015      110.917        4.282        0.001      340.226       14.098      866.788
10/05/2014  00:07:00      -93.514      -49.159      -17.873       10.201       10.266       10.294      104.054      105.382      105.964        0.590        0.016      105.648        4.122        0.002      340.159       13.986      866.780
10/05/2014  00:08:00      -74.149      -49.928       -5.781       12.873       10.438        7.858      165.709      108.957       61.756        0.418        0.017       89.392        6.257        0.005      340.160       13.989      866.785
10/05/2014  00:09:00      -47.396      -34.113       -2.609       18.956       13.322        9.364      359.330      177.485       87.693        0.202        0.031       58.396        4.684        0.006      340.106       13.896      866.797
10/05/2014  00:10:00      -50.437      -30.609       -6.930       19.066        8.602        6.193      363.519       73.994       38.349        0.200        0.024       58.998        1.330        0.001      340.120       13.920      866.797
10/05/2014  00:11:00      -76.972      -36.064      -11.551        6.646        9.757        7.718       44.165       95.200       59.565        0.378        0.010       85.002        3.058        0.001      340.115       13.912      866.797
10/05/2014  00:12:00      -78.805      -37.259      -13.188        8.108        9.452        7.172       65.733       89.339       51.431        0.399        0.010       87.169        3.061        0.001      340.149       13.969      866.790
10/05/2014  00:13:00      -47.184      -25.830      -10.758       15.350       10.064       10.767      235.637      101.284      115.936        0.173        0.023       53.791        3.654        0.005      340.082       13.858      866.796
10/05/2014  00:14:00      -54.624      -33.813       -9.602       19.571       13.617       10.119      383.041      185.428      102.403        0.244        0.034       64.243        3.123        0.002      340.013       13.740      866.797
10/05/2014  00:15:00      -75.223      -33.399      -10.985        9.944       10.713        8.486       98.889      114.779       72.011        0.359        0.014       82.304        3.537        0.002      339.968       13.665      866.797
10/05/2014  00:16:00      -62.361      -40.458       -3.741       19.389       17.122       12.170      375.947      293.152      148.115        0.318        0.041       74.335        8.026        0.012      339.946       13.627      866.805
10/05/2014  00:17:00      -57.042      -37.423       -6.778       24.854       17.866       17.195      617.697      319.194      295.658        0.297        0.062       68.222       12.650        0.034      339.918       13.582      866.815
10/05/2014  00:18:00      -67.975      -60.170       -0.576       27.069       26.730       16.500      732.737      714.476      272.244        0.498        0.086       90.780       13.311        0.022      340.073       13.843      866.804
10/05/2014  00:19:00      -64.227      -54.510       -6.851       24.838       25.400       19.988      616.903      645.156      399.528        0.440        0.083       84.241       11.746        0.019      340.032       13.772      866.811
10/05/2014  00:20:00      -76.799      -54.052       -4.060       30.569       21.791       16.102      934.487      474.827      259.276        0.525        0.083       93.913       12.905        0.019      339.957       13.646      866.822
10/05/2014  00:21:00     -105.275      -21.844       -2.927       29.169       23.364       23.077      850.822      545.886      532.559        0.675        0.096      107.517       17.868        0.028      339.887       13.529      866.824
10/05/2014  00:22:00     -121.559      -43.747      -16.728       20.617       18.996       15.449      425.074      360.854      238.663        0.900        0.051      129.191        7.231        0.003      339.922       13.587      866.829
10/05/2014  00:23:00     -124.607      -63.954       -7.306       29.041       31.382       21.897      843.359      984.824      479.496        1.099        0.115      140.060       12.498        0.008      339.861       13.484      866.839
10/05/2014  00:24:00     -137.592      -77.566       -2.942       53.419       38.074       30.592     2853.581     1449.603      935.885        1.510        0.262      157.949       22.528        0.020      339.869       13.496      866.847
10/05/2014  00:25:00     -139.055      -93.704       -8.772       33.168       56.400       29.714     1100.148     3180.995      882.907        1.668        0.258      167.680       17.819        0.011      339.926       13.595      866.842
10/05/2014  00:26:00     -100.360      -70.076        0.201       54.943       34.832       25.305     3018.696     1213.246      640.322        0.993        0.244      122.404       27.396        0.050      339.868       13.498      866.839
10/05/2014  00:27:00      -55.469      -45.941        6.364       51.198       29.461       29.235     2621.198      867.951      854.674        0.479        0.217       72.023       29.332        0.166      339.851       13.468      866.860
10/05/2014  00:28:00      -79.845      -50.305        0.277       40.607       34.357       18.464     1648.947     1180.409      340.903        0.604        0.159       94.370       18.718        0.039      339.833       13.438      866.869
10/05/2014  00:29:00      -36.378      -29.247        5.467       42.513       35.395       23.452     1807.347     1252.801      550.009        0.291        0.181       46.677       20.453        0.192      339.789       13.362      866.864
10/05/2014  00:30:00      -81.885      -38.561        1.644       44.836       22.116       18.532     2010.297      489.096      343.432        0.552        0.142       90.510       15.772        0.030      339.780       13.349      866.856
10/05/2014  00:31:00      -62.201      -62.072        0.825       45.135       30.738       19.715     2037.142      944.844      388.666        0.555        0.169       87.875       20.100        0.052      339.764       13.322      866.856
10/05/2014  00:32:00      -42.152      -40.889       11.154       43.423       30.686       19.484     1885.514      941.633      379.607        0.339        0.160       58.725       20.891        0.127      339.753       13.303      866.856
10/05/2014  00:33:00      -98.014      -63.134        1.001       35.128       20.330       16.160     1233.976      413.298      261.157        0.775        0.095      116.588       12.359        0.011      339.765       13.322      866.844
10/05/2014  00:34:00     -119.602      -56.610        1.077       20.480       18.005       14.489      419.422      324.195      209.933        0.923        0.048      132.323        9.087        0.005      339.739       13.279      866.846
10/05/2014  00:35:00      -74.889      -48.956        2.592       25.000       24.296       14.878      625.025      590.317      221.368        0.472        0.072       89.471       12.618        0.020      339.673       13.168      866.842
10/05/2014  00:36:00      -60.528      -42.996        7.667       40.584       22.886       18.073     1647.071      523.770      326.636        0.403        0.125       74.245       17.838        0.058      339.691       13.198      866.842
10/05/2014  00:37:00     -104.043      -28.434       -3.826       22.522       23.278       15.483      507.246      541.874      239.724        0.647        0.064      107.859       14.232        0.017      339.657       13.143      866.839
10/05/2014  00:38:00     -127.962      -37.875       -5.558       16.516       16.511       14.053      272.793      272.627      197.487        0.929        0.037      133.449        8.222        0.004      339.694       13.203      866.840
10/05/2014  00:39:00      -92.395      -37.587       -1.029       25.483       21.438       14.536      649.395      459.590      211.303        0.564        0.066       99.748       13.125        0.017      339.627       13.089      866.841
10/05/2014  00:40:00      -96.529      -15.672      -10.706       31.082       25.560       18.162      966.122      653.299      329.870        0.581        0.097       97.793       18.252        0.035      339.590       13.027      866.836
10/05/2014  00:41:00     -121.093      -35.855      -18.521        9.241       14.761        8.171       85.400      217.889       66.762        0.833        0.019      126.290        4.439        0.001      339.673       13.168      866.832
10/05/2014  00:42:00      -96.396      -40.934      -13.313       21.317       19.726       17.274      454.419      389.098      298.407        0.614        0.057      104.728       13.097        0.016      339.721       13.251      866.829
10/05/2014  00:43:00     -115.286      -33.951      -13.232       19.090       14.093       15.036      364.430      198.605      226.082        0.770        0.039      120.181        8.847        0.005      339.697       13.208      866.814
10/05/2014  00:44:00      -63.001      -46.310       -5.036       35.237       20.577       20.546     1241.646      423.407      422.135        0.411        0.104       78.190       21.277        0.074      339.630       13.094      866.801
10/05/2014  00:45:00      -30.181      -22.357        2.932       34.646       24.390       20.836     1200.334      594.883      434.137        0.182        0.111       37.559       19.627        0.273      339.578       13.009      866.797
10/05/2014  00:46:00      -64.844      -40.076       -8.897       34.491       24.955       20.749     1189.649      622.768      430.537        0.407        0.112       76.229       16.642        0.048      339.633       13.100      866.781
10/05/2014  00:47:00      -57.412      -28.422        2.975       41.557       30.918       22.829     1726.959      955.923      521.162        0.366        0.160       64.062       16.978        0.070      339.584       13.018      866.771
10/05/2014  00:48:00      -55.217      -14.246        2.361       28.628       24.958       16.592      819.577      622.915      275.299        0.249        0.086       57.025       14.715        0.067      339.551       12.961      866.779
10/05/2014  00:49:00      -50.912      -30.395        2.026       37.305       32.417       16.903     1391.631     1050.871      285.713        0.312        0.136       59.295       17.091        0.083      339.589       13.026      866.770
10/05/2014  00:50:00      -65.278      -25.934      -12.766       26.074       21.337       16.645      679.861      455.279      277.067        0.325        0.071       70.241       11.200        0.025      339.616       13.073      866.762
10/05/2014  00:51:00      -85.742      -47.934      -16.500       29.851       18.501       17.626      891.082      342.284      310.673        0.573        0.077       98.231       11.945        0.015      339.610       13.061      866.756
10/05/2014  00:52:00      -79.194      -40.351      -17.971       23.670       31.631       17.296      560.290     1000.522      299.144        0.504        0.093       88.882       16.401        0.034      339.605       13.052      866.757
10/05/2014  00:53:00      -73.571      -23.897      -24.441       19.351       23.690       16.050      374.454      561.215      257.616        0.389        0.060       77.355        7.495        0.009      339.606       13.055      866.745
10/05/2014  00:54:00      -67.963      -13.071      -13.190       21.334       24.698       15.488      455.158      610.007      239.876        0.313        0.065       69.209        2.584        0.001      339.590       13.029      866.738
10/05/2014  00:55:00      -82.849      -13.054      -12.265       19.859       16.796       15.424      394.378      282.108      237.887        0.405        0.046       83.871       13.777        0.027      339.611       13.064      866.741
10/05/2014  00:56:00      -94.741      -20.798      -17.936       18.218       21.208       15.019      331.903      449.765      225.563        0.537        0.050       96.997       12.119        0.016      339.585       13.020      866.748
10/05/2014  00:57:00      -72.077      -29.418       -5.962       22.010       20.860       20.175      484.425      435.157      407.022        0.371        0.066       77.849       15.375        0.039      339.540       12.944      866.745
10/05/2014  00:58:00      -58.773      -23.456        0.349       36.419       25.761       14.691     1326.335      663.617      215.838        0.310        0.110       63.281       18.350        0.084      339.465       12.817      866.750
10/05/2014  00:59:00      -61.690      -16.838       -2.797       28.163       20.978       14.745      793.181      440.080      217.406        0.277        0.073       63.946       13.722        0.046      339.441       12.776      866.755
10/05/2014  01:00:00      -41.709      -30.189       -3.474       26.014       15.559       16.583      676.742      242.069      274.984        0.193        0.060       51.489       16.878        0.107      339.554       12.968      866.743
10/05/2014  01:01:00      -64.805      -37.207      -12.964       20.004        9.240        9.151      400.154       85.387       83.733        0.316        0.028       74.726        5.949        0.006      339.543       12.947      866.750
10/05/2014  01:02:00      -97.128      -33.122      -20.577       10.591        9.138        8.062      112.162       83.499       64.995        0.561        0.013      102.620        4.337        0.002      339.561       12.978      866.750
10/05/2014  01:03:00     -105.334      -37.019      -13.051       12.016       16.909       12.062      144.386      285.906      145.498        0.661        0.029      111.650        6.272        0.003      339.565       12.985      866.739
10/05/2014  01:04:00      -78.170      -39.349       -4.438       14.777       18.445        9.340      218.347      340.228       87.233        0.416        0.032       87.516        6.891        0.006      339.636       13.104      866.740
10/05/2014  01:05:00     -105.257      -43.504      -13.646       10.296        8.479        6.151      106.016       71.893       37.841        0.669        0.011      113.893        2.256        0.000      339.656       13.142      866.742
10/05/2014  01:06:00     -124.471      -55.993      -10.058       22.783       17.568       14.587      519.077      308.630      212.772        0.988        0.052      136.485       11.015        0.007      339.689       13.194      866.732
10/05/2014  01:07:00      -82.792      -58.629       -4.150       30.637       23.698       19.446      938.634      561.579      378.138        0.609        0.094      101.448       12.527        0.015      339.500       12.876      866.713
10/05/2014  01:08:00      -66.827      -58.422        1.619       30.661       31.868       19.757      940.081     1015.556      390.341        0.511        0.117       88.764       18.695        0.044      339.426       12.752      866.709
10/05/2014  01:09:00     -116.774      -67.058      -13.218       23.849       29.857       16.419      568.795      891.416      269.592        1.002        0.086      134.658       12.423        0.009      339.452       12.794      866.719
10/05/2014  01:10:00     -107.312      -71.219      -13.240       26.745       19.932       13.622      715.304      397.297      185.549        0.903        0.065      128.795        8.255        0.004      339.520       12.908      866.709
10/05/2014  01:11:00      -60.449      -59.718       -1.387       33.202       29.524       18.573     1102.387      871.646      344.939        0.477        0.116       84.973       16.739        0.039      339.418       12.737      866.711
10/05/2014  01:12:00      -50.013      -39.828        2.652       33.449       30.292       20.436     1118.851      917.590      417.639        0.327        0.123       63.934       10.868        0.029      339.376       12.667      866.726
10/05/2014  01:13:00      -96.174      -64.153       -3.568       34.786       32.367       22.751     1210.068     1047.613      517.587        0.808        0.139      115.607       19.254        0.028      339.380       12.674      866.721
10/05/2014  01:14:00      -89.680      -60.573        5.003       40.520       33.825       24.458     1641.869     1144.111      598.198        0.756        0.169      108.220       23.915        0.049      339.296       12.532      866.713
10/05/2014  01:15:00     -102.351      -65.881        0.657       34.082       30.456       24.886     1161.599      927.598      619.330        0.876        0.135      121.721       18.183        0.022      339.265       12.480      866.717
10/05/2014  01:16:00     -130.922      -53.247       -6.645       25.366       20.349       15.623      643.457      414.082      244.070        1.066        0.065      141.336       10.693        0.006      339.287       12.517      866.708
10/05/2014  01:17:00     -122.821      -59.271      -13.252       23.887       25.403       17.552      570.583      645.320      308.082        1.015        0.076      136.374       16.051        0.014      339.321       12.574      866.699
10/05/2014  01:18:00     -125.030      -53.295      -13.594       25.065       20.510       15.968      628.261      420.650      254.990        0.998        0.065      135.915       16.607        0.015      339.327       12.584      866.702
10/05/2014  01:19:00     -124.919      -62.049      -11.670       15.565       19.012       13.571      242.280      361.439      184.160        1.019        0.039      139.481        6.488        0.002      339.316       12.565      866.699
10/05/2014  01:20:00     -111.158      -55.787       -6.673       18.988       26.074       14.813      360.535      679.862      219.430        0.839        0.063      124.372       13.081        0.011      339.290       12.523      866.689
10/05/2014  01:21:00      -93.405      -42.180       -5.154       30.797       22.952       16.012      948.434      526.808      256.397        0.613        0.087      102.487       17.311        0.029      339.238       12.435      866.687
10/05/2014  01:22:00      -97.616      -43.061       -1.842       28.473       25.895       19.242      810.714      670.553      370.272        0.662        0.093      106.692       18.468        0.030      339.205       12.379      866.691
10/05/2014  01:23:00      -76.545      -37.287        1.705       38.478       22.259       17.643     1480.566      495.472      311.292        0.477        0.114       85.144       21.402        0.063      339.242       12.441      866.696
10/05/2014  01:24:00     -114.882      -39.189       -7.836       15.241       16.025       12.090      232.285      256.805      146.158        0.772        0.032      121.382        3.862        0.001      339.260       12.471      866.700
10/05/2014  01:25:00     -113.507      -24.562      -10.218       31.427       18.916       10.784      987.685      357.823      116.303        0.753        0.073      116.134       13.240        0.013      339.193       12.359      866.716
10/05/2014  01:26:00     -117.886      -30.949       -9.293       23.026       18.118       17.064      530.202      328.268      291.183        0.805        0.057      121.881       13.417        0.012      339.211       12.389      866.715
10/05/2014  01:27:00     -114.494      -33.876       -3.174       25.130       17.896       17.567      631.535      320.273      308.588        0.776        0.063      119.401       14.868        0.016      339.150       12.286      866.720
10/05/2014  01:28:00     -127.127      -46.241       -3.051       32.423       18.273       19.601     1051.221      333.907      384.196        1.004        0.088      135.276       21.436        0.025      339.191       12.355      866.735
10/05/2014  01:29:00     -134.347      -49.739      -13.399       13.297       14.065       10.551      176.801      197.823      111.318        1.059        0.024      143.259        4.281        0.001      339.176       12.330      866.754
10/05/2014  01:30:00     -122.290      -45.138      -14.342       11.264       19.905       12.341      126.879      396.218      152.292        0.894        0.034      130.355        6.698        0.003      339.178       12.333      866.754
10/05/2014  01:31:00     -117.330      -30.844      -11.334       26.258       14.440       13.390      689.461      208.523      179.304        0.796        0.054      121.316       12.523        0.011      339.114       12.225      866.760
10/05/2014  01:32:00     -109.440      -28.177      -11.102       21.554       14.839       12.288      464.579      220.199      150.997        0.686        0.042      113.009       12.984        0.013      339.091       12.188      866.776
10/05/2014  01:33:00      -65.586      -47.853       -1.871       29.744       18.787       13.306      884.685      352.957      177.048        0.400        0.071       81.187       15.979        0.039      339.087       12.179      866.797
10/05/2014  01:34:00      -75.365      -50.970       -6.732       22.978       16.410       13.229      528.011      269.278      175.016        0.465        0.049       90.983        8.546        0.009      339.203       12.375      866.812
10/05/2014  01:35:00      -94.970      -56.854       -6.404       12.976       17.510       13.436      168.387      306.594      180.518        0.647        0.033      110.687        9.716        0.008      339.133       12.258      866.820
10/05/2014  01:36:00     -119.508      -32.125      -17.245        9.932        8.431        8.510       98.652       71.082       72.425        0.793        0.012      123.750        3.702        0.001      339.082       12.173      866.837
10/05/2014  01:37:00     -103.822      -22.582      -11.511       14.819       18.119       13.139      219.614      328.307      172.642        0.607        0.036      106.250        6.284        0.003      339.181       12.338      866.833
10/05/2014  01:38:00      -93.016      -23.379       -8.522       17.823       16.137       11.494      317.649      260.396      132.102        0.499        0.036       95.909        7.939        0.007      339.254       12.459      866.838
10/05/2014  01:39:00      -88.162      -23.579       -9.081       10.364       12.691       10.369      107.406      161.057      107.509        0.439        0.019       91.261        2.388        0.001      339.304       12.545      866.854
10/05/2014  01:40:00      -95.769      -29.938       -8.402       16.820       14.485       10.265      282.899      209.819      105.368        0.537        0.030      100.340        7.365        0.005      339.268       12.484      866.869
10/05/2014  01:41:00     -112.868      -42.836      -13.479       12.025        9.970       12.182      144.604       99.393      148.397        0.757        0.020      120.723        6.833        0.003      339.199       12.371      866.874
10/05/2014  01:42:00     -126.230      -52.766      -13.152        9.335        8.649        6.521       87.150       74.803       42.527        0.955        0.010      136.815        3.343        0.001      339.124       12.241      866.875
10/05/2014  01:43:00     -113.102      -53.986       -7.868       17.198       19.464       13.982      295.784      378.851      195.491        0.832        0.044      125.326        6.623        0.003      339.065       12.143      866.887
10/05/2014  01:44:00     -113.299      -61.661       -4.728       17.045       24.320       15.003      290.547      591.450      225.076        0.888        0.055      128.991        7.776        0.004      339.113       12.225      866.890
10/05/2014  01:45:00      -97.221      -53.200       -7.341       23.076       18.239       15.700      532.500      332.656      246.490        0.672        0.056      110.825       12.793        0.013      339.009       12.048      866.889
10/05/2014  01:46:00      -93.892      -46.770       -3.535       19.947       22.094       14.469      397.872      488.125      209.350        0.606        0.055      104.896        9.589        0.008      339.090       12.185      866.903
10/05/2014  01:47:00      -82.292      -39.076       -3.491       20.527       17.490       12.725      421.375      305.901      161.915        0.460        0.044       91.098        8.197        0.008      339.093       12.192      866.916
10/05/2014  01:48:00      -89.677      -35.813       -8.103        9.525       11.734        8.248       90.727      137.679       68.033        0.484        0.015       96.564        5.589        0.003      339.136       12.261      866.918
10/05/2014  01:49:00      -93.988      -37.441       -8.695        9.840       14.057        8.382       96.832      197.603       70.256        0.534        0.018      101.171        3.816        0.001      339.141       12.270      866.928
10/05/2014  01:50:00      -63.911      -26.878        0.068       31.310       23.397       16.549      980.340      547.440      273.870        0.330        0.090       69.333       17.455        0.063      339.046       12.111      866.938
10/05/2014  01:51:00      -38.168      -19.330       -1.495       20.471       14.382       14.779      419.066      206.841      218.430        0.134        0.042       42.783       12.542        0.086      338.946       11.943      866.936
10/05/2014  01:52:00      -57.431      -28.182       -2.263       23.559       17.100       13.991      555.039      292.397      195.760        0.257        0.052       63.973       11.756        0.034      338.911       11.885      866.932
10/05/2014  01:53:00      -86.627      -52.938       -4.362       28.860       19.193       14.441      832.915      368.358      208.545        0.587        0.070      101.522       11.991        0.014      338.939       11.932      866.930
10/05/2014  01:54:00      -93.549      -35.532       -6.844       23.732       19.114       12.598      563.203      365.335      158.700        0.557        0.054      100.070       14.609        0.021      338.809       11.712      866.929
10/05/2014  01:55:00     -100.102      -41.582       -4.937       14.895       12.525        9.596      221.875      156.886       92.074        0.612        0.024      108.395        3.672        0.001      338.927       11.911      866.932
10/05/2014  01:56:00      -81.707      -38.454       -8.558       19.078       16.359       15.105      363.961      267.627      228.147        0.454        0.043       90.304       10.498        0.014      339.002       12.036      866.938
10/05/2014  01:57:00      -80.364      -51.484       -8.837       27.890       18.436       13.479      777.864      339.904      181.683        0.524        0.065       95.440       10.862        0.013      338.970       11.984      866.948
10/05/2014  01:58:00      -97.797      -50.807       -3.012       26.034       19.833       16.978      677.752      393.350      288.261        0.676        0.068      110.207       12.858        0.014      338.933       11.921      866.949
10/05/2014  01:59:00     -104.560      -63.798       -4.754       18.809       13.921       13.036      353.785      193.792      169.948        0.787        0.036      122.487       10.397        0.007      338.879       11.828      866.947
10/05/2014  02:00:00      -98.724      -47.155      -10.137       16.583       16.608       15.911      274.985      275.831      253.148        0.644        0.040      109.408       15.128        0.019      338.867       11.809      866.959
10/05/2014  02:01:00      -91.919      -28.966       -5.800       10.719       12.857        9.010      114.893      165.301       81.184        0.484        0.018       96.375        6.982        0.005      338.855       11.790      866.963
10/05/2014  02:02:00      -87.958      -30.025       -8.932       11.377       10.414        6.093      129.431      108.449       37.122        0.450        0.014       92.941        3.594        0.001      338.864       11.804      866.967
10/05/2014  02:03:00      -78.845      -30.498       -4.211       11.272       12.166        9.884      127.064      148.011       97.696        0.377        0.019       84.538        4.290        0.003      338.907       11.876      866.973
10/05/2014  02:04:00      -75.076      -33.809       -5.602       11.186       10.065        9.687      125.132      101.308       93.843        0.357        0.016       82.338        4.002        0.002      338.928       11.913      866.978
10/05/2014  02:05:00      -90.330      -38.701       -8.232        8.659        9.839        7.693       74.986       96.801       59.184        0.498        0.012       98.271        4.864        0.002      338.941       11.934      866.961
10/05/2014  02:06:00     -104.164      -45.139       -4.472       14.124       11.389       11.604      199.498      129.721      134.643        0.669        0.023      113.524        9.494        0.007      338.965       11.973      866.945
10/05/2014  02:07:00     -111.876      -27.722       -8.391        9.499        9.872        6.533       90.232       97.460       42.677        0.679        0.012      115.260        1.914        0.000      338.894       11.854      866.944
10/05/2014  02:08:00     -101.901      -29.911      -12.644       13.159       14.442       11.105      173.171      208.572      123.321        0.597        0.025      106.200        6.282        0.003      338.879       11.831      866.943
10/05/2014  02:09:00     -114.984      -39.223      -10.961       12.804        7.285        9.950      163.949       53.077       99.012        0.760        0.016      121.490        8.461        0.005      338.868       11.812      866.933
10/05/2014  02:10:00      -98.341      -37.856      -10.277       12.222       15.715        9.715      149.368      246.949       94.383        0.585        0.025      105.376        8.164        0.006      338.844       11.771      866.932
10/05/2014  02:11:00      -91.611      -41.319      -15.940       14.477       14.026       11.346      209.595      196.739      128.729        0.544        0.027      100.498        6.796        0.005      338.789       11.680      866.938
10/05/2014  02:12:00      -80.276      -37.373      -14.757       15.587       14.332        8.592      242.952      205.402       73.816        0.429        0.026       88.549        6.127        0.005      338.795       11.688      866.931
10/05/2014  02:13:00      -91.319      -24.156      -14.957       16.084       18.091        9.663      258.689      327.287       93.378        0.491        0.034       94.460       10.356        0.012      338.807       11.709      866.920
10/05/2014  02:14:00      -98.469      -10.343      -18.321       28.517       17.997       13.825      813.246      323.888      191.124        0.573        0.066       99.011       13.915        0.020      338.853       11.785      866.908
10/05/2014  02:15:00     -101.715      -17.881      -17.406       16.868       16.723       12.392      284.534      279.668      153.570        0.584        0.036      103.275        5.276        0.003      338.840       11.765      866.912
10/05/2014  02:16:00     -108.811      -38.157      -16.185       13.838       15.760       11.013      191.483      248.369      121.278        0.706        0.028      115.308        9.160        0.006      338.967       11.979      866.905
10/05/2014  02:17:00      -93.831      -29.280       -9.903       16.806       18.835       13.926      282.444      354.762      193.929        0.530        0.042       98.293        4.222        0.002      338.913       11.887      866.894
10/05/2014  02:18:00     -102.570      -16.748      -18.705       16.483       16.387       13.266      271.686      268.547      175.974        0.593        0.036      103.929       11.404        0.012      339.019       12.066      866.886
10/05/2014  02:19:00     -108.525      -27.212      -20.004       12.757       14.004       11.086      162.730      196.107      122.899        0.670        0.024      111.885        7.449        0.004      339.024       12.074      866.886
10/05/2014  02:20:00      -96.449      -27.326      -18.523       12.267       11.505        9.061      150.488      132.354       82.098        0.538        0.018      100.246        6.939        0.005      338.953       11.954      866.892
10/05/2014  02:21:00     -102.209      -34.575      -17.143       11.006       11.144        8.201      121.123      124.183       67.252        0.612        0.016      107.898        5.104        0.002      338.927       11.911      866.887
10/05/2014  02:22:00      -99.850      -44.871      -14.565       13.575       15.003        9.754      184.279      225.104       95.147        0.635        0.025      109.468        3.392        0.001      338.939       11.932      866.896
10/05/2014  02:23:00     -106.623      -46.448      -12.255       10.782       12.899        8.164      116.260      166.377       66.658        0.701        0.017      116.301        5.261        0.002      338.849       11.779      866.894
10/05/2014  02:24:00      -96.817      -49.826      -14.634       14.265       11.384        8.592      203.502      129.604       73.822        0.624        0.020      108.886        4.781        0.002      338.895       11.857      866.886
10/05/2014  02:25:00      -83.307      -54.421       -8.281       25.306       18.302       14.621      640.408      334.957      213.777        0.558        0.059       99.508        7.068        0.005      338.773       11.653      866.889
10/05/2014  02:26:00      -83.955      -56.908       -0.605       29.074       16.321       16.276      845.315      266.382      264.914        0.583        0.069      101.425       14.754        0.021      338.783       11.669      866.890
10/05/2014  02:27:00      -47.063      -46.129        0.458       30.788       32.441       19.058      947.882     1052.439      363.198        0.335        0.118       65.900       19.070        0.084      338.895       11.855      866.880
10/05/2014  02:28:00      -69.518      -61.545        6.285       42.382       40.781       26.433     1796.202     1663.122      698.720        0.641        0.208       92.847       23.932        0.066      338.908       11.880      866.868
10/05/2014  02:29:00      -45.224      -44.305        1.230       49.349       31.007       22.933     2435.276      961.455      525.920        0.397        0.196       63.309       26.589        0.176      338.866       11.807      866.871
10/05/2014  02:30:00      -39.977      -47.354        4.069       40.332       32.192       21.025     1626.671     1036.311      442.036        0.348        0.155       61.972       23.511        0.144      338.701       11.530      866.875
10/05/2014  02:31:00      -74.180      -89.892        4.742       41.533       33.276       20.274     1725.008     1107.316      411.048        0.842        0.162      116.547       22.209        0.036      338.807       11.707      866.872
10/05/2014  02:32:00      -50.025      -34.164        4.935       35.880       31.710       22.122     1287.369     1005.515      489.389        0.324        0.139       60.578       16.299        0.072      338.840       11.765      866.863
10/05/2014  02:33:00      -70.179      -86.093       -2.988       39.212       35.015       24.351     1537.569     1226.084      592.973        0.785        0.168      111.072       14.221        0.016      338.855       11.790      866.858
10/05/2014  02:34:00     -114.216      -53.864       -5.887       39.360       31.966       26.902     1549.203     1021.851      723.715        0.964        0.165      126.279       23.752        0.035      338.822       11.734      866.854
10/05/2014  02:35:00     -112.695      -72.505      -10.387       42.499       29.169       18.837     1806.195      850.857      354.817        1.054        0.151      134.004       19.605        0.021      338.792       11.684      866.836
10/05/2014  02:36:00     -106.199      -74.517       -3.322       44.218       34.032       26.868     1955.247     1158.150      721.863        1.034        0.192      129.734       23.273        0.032      338.751       11.616      866.816
10/05/2014  02:37:00      -97.573      -60.355        1.192       40.732       32.956       20.889     1659.080     1086.104      436.342        0.817        0.159      114.731       15.334        0.018      338.779       11.662      866.817
10/05/2014  02:38:00      -97.247      -81.308       -3.037       40.150       32.752       22.296     1612.027     1072.718      497.128        0.963        0.159      126.759       14.781        0.014      338.776       11.656      866.812
10/05/2014  02:39:00      -99.964      -77.568       -2.709       32.400       36.399       25.370     1049.754     1324.878      643.633        0.952        0.151      126.529       24.620        0.038      338.812       11.718      866.805
10/05/2014  02:40:00     -103.856      -53.580       -5.508       36.352       22.367       21.719     1321.481      500.274      471.714        0.799        0.115      116.863       18.695        0.026      338.789       11.678      866.789
10/05/2014  02:41:00      -72.794      -47.546        7.370       43.980       29.566       22.183     1934.219      874.134      492.063        0.546        0.165       86.945       18.191        0.044      338.701       11.531      866.784
10/05/2014  02:42:00      -59.392      -41.786        5.460       49.007       36.995       21.248     2401.697     1368.616      451.469        0.476        0.211       72.619       21.129        0.085      338.675       11.488      866.778
10/05/2014  02:43:00      -79.863      -51.835        1.887       37.251       29.190       20.035     1387.610      852.066      401.414        0.585        0.132       95.210       19.309        0.041      338.672       11.482      866.772
10/05/2014  02:44:00     -105.038      -40.367        0.072       18.256       16.756       11.756      333.264      280.749      138.204        0.671        0.038      112.528        8.050        0.005      338.697       11.523      866.772
10/05/2014  02:45:00      -96.337      -48.984       -6.680       17.565       13.027        8.828      308.530      169.703       77.936        0.614        0.028      108.075        6.517        0.004      338.705       11.539      866.770
10/05/2014  02:46:00     -104.489      -46.137       -8.301       15.340       13.252        9.900      235.321      175.617       98.005        0.681        0.025      114.222        6.995        0.004      338.672       11.482      866.774
10/05/2014  02:47:00     -126.439      -45.944      -14.428        9.218       10.581       10.410       84.971      111.957      108.369        0.931        0.015      134.528        6.137        0.002      338.668       11.476      866.763
10/05/2014  02:48:00     -126.752      -45.128       -8.976       19.311       11.396       11.473      372.913      129.871      131.631        0.941        0.032      134.545       10.761        0.006      338.655       11.455      866.746
10/05/2014  02:49:00     -115.978      -53.910       -7.420       24.550       15.652       13.305      602.701      244.994      177.031        0.872        0.051      127.895       12.759        0.010      338.655       11.454      866.736
10/05/2014  02:50:00     -111.527      -46.549      -14.264        9.947       11.461        8.174       98.935      131.360       66.819        0.755        0.015      120.851        2.835        0.001      338.612       11.382      866.739
10/05/2014  02:51:00     -122.095      -49.344      -15.741       17.397       12.013        9.940      302.673      144.320       98.806        0.907        0.027      131.689        4.614        0.001      338.593       11.352      866.733
10/05/2014  02:52:00     -108.893      -41.495      -11.496       17.791       20.314       14.834      316.529      412.661      220.045        0.733        0.047      116.531       11.875        0.010      338.486       11.172      866.726
10/05/2014  02:53:00      -77.286      -36.339      -13.546       18.308       21.594       12.460      335.187      466.316      155.243        0.422        0.048       85.403        9.170        0.012      338.512       11.213      866.730
10/05/2014  02:54:00      -69.031      -34.688       -9.068       22.596       26.697       18.926      510.563      712.723      358.177        0.382        0.079       77.256       11.409        0.022      338.477       11.155      866.742
10/05/2014  02:55:00      -83.676       -5.308      -17.430       22.115       25.688       13.336      489.060      659.857      177.859        0.433        0.066       83.844        9.700        0.013      338.596       11.356      866.736
10/05/2014  02:56:00      -80.960       -6.311      -22.037       18.702       16.665       11.317      349.753      277.735      128.068        0.392        0.038       81.205       11.807        0.021      338.711       11.547      866.732
10/05/2014  02:57:00      -75.649       -5.529      -16.591       11.201        8.500        6.076      125.459       72.250       36.916        0.313        0.012       75.850        3.025        0.002      338.782       11.668      866.729
10/05/2014  02:58:00      -91.729      -15.596      -19.033       13.906       14.393        7.813      193.387      207.150       61.036        0.474        0.023       93.046        4.815        0.003      338.634       11.418      866.720
10/05/2014  02:59:00      -76.320      -32.078      -11.692       15.887       19.038       13.391      252.410      362.444      179.326        0.389        0.040       82.787        7.018        0.007      338.633       11.415      866.717
10/05/2014  03:00:00      -94.662      -22.969      -15.798       18.871       18.958       12.601      356.112      359.393      158.795        0.531        0.044       97.408        8.845        0.008      338.534       11.250      866.704
10/05/2014  03:01:00      -87.783      -21.366      -15.403       26.709       21.740       15.533      713.371      472.641      241.281        0.491        0.071       90.346       14.606        0.026      338.546       11.271      866.696
10/05/2014  03:02:00      -76.366      -28.178      -16.398       23.047       24.604       14.136      531.178      605.380      199.822        0.412        0.067       81.399        7.641        0.009      338.541       11.262      866.692
10/05/2014  03:03:00      -77.931      -42.514      -15.006       29.550       27.357       17.266      873.203      748.412      298.129        0.501        0.096       88.774       14.313        0.026      338.541       11.262      866.691
10/05/2014  03:04:00      -77.321      -41.037      -14.317       24.934       17.661       20.345      621.680      311.927      413.911        0.461        0.067       87.536       13.232        0.023      338.542       11.264      866.691
10/05/2014  03:05:00      -55.581      -34.262      -11.962       26.219       20.904       13.032      687.425      436.988      169.840        0.285        0.065       65.292        8.711        0.018      338.571       11.313      866.691
10/05/2014  03:06:00      -44.740      -11.186       -6.390       23.507       13.437       15.051      552.560      180.561      226.536        0.156        0.048       46.117       15.120        0.107      338.661       11.464      866.688
10/05/2014  03:07:00      -51.178      -19.642      -16.374       18.436       19.484       16.143      339.897      379.620      260.612        0.213        0.049       54.818       13.302        0.059      338.680       11.494      866.699
10/05/2014  03:08:00      -19.102      -18.866        0.527       15.195       10.903        7.661      230.900      118.867       58.694        0.056        0.020       26.848        7.772        0.084      338.624       11.402      866.711
10/05/2014  03:09:00        7.539      -12.864      -13.439       12.306       11.135        9.918      151.449      123.992       98.365        0.039        0.019       14.910        7.668        0.264      338.824       11.737      866.712
10/05/2014  03:10:00      -25.324      -18.688       -4.296       16.980       12.142        9.699      288.316      147.422       94.077        0.077        0.026       31.473        8.871        0.079      338.767       11.641      866.702
10/05/2014  03:11:00      -43.210      -23.224       -3.811       24.460        9.176        8.882      598.270       84.202       78.898        0.159        0.038       49.056        9.828        0.040      338.627       11.405      866.690
10/05/2014  03:12:00      -69.984      -28.703      -12.373        7.626        8.991        8.790       58.155       80.835       77.268        0.305        0.011       75.641        5.050        0.004      338.535       11.252      866.675
10/05/2014  03:13:00      -40.692      -37.991       -9.994       21.546       15.010       13.364      464.214      225.314      178.602        0.203        0.043       55.670       11.646        0.044      338.589       11.343      866.678
10/05/2014  03:14:00      -71.793      -38.937       -9.380       17.004       11.947        9.052      289.148      142.733       81.945        0.364        0.026       81.673        6.937        0.007      338.572       11.314      866.680
10/05/2014  03:15:00      -76.507      -37.821       -9.561       11.165       11.670        6.081      124.658      136.181       36.978        0.384        0.015       85.345        3.718        0.002      338.661       11.465      866.674
10/05/2014  03:16:00      -64.869      -32.875       -5.050       10.606        9.055        7.400      112.484       81.987       54.756        0.278        0.012       72.724        4.124        0.003      338.740       11.597      866.667
10/05/2014  03:17:00      -44.703      -28.776       -0.666       15.212       11.496        7.698      231.399      132.148       59.264        0.162        0.021       53.164        6.125        0.013      338.757       11.625      866.670
10/05/2014  03:18:00      -35.799      -15.157       -3.373       13.688        8.640        4.408      187.353       74.653       19.433        0.090        0.014       38.876        2.997        0.006      338.588       11.340      866.680
10/05/2014  03:19:00      -36.412      -31.210       -1.713       16.952       11.973       11.096      287.367      143.342      123.132        0.143        0.028       47.958        6.644        0.019      338.532       11.247      866.686
10/05/2014  03:20:00      -31.812      -22.651        1.977       21.833       14.932       14.385      476.687      222.975      206.932        0.122        0.045       39.052       13.414        0.118      338.410       11.041      866.677
10/05/2014  03:21:00      -36.484      -23.374        0.015       20.737       20.366       11.942      430.023      414.794      142.608        0.143        0.049       43.330       10.912        0.063      338.409       11.040      866.679
10/05/2014  03:22:00      -44.212      -36.823       -1.423       28.491       18.869       16.803      811.764      356.033      282.341        0.238        0.073       57.538       16.918        0.086      338.367       10.970      866.680
10/05/2014  03:23:00      -60.338      -38.131       -5.657       19.251       15.764       11.775      370.608      248.494      138.659        0.294        0.038       71.377        8.249        0.013      338.380       10.993      866.670
10/05/2014  03:24:00      -67.456      -37.360       -6.875       12.429       14.053       12.238      154.490      197.482      149.778        0.325        0.025       77.111        9.046        0.014      338.468       11.139      866.668
10/05/2014  03:25:00      -72.623      -24.582      -12.879       10.978       11.180        8.733      120.516      124.985       76.262        0.318        0.016       76.671        5.441        0.005      338.484       11.166      866.670
10/05/2014  03:26:00      -72.064      -37.919      -15.223       11.261       10.715        8.933      126.807      114.803       79.807        0.359        0.016       81.431        6.077        0.006      338.506       11.204      866.680
10/05/2014  03:27:00      -76.393      -32.744      -12.563        8.383        9.642        7.861       70.271       92.974       61.789        0.365        0.011       83.115        2.764        0.001      338.412       11.046      866.681
10/05/2014  03:28:00      -86.716      -20.859      -12.503       11.158       11.138        8.095      124.503      124.056       65.529        0.421        0.016       89.190        4.254        0.002      338.394       11.015      866.678
10/05/2014  03:29:00      -98.552      -18.883      -12.928       10.967       11.633       10.179      120.269      135.317      103.622        0.530        0.018      100.345        7.675        0.006      338.348       10.938      866.676
10/05/2014  03:30:00      -94.927      -24.759      -13.764       11.251        9.767        9.441      126.592       95.403       89.124        0.506        0.016       98.102        6.424        0.004      338.355       10.949      866.668
10/05/2014  03:31:00     -112.312      -30.158      -12.728       11.286       14.756       11.688      127.368      217.754      136.621        0.708        0.024      116.291        5.962        0.003      338.351       10.944      866.665
10/05/2014  03:32:00     -113.435      -22.175      -11.808       18.387       13.725       14.691      338.084      188.372      215.832        0.712        0.037      115.582       13.210        0.013      338.326       10.901      866.664
10/05/2014  03:33:00     -103.157      -22.816      -12.419       16.192       14.732       11.294      262.181      217.025      127.553        0.596        0.030      105.650        7.343        0.005      338.323       10.896      866.662
10/05/2014  03:34:00     -114.024      -43.764       -7.028       14.763       16.750       12.897      217.952      280.572      166.322        0.782        0.033      122.134        7.813        0.004      338.286       10.834      866.653
10/05/2014  03:35:00     -100.689      -52.568       -8.593       21.129       11.261       12.496      446.429      126.800      156.150        0.685        0.036      113.586       10.878        0.009      338.275       10.814      866.651
10/05/2014  03:36:00      -77.703      -42.828       -5.538       28.694       18.642       11.815      823.346      347.522      139.602        0.461        0.066       88.724        4.963        0.003      338.331       10.911      866.647
10/05/2014  03:37:00      -72.046      -51.271       -6.942       30.411       25.466       12.666      924.841      648.504      160.418        0.480        0.087       88.427       11.533        0.017      338.404       11.033      866.661
10/05/2014  03:38:00      -93.994      -38.215       -5.743       24.472       16.980       11.948      598.895      288.320      142.749        0.568        0.051      101.466        4.115        0.002      338.411       11.044      866.668
10/05/2014  03:39:00      -76.362      -41.584       -6.174       17.978       15.987       11.263      323.202      255.588      126.862        0.415        0.035       86.950        8.268        0.009      338.285       10.834      866.674
10/05/2014  03:40:00      -66.389      -51.566       -4.230       26.367       18.531       17.432      695.221      343.406      303.881        0.421        0.067       84.063       14.101        0.028      338.229       10.739      866.692
10/05/2014  03:41:00      -42.040      -45.218        5.109       27.780       17.204       14.544      771.740      295.994      211.523        0.256        0.064       61.742       14.873        0.058      338.234       10.747      866.701
10/05/2014  03:42:00      -68.519      -46.729        1.729       26.869       27.286       15.686      721.960      744.538      246.037        0.430        0.086       82.936       14.413        0.030      338.212       10.711      866.706
10/05/2014  03:43:00     -100.443      -48.278      -10.029       22.107       23.986       12.694      488.717      575.323      161.148        0.687        0.061      111.443       10.384        0.009      338.234       10.747      866.700
10/05/2014  03:44:00      -67.039      -40.104       -5.361       37.578       19.208       14.432     1412.141      368.964      208.293        0.406        0.099       78.119       16.070        0.042      338.190       10.673      866.688
10/05/2014  03:45:00      -59.120      -31.422        3.489       42.801       24.100       12.883     1831.940      580.825      165.983        0.354        0.129       66.952       14.012        0.044      338.165       10.631      866.677
10/05/2014  03:46:00      -75.698      -43.695       -3.974       21.818       27.091       16.873      476.042      733.914      284.698        0.457        0.075       87.403       11.545        0.017      338.129       10.571      866.679
10/05/2014  03:47:00      -94.533      -24.051       -5.252       15.212       20.214       14.272      231.406      408.611      203.693        0.519        0.042       97.545        9.543        0.010      338.137       10.584      866.677
10/05/2014  03:48:00     -116.179      -36.334      -11.212        8.513        7.665        6.045       72.473       58.751       36.541        0.756        0.008      121.728        2.117        0.000      338.148       10.602      866.671
10/05/2014  03:49:00     -118.070      -34.819      -10.264       12.426       12.172       13.287      154.399      148.145      176.551        0.787        0.024      123.098        7.712        0.004      338.147       10.602      866.664
10/05/2014  03:50:00     -101.152      -22.434       -8.160       29.420       15.581       19.644      865.560      242.757      385.903        0.615        0.075      103.610       20.391        0.039      338.031       10.406      866.667
10/05/2014  03:51:00     -123.971      -24.498      -16.294       25.356       14.385       11.917      642.926      206.941      142.016        0.861        0.050      126.368       13.326        0.011      337.991       10.341      866.673
10/05/2014  03:52:00     -123.436      -29.627      -12.903       22.298       17.686       13.733      497.204      312.789      188.595        0.864        0.050      126.942        7.326        0.003      337.986       10.332      866.677
10/05/2014  03:53:00     -119.891      -43.331       -8.018       18.955       14.959       11.744      359.296      223.760      137.917        0.852        0.036      127.481       10.471        0.007      337.961       10.290      866.675
10/05/2014  03:54:00      -86.039      -44.586       -9.309       15.050       20.164       10.634      226.499      406.600      113.077        0.511        0.037       96.906        9.797        0.010      338.024       10.395      866.682
10/05/2014  03:55:00     -107.258      -15.578      -10.241       15.046       17.173        8.225      226.373      294.926       67.645        0.622        0.029      108.383        6.505        0.004      338.165       10.629      866.694
10/05/2014  03:56:00      -88.982      -20.404       -8.964       15.780       16.266       11.139      249.000      264.569      124.075        0.453        0.032       91.291       10.457        0.013      338.234       10.747      866.692
10/05/2014  03:57:00      -99.968      -13.965      -12.464       14.752        9.294        6.466      217.632       86.383       41.811        0.534        0.017      100.938        6.325        0.004      338.191       10.676      866.687
10/05/2014  03:58:00      -91.428      -22.692      -14.181       11.050       18.338        8.830      122.095      336.274       77.962        0.481        0.027       94.202        4.700        0.002      338.047       10.434      866.685
10/05/2014  03:59:00      -78.088      -44.259      -14.069       15.996       19.012       14.780      255.878      361.458      218.439        0.454        0.042       89.758       10.548        0.014      338.029       10.403      866.686
10/05/2014  04:00:00      -88.822      -48.266      -14.661       19.562       18.180       13.476      382.668      330.495      181.609        0.566        0.045      101.089        9.036        0.008      337.954       10.277      866.682
10/05/2014  04:01:00      -66.695      -42.640       -5.591       21.971       23.248       14.810      482.706      540.486      219.344        0.377        0.062       79.161       13.505        0.029      337.905       10.196      866.682
10/05/2014  04:02:00      -92.803      -48.932       -9.466       22.090       18.368       12.636      487.960      337.380      159.663        0.604        0.049      104.914        9.171        0.008      337.913       10.207      866.688
10/05/2014  04:03:00     -110.816      -31.251      -15.278       16.140       15.727       13.941      260.494      247.347      194.339        0.710        0.035      115.138        9.134        0.006      337.860       10.121      866.691
10/05/2014  04:04:00      -74.761      -38.794       -4.423       27.046       26.462       17.267      731.475      700.232      298.144        0.442        0.086       84.227       18.102        0.046      337.836       10.079      866.692
10/05/2014  04:05:00      -64.232      -48.563       -4.119       21.406       23.760       16.848      458.230      564.553      283.871        0.390        0.065       80.523        8.716        0.012      337.881       10.154      866.689
10/05/2014  04:06:00      -50.433      -35.592       -6.811       24.710       21.986       15.637      610.576      483.363      244.509        0.260        0.067       61.728       11.830        0.037      337.892       10.173      866.687
10/05/2014  04:07:00      -56.216      -55.573       -2.722       26.724       24.044       19.578      714.179      578.131      383.296        0.397        0.084       79.048       15.602        0.039      337.897       10.182      866.692
10/05/2014  04:08:00      -63.913      -43.888       -6.319       24.470       27.346       19.391      598.774      747.805      376.017        0.389        0.086       77.531       12.815        0.027      337.896       10.179      866.697
10/05/2014  04:09:00      -47.332      -28.030       -7.297       26.032       19.840       22.294      677.665      393.607      497.010        0.232        0.078       55.009       16.153        0.086      337.888       10.166      866.701
10/05/2014  04:10:00      -55.759      -30.929       -8.964       34.592       22.478       17.427     1196.596      505.265      303.702        0.308        0.100       63.762       15.354        0.058      337.826       10.063      866.694
10/05/2014  04:11:00      -27.962      -16.986        4.132       41.567       19.714       18.075     1727.791      388.642      326.689        0.176        0.122       32.717       24.107        0.543      337.775        9.976      866.692
10/05/2014  04:12:00      -59.996      -25.919       -0.569       36.020       28.290       14.118     1297.435      800.304      199.312        0.328        0.115       65.355       14.609        0.050      337.812       10.038      866.696
10/05/2014  04:13:00      -85.222      -22.420       -7.306       36.670       26.278       17.325     1344.698      690.520      300.148        0.508        0.117       88.122       16.889        0.037      337.855       10.111      866.688
10/05/2014  04:14:00      -77.009      -16.823       -5.489       22.319       21.919       18.473      498.154      480.437      341.250        0.378        0.066       78.825       11.371        0.021      337.750        9.935      866.679
10/05/2014  04:15:00      -90.965      -18.338      -21.464       21.138       26.272       17.724      446.800      690.195      314.139        0.526        0.073       92.795        4.856        0.003      337.856       10.114      866.679
10/05/2014  04:16:00      -81.078      -41.020       -8.308       26.672       25.351       16.829      711.414      642.654      283.229        0.498        0.082       90.864       14.073        0.024      337.786        9.995      866.674
10/05/2014  04:17:00      -80.972      -29.514      -13.915       28.724       23.094       22.126      825.070      533.328      489.551        0.473        0.092       86.183       16.650        0.037      337.840       10.085      866.667
10/05/2014  04:18:00      -45.443      -23.179      -16.194       27.245       21.358       15.740      742.302      456.176      247.740        0.216        0.072       51.013       15.975        0.098      337.772        9.972      866.659
10/05/2014  04:19:00      -54.447      -24.996      -10.973       26.923       22.356       21.238      724.853      499.777      451.071        0.269        0.084       59.910        9.770        0.027      337.769        9.967      866.668
10/05/2014  04:20:00      -78.542      -25.611      -17.212       19.455       21.641       16.328      378.513      468.315      266.602        0.412        0.056       82.612       13.372        0.026      337.756        9.945      866.667
10/05/2014  04:21:00      -78.444      -50.107      -18.792       22.617       21.944       18.588      511.518      481.541      345.508        0.518        0.067       93.082       13.973        0.023      337.798       10.015      866.657
10/05/2014  04:22:00     -109.136      -40.199      -13.824       20.119       19.260       11.928      404.759      370.949      142.277        0.732        0.046      116.304        8.813        0.006      337.789       10.002      866.651
10/05/2014  04:23:00     -127.807      -39.423      -16.867       14.694       13.718       12.045      215.915      188.174      145.093        0.936        0.027      133.749        4.436        0.001      337.786        9.995      866.654
10/05/2014  04:24:00     -112.094      -43.678      -10.282       18.034       13.078        9.182      325.231      171.029       84.306        0.758        0.029      120.303        4.968        0.002      337.794       10.008      866.656
10/05/2014  04:25:00     -104.211      -53.998       -6.817       19.161       14.508       11.987      367.132      210.481      143.684        0.727        0.036      117.370       11.273        0.009      337.809       10.033      866.663
10/05/2014  04:26:00      -99.011      -38.254       -4.469       18.040       17.112       11.951      325.435      292.814      142.830        0.602        0.038      106.144        9.893        0.009      337.805       10.027      866.681
10/05/2014  04:27:00      -68.374      -24.138       -0.308       28.896       21.600       15.431      834.978      466.579      238.125        0.340        0.077       72.510       12.815        0.031      337.844       10.093      866.696
10/05/2014  04:28:00      -36.584      -29.179        3.322       31.272       20.700       17.167      977.912      428.480      294.711        0.195        0.085       46.795       16.028        0.117      337.842       10.089      866.709
10/05/2014  04:29:00      -32.678      -23.893        3.364       27.779       22.233       15.974      771.694      494.324      255.180        0.159        0.076       40.481       15.740        0.151      337.680        9.817      866.712
10/05/2014  04:30:00      -56.703      -43.768        0.007       40.514       25.711       19.344     1641.388      661.066      374.177        0.390        0.134       71.630        7.508        0.011      337.645        9.758      866.716
10/05/2014  04:31:00      -72.002      -65.154       -2.272       37.036       31.662       22.926     1371.683     1002.486      525.609        0.617        0.145       97.105       19.805        0.042      337.683        9.822      866.726
10/05/2014  04:32:00      -84.453      -60.292       -2.174       40.767       20.400       17.960     1661.930      416.159      322.579        0.659        0.120      103.767       17.429        0.028      337.707        9.862      866.724
10/05/2014  04:33:00      -48.274      -50.122       -0.201       35.635       33.555       21.115     1269.887     1125.932      445.845        0.384        0.142       69.589       19.071        0.075      337.697        9.846      866.723
10/05/2014  04:34:00      -66.819      -56.765       -2.930       41.719       32.430       24.263     1740.502     1051.720      588.709        0.554        0.169       87.676       18.949        0.047      337.773        9.974      866.730
10/05/2014  04:35:00      -59.864      -55.277        3.471       43.268       32.607       23.613     1872.145     1063.247      557.555        0.507        0.175       81.481       20.840        0.065      337.799       10.016      866.745
10/05/2014  04:36:00      -70.553      -63.418        5.737       37.339       29.707       19.045     1394.192      882.490      362.719        0.584        0.132       94.866       18.652        0.039      337.746        9.929      866.757
10/05/2014  04:37:00      -72.845      -54.053        4.879       39.304       26.914       23.151     1544.767      724.378      535.989        0.553        0.140       90.709       20.188        0.050      337.730        9.901      866.761
10/05/2014  04:38:00      -63.686      -49.821        3.746       43.343       27.272       17.789     1878.585      743.740      316.465        0.474        0.147       80.858       17.120        0.045      337.634        9.741      866.761
10/05/2014  04:39:00      -98.960      -54.544        3.232       42.280       28.373       19.186     1787.587      805.001      368.121        0.787        0.148      112.996       19.919        0.031      337.649        9.765      866.771
10/05/2014  04:40:00     -130.108      -54.343      -11.267       14.310       17.948        9.864      204.762      322.126       97.302        1.032        0.031      141.001        5.272        0.001      337.691        9.836      866.769
10/05/2014  04:41:00     -114.509      -52.540       -1.370       33.840       24.806       16.140     1145.175      615.361      260.490        0.895        0.101      125.987       16.863        0.018      337.616        9.712      866.764
10/05/2014  04:42:00     -112.721      -46.461        5.621       37.232       26.030       17.781     1386.235      677.567      316.159        0.864        0.119      121.921       18.327        0.023      337.582        9.653      866.759
10/05/2014  04:43:00     -102.371      -54.176       -1.206       48.538       27.279       17.294     2355.935      744.133      299.069        0.841        0.170      115.822       16.882        0.021      337.647        9.763      866.755
10/05/2014  04:44:00     -109.005      -58.447       -6.244       41.494       22.005       16.647     1721.772      484.225      277.112        0.891        0.124      123.685       10.954        0.008      337.668        9.798      866.745
10/05/2014  04:45:00     -126.461      -59.150      -15.084       29.458       20.703       19.051      867.783      428.621      362.945        1.069        0.083      139.611       18.816        0.018      337.608        9.697      866.735
10/05/2014  04:46:00     -125.908      -46.647       -9.600       17.639       17.758       13.379      311.131      315.344      179.006        0.946        0.040      134.272       10.146        0.006      337.593        9.672      866.736
10/05/2014  04:47:00     -123.870      -62.490       -2.349       23.937       16.961       15.215      572.974      287.671      231.497        1.017        0.055      138.740       10.099        0.005      337.542        9.586      866.730
10/05/2014  04:48:00     -127.920      -60.005       -3.111       25.545       19.594       15.248      652.554      383.939      232.498        1.062        0.063      141.295       11.461        0.007      337.548        9.596      866.711
10/05/2014  04:49:00     -105.479      -64.088       -4.973       35.584       19.956       17.384     1266.219      398.252      302.195        0.861        0.098      123.422       17.937        0.021      337.576        9.642      866.708
10/05/2014  04:50:00      -74.940      -50.335       -3.319       43.264       31.182       20.246     1871.742      972.321      409.919        0.571        0.163       90.275       14.850        0.027      337.586        9.661      866.697
10/05/2014  04:51:00      -62.778      -43.088       -2.908       56.435       31.376       17.251     3184.944      984.440      297.613        0.514        0.223       76.143       23.402        0.094      337.547        9.593      866.691
10/05/2014  04:52:00      -70.031      -62.146       -3.246       45.658       30.025       15.546     2084.681      901.483      241.668        0.600        0.161       93.629       10.981        0.014      337.627        9.729      866.698
10/05/2014  04:53:00      -85.234      -48.402        0.367       35.055       21.561       14.392     1228.875      464.860      207.144        0.575        0.095       98.018       15.314        0.024      337.658        9.780      866.695
10/05/2014  04:54:00      -77.741      -60.381        1.732       39.318       26.212       20.558     1545.914      687.056      422.648        0.617        0.133       98.436       19.303        0.038      337.724        9.890      866.688
10/05/2014  04:55:00      -91.450      -67.651       -1.598       37.027       22.830       24.524     1370.982      521.226      601.431        0.772        0.125      113.753       20.390        0.032      337.702        9.855      866.684
10/05/2014  04:56:00      -89.098      -57.640        2.312       45.431       35.891       24.815     2063.963     1288.146      615.797        0.762        0.198      106.117       23.770        0.050      337.594        9.673      866.671
10/05/2014  04:57:00     -128.577      -59.601       -1.527       32.591       28.146       20.242     1062.153      792.182      409.740        1.117        0.113      141.719       14.978        0.011      337.566        9.626      866.658
10/05/2014  04:58:00     -131.775      -47.423       -1.632       33.807       23.973       22.385     1142.924      574.720      501.086        1.092        0.111      140.049       18.112        0.017      337.565        9.625      866.651
10/05/2014  04:59:00      -91.883      -35.898        2.634       51.870       30.566       18.098     2690.543      934.288      327.544        0.684        0.198       98.647       21.158        0.046      337.564        9.623      866.654
10/05/2014  05:00:00      -90.418      -47.512        3.967       45.990       28.016       21.910     2115.061      784.889      480.045        0.691        0.169      102.141       23.571        0.053      337.602        9.686      866.668
10/05/2014  05:01:00      -53.636      -37.640       11.011       48.362       30.327       26.019     2338.885      919.715      676.986        0.417        0.197       65.525       27.105        0.171      337.523        9.554      866.677
10/05/2014  05:02:00      -65.203      -29.264        5.334       39.893       25.988       21.852     1591.490      675.378      477.515        0.394        0.137       71.469       17.958        0.063      337.576        9.644      866.685
10/05/2014  05:03:00      -94.480      -47.429        1.129       32.903       22.315       14.990     1082.597      497.964      224.698        0.649        0.090      105.716       14.590        0.019      337.595        9.676      866.697
10/05/2014  05:04:00      -97.076      -48.108        2.025       36.269       26.292       20.457     1315.413      691.273      418.498        0.708        0.121      108.342       19.870        0.034      337.556        9.611      866.701
10/05/2014  05:05:00      -99.748      -47.974        6.659       39.205       24.554       17.483     1536.999      602.875      305.655        0.737        0.122      110.685       19.366        0.031      337.652        9.771      866.694
10/05/2014  05:06:00      -92.633      -33.776        4.806       26.178       26.903       16.758      685.306      723.776      280.841        0.572        0.084       98.598       16.327        0.027      337.597        9.678      866.703
10/05/2014  05:07:00     -106.142      -60.213       -0.567       33.919       23.870       17.968     1150.501      569.761      322.839        0.847        0.102      122.032       17.871        0.021      337.613        9.705      866.708
10/05/2014  05:08:00      -88.908      -57.704       -1.978       29.196       27.321       19.213      852.389      746.420      369.133        0.660        0.098      105.992       15.297        0.021      337.582        9.654      866.705
10/05/2014  05:09:00      -91.896      -57.955       -5.621       23.894       23.530       19.418      570.907      553.659      377.054        0.667        0.075      108.645       19.024        0.031      337.497        9.511      866.698
10/05/2014  05:10:00      -68.325      -52.481       -0.158       33.780       21.789       19.386     1141.106      474.743      375.821        0.471        0.100       86.154       17.389        0.041      337.381        9.316      866.695
10/05/2014  05:11:00      -52.742      -39.345        7.632       30.934       22.543       17.000      956.935      508.199      288.986        0.307        0.088       65.801       16.530        0.063      337.417        9.376      866.702
10/05/2014  05:12:00      -61.412      -51.946        4.312       31.154       24.155       20.618      970.594      583.451      425.112        0.423        0.099       80.435       14.391        0.032      337.414        9.371      866.709
10/05/2014  05:13:00      -62.773      -47.918       -0.989       31.594       15.940       20.948      998.185      254.071      438.826        0.396        0.085       78.972       20.358        0.066      337.518        9.547      866.705
10/05/2014  05:14:00      -59.360      -42.921       -3.117       23.093       19.277       13.980      533.276      371.610      195.436        0.324        0.055       73.251       11.922        0.026      337.465        9.457      866.699
10/05/2014  05:15:00      -84.939      -57.220       -4.407       35.107       24.288       18.503     1232.536      589.903      342.351        0.634        0.108      102.415       13.408        0.017      337.489        9.497      866.698
10/05/2014  05:16:00      -68.521      -58.461       -0.249       34.040       24.327       17.786     1158.747      591.827      316.327        0.509        0.103       90.071       14.012        0.024      337.361        9.284      866.707
10/05/2014  05:17:00      -76.266      -63.521        1.547       34.830       26.971       17.005     1213.125      727.417      289.185        0.604        0.111       99.254       15.844        0.025      337.467        9.460      866.723
10/05/2014  05:18:00      -71.270      -70.855       -3.364       28.516       36.427       17.467      813.134     1326.939      305.102        0.628        0.122      100.498       12.755        0.016      337.603        9.688      866.733
10/05/2014  05:19:00      -61.509      -35.560        7.802       32.387       38.914       22.829     1048.916     1514.273      521.171        0.410        0.154       71.048       19.224        0.073      337.564        9.622      866.743
10/05/2014  05:20:00      -68.828      -34.263        3.965       33.045       20.315       20.248     1091.941      412.701      409.987        0.392        0.096       76.885       19.835        0.067      337.590        9.667      866.751
10/05/2014  05:21:00      -66.930      -35.800       -0.385       26.508       19.013       14.988      702.682      361.476      224.627        0.352        0.064       75.903       12.321        0.026      337.577        9.645      866.758
10/05/2014  05:22:00      -92.865      -33.926       -5.439       15.926       17.670       13.020      253.632      312.237      169.530        0.527        0.037       98.868        7.264        0.005      337.539        9.582      866.752
10/05/2014  05:23:00      -65.578      -39.104        0.815       25.751       18.585       13.124      663.120      345.385      172.228        0.351        0.059       76.352       11.584        0.023      337.451        9.434      866.745
10/05/2014  05:24:00      -78.636      -31.591       -4.618       17.024       18.911       12.614      289.804      357.612      159.126        0.400        0.040       84.744        8.406        0.010      337.490        9.500      866.746
10/05/2014  05:25:00      -71.454      -29.926        0.529       16.770       20.029       10.654      281.235      401.170      113.506        0.340        0.040       77.468       10.063        0.017      337.500        9.515      866.742
10/05/2014  05:26:00      -73.346      -40.170        3.614       30.713       18.321       15.210      943.273      335.642      231.334        0.426        0.076       83.626       15.922        0.036      337.520        9.550      866.747
10/05/2014  05:27:00      -69.169      -48.186        9.211       41.572       28.541       24.414     1728.227      814.581      596.040        0.516        0.157       84.299       20.890        0.061      337.449        9.430      866.745
10/05/2014  05:28:00      -60.348      -46.872        5.650       42.931       27.324       19.952     1843.067      746.606      398.064        0.443        0.149       76.412       19.643        0.066      337.403        9.354      866.739
10/05/2014  05:29:00      -56.459      -30.403        9.127       48.774       29.535       18.865     2378.938      872.300      355.905        0.390        0.180       64.124       23.149        0.130      337.342        9.251      866.736
10/05/2014  05:30:00      -37.318      -13.617        6.825       44.915       25.441       15.797     2017.324      647.258      249.535        0.227        0.146       39.725       20.599        0.269      337.322        9.216      866.745
10/05/2014  05:31:00      -92.806      -32.675       -1.121       16.308       22.879       14.557      265.950      523.465      211.892        0.534        0.050       98.390        3.135        0.001      337.339        9.246      866.746
10/05/2014  05:32:00      -71.468      -39.508       -3.544       18.356       15.819       12.228      336.953      250.237      149.513        0.371        0.037       81.661        8.222        0.010      337.324        9.220      866.755
10/05/2014  05:33:00      -53.654      -32.945       -5.465       18.994       13.201        8.967      360.789      174.271       80.406        0.230        0.031       62.961        6.798        0.012      337.398        9.345      866.758
10/05/2014  05:34:00      -44.569      -34.011        0.099       17.969       13.904       10.495      322.874      193.322      110.138        0.188        0.031       56.064        7.007        0.016      337.356        9.274      866.766
10/05/2014  05:35:00      -54.873      -40.201       -4.308       36.678       19.793       15.947     1345.291      391.776      254.308        0.332        0.100       68.024       20.200        0.088      337.310        9.196      866.771
10/05/2014  05:36:00      -74.958      -44.066       -8.030       20.783       25.726       15.719      431.940      661.823      247.073        0.448        0.067       86.951       12.798        0.022      337.313        9.202      866.767
10/05/2014  05:37:00      -81.565      -44.061       -5.552       19.877       22.431       15.205      395.078      503.132      231.189        0.488        0.056       92.705       10.825        0.014      337.265        9.121      866.760
10/05/2014  05:38:00      -74.693      -50.861       -5.584       43.125       25.639       18.906     1859.733      657.383      357.429        0.554        0.144       90.365       17.013        0.035      337.245        9.089      866.768
10/05/2014  05:39:00      -94.379      -57.121       -6.006       29.796       37.591       19.541      887.797     1413.062      381.867        0.744        0.134      110.319       15.902        0.021      337.231        9.064      866.767
10/05/2014  05:40:00     -113.662      -70.009      -16.689       35.441       28.846       20.233     1256.057      832.120      409.386        1.030        0.125      133.493       10.033        0.006      337.239        9.080      866.768
10/05/2014  05:41:00      -85.617      -51.939       -3.591       61.282       40.867       30.575     3755.538     1670.081      934.805        0.820        0.318      100.140       33.821        0.114      337.206        9.024      866.764
10/05/2014  05:42:00     -111.888     -109.424       -8.017       46.878       32.440       22.421     2197.501     1052.353      502.698        1.415        0.188      156.501       23.785        0.023      337.195        9.007      866.763
10/05/2014  05:43:00     -134.281     -130.495      -17.522       36.613       34.884       18.257     1340.494     1216.867      333.308        1.913        0.145      187.244       16.233        0.008      337.180        8.979      866.775
10/05/2014  05:44:00      -99.302      -71.258       -7.828       36.362       36.156       25.504     1322.199     1307.247      650.467        0.914        0.164      122.224       24.682        0.041      337.178        8.977      866.795
10/05/2014  05:45:00      -97.856      -56.142      -10.319       43.128       26.570       19.726     1860.034      705.985      389.112        0.789        0.148      112.817       20.613        0.033      337.198        9.008      866.807
10/05/2014  05:46:00      -73.308      -57.882       -5.742       46.642       27.617       19.226     2175.489      762.675      369.630        0.603        0.165       93.404       16.619        0.032      337.171        8.966      866.812
10/05/2014  05:47:00      -73.750      -42.508        2.753       46.306       28.018       20.147     2144.232      784.995      405.901        0.529        0.167       85.123       23.725        0.078      337.153        8.936      866.830
10/05/2014  05:48:00      -60.194      -27.704       -0.350       33.139       22.716       17.417     1098.209      516.015      303.354        0.315        0.096       66.263       18.278        0.076      337.150        8.931      866.847
10/05/2014  05:49:00      -70.726      -50.102       -0.285       31.753       31.173       15.822     1008.238      971.767      250.323        0.487        0.112       86.674       13.548        0.024      337.161        8.949      866.863
10/05/2014  05:50:00      -73.929      -49.193       -0.105       39.777       31.250       15.834     1582.205      976.538      250.703        0.535        0.140       88.800       17.517        0.039      337.134        8.903      866.886
10/05/2014  05:51:00      -60.920      -52.938        3.482       49.820       30.876       24.312     2482.048      953.297      591.050        0.528        0.201       80.707       26.270        0.106      337.188        8.994      866.893
10/05/2014  05:52:00      -56.886      -48.693        3.781       41.958       29.809       20.272     1760.505      888.590      410.937        0.434        0.153       74.880       18.183        0.059      337.163        8.951      866.886
10/05/2014  05:53:00      -68.413      -44.273       -2.584       36.927       32.297       18.597     1363.628     1043.068      345.832        0.470        0.138       81.489       16.755        0.042      337.196        9.007      866.890
10/05/2014  05:54:00      -74.145      -67.084       -3.100       39.504       27.842       16.458     1560.576      775.161      270.879        0.631        0.130       99.989       13.020        0.017      337.172        8.969      866.893
10/05/2014  05:55:00      -66.892      -59.598       -0.527       28.367       20.744       23.274      804.699      430.316      541.688        0.490        0.089       89.591       16.745        0.035      337.206        9.025      866.902
10/05/2014  05:56:00      -66.814      -34.558       -3.528       15.359       16.576       10.780      235.888      274.773      116.200        0.315        0.031       75.222        6.503        0.007      337.128        8.893      866.915
10/05/2014  05:57:00      -58.430      -40.914       -5.742       19.543       13.717       10.339      381.944      188.155      106.886        0.290        0.034       71.330        4.397        0.004      337.136        8.908      866.934
10/05/2014  05:58:00      -62.115      -39.049       -2.290       27.934       20.074       12.473      780.288      402.980      155.577        0.336        0.067       73.370       12.294        0.028      337.135        8.907      866.958
10/05/2014  05:59:00      -73.497      -50.594       -5.047       22.149       20.566       15.467      490.562      422.959      239.220        0.457        0.058       89.228       11.283        0.016      337.199        9.012      866.978
10/05/2014  06:00:00      -96.981      -59.639      -14.366       29.184       23.035       14.600      851.705      530.610      213.168        0.738        0.080      113.851       13.748        0.015      337.210        9.030      866.990
10/05/2014  06:01:00      -59.309      -30.057        2.391       22.867       17.237       14.602      522.915      297.105      213.224        0.273        0.052       66.491       14.575        0.048      337.219        9.046      866.998
10/05/2014  06:02:00      -91.800      -40.145       -9.015       27.605       28.226       11.189      762.055      796.722      125.191        0.590        0.084      100.194       11.091        0.012      337.134        8.902      867.007
10/05/2014  06:03:00      -64.777      -44.582       -0.129       21.553       30.700       15.083      464.548      942.494      227.490        0.391        0.082       78.636       14.815        0.035      337.135        8.906      867.028
10/05/2014  06:04:00      -81.301      -33.420       -8.658       17.951       12.184        9.007      322.247      148.447       81.131        0.418        0.028       87.901        6.407        0.005      337.085        8.819      867.038
10/05/2014  06:05:00      -80.954      -20.645       -5.333       21.759       15.334       13.171      473.470      235.143      173.466        0.395        0.044       83.545       10.722        0.016      337.087        8.823      867.045
10/05/2014  06:06:00     -103.645      -33.099      -10.684       16.080       15.084       11.466      258.561      227.512      131.472        0.628        0.031      108.801        7.411        0.005      337.054        8.768      867.045
10/05/2014  06:07:00     -109.350      -48.925       -8.580       13.839       15.489       10.150      191.524      239.925      103.017        0.748        0.027      119.796        5.383        0.002      337.003        8.683      867.056
10/05/2014  06:08:00     -108.636      -26.046       -7.621       21.132       18.619       13.709      446.570      346.668      187.941        0.676        0.049      111.715        7.366        0.004      336.948        8.592      867.060
10/05/2014  06:09:00      -96.482      -14.734       -8.135       34.187       26.899       19.026     1168.775      723.539      362.008        0.592        0.113       97.601       18.073        0.034      336.744        8.251      867.054
10/05/2014  06:10:00     -113.020      -31.226       -3.249       27.716       19.903       15.932      768.163      396.131      253.831        0.759        0.071      117.254       15.924        0.018      336.819        8.377      867.045
10/05/2014  06:11:00     -118.270      -25.519       -9.271       21.016       17.714       15.907      441.658      313.787      253.041        0.787        0.050      120.992       13.094        0.012      336.791        8.330      867.045
10/05/2014  06:12:00     -107.530      -24.237       -4.262       29.428       22.229       15.947      866.019      494.145      254.316        0.689        0.081      110.227       13.195        0.014      336.686        8.154      867.051
10/05/2014  06:13:00     -139.281      -23.124      -12.113       19.081       17.691       12.557      364.093      312.960      157.674        1.046        0.042      141.187        8.356        0.004      336.719        8.209      867.055
10/05/2014  06:14:00     -127.126      -29.120      -11.742       21.383       18.688       15.399      457.235      349.241      237.116        0.910        0.052      130.419       12.100        0.009      336.711        8.198      867.059
10/05/2014  06:15:00     -102.824      -34.872       -7.471       20.860       17.976       16.849      435.135      323.147      283.887        0.644        0.052      108.577       11.213        0.011      336.772        8.300      867.065
10/05/2014  06:16:00     -115.465      -42.731       -7.869       17.330       13.292       11.863      300.337      176.681      140.726        0.792        0.031      123.118        8.924        0.005      336.900        8.512      867.058
10/05/2014  06:17:00     -118.709      -51.333       -5.462       11.577       10.313        9.457      134.034      106.349       89.436        0.854        0.016      129.332        4.126        0.001      336.922        8.548      867.058
10/05/2014  06:18:00      -93.985      -29.172       -9.409       21.034       19.901       12.226      442.415      396.037      149.484        0.538        0.049       98.408        9.241        0.009      336.950        8.593      867.050
10/05/2014  06:19:00      -98.597      -17.386      -11.590       14.917       14.236       12.168      222.509      202.676      148.054        0.537        0.029      100.118        7.540        0.006      336.848        8.425      867.054
10/05/2014  06:20:00      -96.172      -19.335      -14.314       13.764       14.766       11.073      189.434      218.034      122.608        0.518        0.027       98.096        5.951        0.004      336.847        8.425      867.051
10/05/2014  06:21:00     -108.791      -25.812      -11.800       26.594       17.049       19.162      707.234      290.668      367.196        0.700        0.068      111.811       17.946        0.026      336.878        8.475      867.053
10/05/2014  06:22:00     -121.958      -25.328      -17.419       10.166       15.993        9.698      103.346      255.769       94.056        0.814        0.023      124.560        4.286        0.001      337.014        8.702      867.056
10/05/2014  06:23:00      -85.527      -47.428      -19.608       28.847       22.254       13.957      832.130      495.245      194.799        0.574        0.076       97.797       14.895        0.023      336.844        8.418      867.068
10/05/2014  06:24:00      -51.589      -41.369       -9.731       30.109       21.482       15.653      906.560      461.472      245.001        0.304        0.081       66.127       11.070        0.028      336.771        8.296      867.077
10/05/2014  06:25:00      -94.182      -57.940      -12.893       22.206       22.023       14.621      493.108      485.031      213.785        0.679        0.060      110.577       12.786        0.013      336.781        8.313      867.082
10/05/2014  06:26:00      -93.873      -40.729      -15.889       16.214       14.201       14.314      262.899      201.665      204.886        0.570        0.033      102.328        9.270        0.008      336.797        8.340      867.098
10/05/2014  06:27:00      -98.005      -50.677      -14.469       24.257       17.629       13.825      588.421      310.798      191.130        0.674        0.055      110.332        8.893        0.006      336.837        8.407      867.112
10/05/2014  06:28:00     -119.815      -44.424      -18.146       13.365       14.243       11.463      178.616      202.855      131.407        0.859        0.026      127.785        6.744        0.003      336.782        8.316      867.124
10/05/2014  06:29:00     -115.255      -33.949      -13.684        9.637       14.027        8.933       92.864      196.746       79.796        0.750        0.018      120.151        3.240        0.001      336.796        8.340      867.135
10/05/2014  06:30:00     -123.049      -35.634      -10.667       10.569       13.155        9.389      111.701      173.057       88.158        0.845        0.019      128.105        4.669        0.001      336.847        8.424      867.136
10/05/2014  06:31:00     -101.606      -44.897       -8.546       13.317       13.598       10.866      177.337      184.895      118.061        0.645        0.024      111.083        6.866        0.004      336.780        8.312      867.142
10/05/2014  06:32:00      -81.528      -41.206      -13.344       12.187       12.772       10.278      148.519      163.120      105.647        0.447        0.021       91.350        4.924        0.003      336.768        8.292      867.151
10/05/2014  06:33:00      -65.494      -27.789        2.474       20.291       14.315       10.724      411.722      204.920      115.011        0.290        0.037       71.146        8.692        0.015      336.709        8.193      867.169
10/05/2014  06:34:00      -64.201      -35.339       -6.613       29.250       15.410       11.366      855.585      237.465      129.177        0.332        0.061       73.284        9.393        0.016      336.800        8.346      867.190
10/05/2014  06:35:00      -86.470      -39.953      -10.528       17.968       11.435        7.207      322.832      130.767       51.946        0.484        0.025       95.253        2.840        0.001      336.826        8.389      867.208
10/05/2014  06:36:00     -105.387      -58.368       -9.574       17.729       13.593       11.630      314.318      184.776      135.262        0.762        0.032      120.471        6.583        0.003      336.733        8.233      867.214
10/05/2014  06:37:00     -110.082      -56.100       -0.310       18.041       19.401       14.339      325.481      376.410      205.608        0.809        0.045      123.553        9.618        0.006      336.682        8.149      867.220
10/05/2014  06:38:00     -104.016      -56.069       -2.973       21.157       17.256       10.735      447.632      297.768      115.248        0.742        0.043      118.166        8.091        0.005      336.669        8.128      867.222
10/05/2014  06:39:00      -90.939      -65.648       -4.625       29.999       21.747       21.683      899.938      472.944      470.131        0.722        0.092      112.159       18.863        0.028      336.743        8.251      867.222
10/05/2014  06:40:00     -104.487      -51.780       -2.979       34.577       23.324       21.240     1195.540      543.991      451.157        0.790        0.110      116.614       19.767        0.029      336.805        8.354      867.223
10/05/2014  06:41:00      -91.518      -66.074       -0.557       28.217       21.919       20.809      796.220      480.432      433.020        0.723        0.085      112.878       16.303        0.021      336.963        8.616      867.227
10/05/2014  06:42:00      -94.467      -46.727        0.088       30.114       26.788       21.533      906.840      717.623      463.665        0.660        0.104      105.392       19.660        0.035      336.958        8.609      867.233
10/05/2014  06:43:00      -80.403      -56.869        5.488       36.278       27.061       18.208     1316.117      732.287      331.528        0.605        0.119       98.483       18.339        0.035      336.884        8.485      867.235
10/05/2014  06:44:00      -71.118      -47.110        3.288       34.751       21.890       14.961     1207.647      479.181      223.829        0.460        0.096       85.306       17.428        0.042      336.762        8.281      867.238
10/05/2014  06:45:00     -104.574      -60.567       -3.901       33.237       20.813       15.985     1104.699      433.163      255.518        0.821        0.090      120.848       15.132        0.016      336.821        8.379      867.247
10/05/2014  06:46:00     -119.376      -59.616       -6.054       19.004       19.158       15.206      361.142      367.043      231.211        0.940        0.048      133.434        9.787        0.005      336.888        8.492      867.258
10/05/2014  06:47:00     -116.651      -40.007        0.165       33.675       24.010       22.900     1133.977      576.487      524.387        0.872        0.112      123.321       22.387        0.033      336.805        8.353      867.269
10/05/2014  06:48:00     -110.643      -32.534       -4.399       23.246       22.084       15.351      540.360      487.697      235.662        0.729        0.063      115.327       10.132        0.008      336.752        8.265      867.273
10/05/2014  06:49:00     -101.459      -27.284       -2.684       32.006       26.223       19.877     1024.366      687.651      395.112        0.658        0.105      105.063       18.990        0.033      336.653        8.100      867.280
10/05/2014  06:50:00     -111.021      -22.167       -8.373       35.184       26.390       21.021     1237.912      696.458      441.872        0.763        0.119      113.213       19.693        0.030      336.618        8.042      867.285
10/05/2014  06:51:00     -123.337      -32.926      -14.141       31.322       17.094       15.663      981.080      292.197      245.336        0.901        0.076      127.656       16.652        0.017      336.578        7.974      867.299
10/05/2014  06:52:00     -106.980      -29.259       -7.196       25.930       22.753       15.459      672.344      517.707      238.989        0.689        0.071      110.909        8.670        0.006      336.661        8.112      867.304
10/05/2014  06:53:00     -110.962      -13.757      -13.354       28.733       17.444       14.902      825.572      304.302      222.067        0.702        0.068      111.812       15.224        0.019      336.675        8.137      867.305
10/05/2014  06:54:00      -95.754      -25.523       -8.713       25.561       23.161       19.247      653.341      536.411      370.451        0.573        0.078       99.098       15.476        0.024      336.673        8.132      867.301
10/05/2014  06:55:00      -99.258      -17.491       -9.537       19.318       17.253       13.527      373.179      297.656      182.993        0.555        0.043      100.787       10.274        0.010      336.612        8.031      867.305
10/05/2014  06:56:00      -65.918      -43.785       -6.656       23.238       20.769       14.422      540.007      431.338      208.005        0.374        0.059       79.135       11.317        0.020      336.671        8.131      867.316
10/05/2014  06:57:00     -108.856      -32.603       -5.980       24.185       23.106       13.306      584.929      533.893      177.059        0.712        0.065      113.634       12.114        0.011      336.729        8.228      867.322
10/05/2014  06:58:00      -79.733      -35.163       -9.041       17.415       18.310       11.344      303.266      335.269      128.678        0.422        0.038       87.143        7.258        0.007      336.765        8.288      867.331
10/05/2014  06:59:00      -61.580      -44.968       -8.643       20.507       16.478       12.979      420.528      271.531      168.456        0.337        0.043       76.251        8.173        0.011      336.678        8.143      867.329
10/05/2014  07:00:00      -83.478      -23.298      -10.834       23.456       23.492       15.242      550.199      551.881      232.329        0.448        0.067       86.668        9.996        0.013      336.741        8.247      867.328
10/05/2014  07:01:00      -62.620      -30.509       -4.331       28.829       23.421       17.748      831.092      548.553      315.003        0.328        0.085       69.657       16.868        0.059      336.828        8.391      867.327
10/05/2014  07:02:00      -89.779      -40.271       -6.427       24.731       25.711       14.954      611.611      661.061      223.614        0.561        0.075       98.398       11.422        0.013      336.752        8.265      867.313
10/05/2014  07:03:00     -103.511      -22.162      -11.614       30.153       27.714       18.700      909.233      768.084      349.695        0.668        0.101      105.857       15.684        0.022      336.752        8.265      867.302
10/05/2014  07:04:00     -114.877      -46.013       -7.849       28.164       28.310       19.964      793.229      801.479      398.557        0.868        0.100      123.749       16.685        0.018      336.797        8.340      867.290
10/05/2014  07:05:00      -94.044      -21.869      -10.143       30.130       30.509       14.493      907.832      930.805      210.059        0.574        0.102       96.553       14.484        0.023      336.804        8.352      867.291
10/05/2014  07:06:00     -108.441        0.078       -4.768       34.975       20.159       22.079     1223.217      406.395      487.469        0.695        0.106      108.441       22.375        0.043      336.770        8.296      867.299
10/05/2014  07:07:00      -86.644        3.800       -3.586       43.314       33.816       22.046     1876.062     1143.539      486.015        0.552        0.175       86.728       23.184        0.071      336.812        8.366      867.317
10/05/2014  07:08:00      -88.114      -30.558        0.612       35.721       41.995       17.863     1276.012     1763.544      319.104        0.603        0.168       93.263       17.046        0.033      336.849        8.427      867.334
10/05/2014  07:09:00     -108.583      -57.415        0.077       25.003       26.902       16.830      625.166      723.701      283.257        0.836        0.082      122.828        9.639        0.006      336.842        8.415      867.349
10/05/2014  07:10:00     -108.243      -49.757       -2.530       29.173       26.323       17.294      851.092      692.903      299.086        0.802        0.092      119.132       17.250        0.021      336.785        8.320      867.359
10/05/2014  07:11:00     -108.914      -52.996      -10.793       21.065       23.150       16.614      443.724      535.937      276.036        0.802        0.063      121.123       12.810        0.011      336.773        8.301      867.367
10/05/2014  07:12:00     -111.833      -47.756      -10.345       15.032       17.325       14.907      225.949      300.152      222.216        0.782        0.037      121.603        8.993        0.005      336.828        8.392      867.376
10/05/2014  07:13:00      -82.635      -41.796        0.247       23.953       18.918       13.864      573.752      357.906      192.198        0.485        0.056       92.604        9.422        0.010      336.840        8.412      867.392
10/05/2014  07:14:00      -66.476      -46.274        3.359       41.327       32.840       20.945     1707.959     1078.459      438.700        0.490        0.161       80.996       19.868        0.060      336.774        8.302      867.407
10/05/2014  07:15:00     -122.272      -76.258       -1.140       39.302       25.592       25.335     1544.621      654.950      641.861        1.180        0.142      144.103       21.130        0.022      336.796        8.338      867.418
10/05/2014  07:16:00     -100.365      -65.654       -7.899       48.668       31.971       21.693     2368.610     1022.116      470.589        0.915        0.193      119.931       24.358        0.041      336.895        8.502      867.416
10/05/2014  07:17:00      -96.644      -66.417        0.595       50.085       49.813       27.720     2508.542     2481.384      768.391        0.975        0.288      117.266       26.481        0.051      336.812        8.364      867.423
10/05/2014  07:18:00      -94.929      -62.167        6.283       54.789       34.758       22.516     3001.791     1208.132      506.968        0.882        0.236      113.474       23.954        0.045      336.815        8.370      867.430
10/05/2014  07:19:00      -92.276      -72.072       -1.944       44.904       28.242       22.804     2016.402      797.630      520.007        0.852        0.167      117.087       21.950        0.035      336.734        8.236      867.442
10/05/2014  07:20:00      -96.759      -57.079       -3.804       33.126       30.973       19.636     1097.322      959.305      385.577        0.754        0.122      112.340       16.494        0.022      336.753        8.268      867.440
10/05/2014  07:21:00      -82.487      -60.978       -2.683       41.907       30.192       19.903     1756.182      911.538      396.113        0.680        0.153      102.579       17.056        0.028      336.750        8.263      867.432
10/05/2014  07:22:00      -76.405      -53.232        5.138       48.375       31.036       26.608     2340.161      963.260      707.978        0.635        0.201       93.120       27.167        0.085      336.762        8.282      867.432
10/05/2014  07:23:00      -55.420      -56.690        7.401       32.396       35.416       26.735     1049.481     1254.302      714.772        0.468        0.151       79.279       18.923        0.057      336.784        8.318      867.439
10/05/2014  07:24:00      -82.529      -68.337       -6.084       48.514       35.989       23.442     2353.627     1295.231      549.531        0.786        0.210      107.150       21.157        0.039      336.849        8.426      867.459
10/05/2014  07:25:00      -64.841      -38.709       -1.219       35.892       22.039       17.747     1288.247      485.713      314.968        0.390        0.104       75.516       19.781        0.069      336.883        8.482      867.477
10/05/2014  07:26:00      -76.496      -50.742       -0.948       38.918       26.086       20.317     1514.583      680.484      412.787        0.552        0.130       91.796       22.516        0.060      336.874        8.469      867.482
10/05/2014  07:27:00      -92.900      -49.732       -1.679       32.695       26.431       16.657     1068.958      698.605      277.440        0.658        0.102      105.374       15.912        0.023      336.918        8.543      867.483
10/05/2014  07:28:00      -42.446      -25.719        9.402       34.753       23.625       18.378     1207.741      558.143      337.764        0.233        0.105       49.630       19.655        0.157      336.986        8.654      867.491
10/05/2014  07:29:00      -60.043      -57.711        1.997       32.272       28.332       21.826     1041.494      802.720      476.396        0.463        0.116       83.281       17.198        0.043      336.898        8.507      867.500
10/05/2014  07:30:00      -64.246      -48.016       -1.593       26.784       21.409       14.982      717.357      458.325      224.447        0.392        0.070       80.207       14.399        0.032      336.940        8.578      867.510
10/05/2014  07:31:00      -55.028      -33.827        1.682       33.035       18.902       17.455     1091.304      357.298      304.693        0.296        0.088       64.594       14.709        0.052      336.912        8.532      867.531
10/05/2014  07:32:00      -45.717      -30.631        5.431       30.482       21.421       17.374      929.151      458.855      301.851        0.237        0.084       55.030       14.754        0.072      336.920        8.545      867.540
10/05/2014  07:33:00      -90.536      -40.525       -0.090       39.362       14.263       10.638     1549.368      203.440      113.171        0.585        0.093       99.193       15.649        0.025      336.925        8.551      867.543
10/05/2014  07:34:00      -95.255      -51.539       -2.746       15.414       17.255       11.871      237.593      297.723      140.917        0.621        0.034      108.304        8.103        0.006      336.981        8.646      867.550
10/05/2014  07:35:00      -26.332      -13.774       12.079       29.825       21.085       16.819      889.559      444.585      282.868        0.132        0.081       29.717       17.508        0.347      337.070        8.796      867.539
10/05/2014  07:36:00      -47.627      -29.741        9.512       35.375       22.148       19.432     1251.411      490.515      377.587        0.268        0.106       56.151       17.316        0.095      337.136        8.906      867.534
10/05/2014  07:37:00      -70.132      -46.159        3.882       23.426       23.098       17.166      548.791      533.496      294.678        0.422        0.069       83.959       16.659        0.039      337.192        9.001      867.519
10/05/2014  07:38:00      -84.640      -47.077       -1.112       24.338       16.737       14.774      592.362      280.113      218.267        0.524        0.055       96.851       12.363        0.016      337.231        9.065      867.521
10/05/2014  07:39:00      -93.884      -42.394       -2.622       22.403       14.123       14.958      501.880      199.453      223.734        0.577        0.046      103.012       12.423        0.015      337.336        9.242      867.526
10/05/2014  07:40:00      -77.062      -21.138        1.361       18.417       15.344       10.433      339.187      235.442      108.855        0.354        0.034       79.909        8.668        0.012      337.344        9.254      867.534
10/05/2014  07:41:00      -66.167      -20.094       -2.307       13.900        7.426        4.398      193.217       55.146       19.341        0.253        0.013       69.151        5.275        0.006      337.402        9.350      867.550
10/05/2014  07:42:00      -22.429      -15.080       -3.642       10.294        7.574        6.005      105.971       57.364       36.056        0.047        0.010       27.028        4.674        0.030      337.521        9.549      867.559
10/05/2014  07:43:00      -11.006      -10.281        0.122        4.707        4.327        4.254       22.154       18.721       18.098        0.014        0.003       15.061        3.513        0.054      337.551        9.600      867.565
10/05/2014  07:44:00      -13.817       -5.033       -5.381        5.311        3.779        3.012       28.210       14.279        9.073        0.015        0.003       14.705        1.378        0.009      337.833       10.075      867.567
10/05/2014  07:45:00      -14.659       -7.899       -0.813        4.378        5.080        4.317       19.169       25.809       18.640        0.017        0.003       16.652        2.562        0.024      337.877       10.148      867.574
10/05/2014  07:46:00       -3.853       -2.534        4.390        5.676        3.689        7.976       32.222       13.612       63.610        0.007        0.005        4.611        5.375        1.359      338.257       10.786      867.576
10/05/2014  07:47:00        6.913       24.167        9.102       12.713       24.197       11.635      161.615      585.501      135.379        0.080        0.044       25.136       14.028        0.311      338.274       10.815      867.595
10/05/2014  07:48:00       -4.031       41.072       -1.768       14.556       15.704       14.200      211.868      246.618      201.630        0.118        0.033       41.270        9.497        0.053      338.075       10.480      867.610
10/05/2014  07:49:00       -4.209       53.709        1.119       15.073       25.065       15.887      227.183      628.243      252.401        0.201        0.055       53.873       14.796        0.075      338.164       10.629      867.615
10/05/2014  07:50:00      -23.056        9.777        9.235       18.248       13.092       11.877      332.986      171.392      141.066        0.068        0.032       25.043        7.008        0.078      338.126       10.566      867.624
10/05/2014  07:51:00      -31.850        5.128       -4.792        8.852        7.737        7.238       78.366       59.867       52.385        0.063        0.010       32.260        1.334        0.002      337.793       10.006      867.630
10/05/2014  07:52:00      -56.539        6.264       -4.922        7.747       13.122        5.788       60.018      172.183       33.500        0.176        0.013       56.885        6.323        0.012      337.864       10.126      867.631
10/05/2014  07:53:00      -43.942      -19.694       -4.022        7.856        5.582        5.757       61.716       31.154       33.139        0.123        0.006       48.153        4.775        0.010      337.918       10.218      867.635
10/05/2014  07:54:00      -25.737      -26.038       -0.414       10.803        8.792        7.471      116.709       77.305       55.823        0.080        0.012       36.611        4.705        0.017      337.825       10.061      867.629
10/05/2014  07:55:00       -9.841       -6.990        2.258       12.446        6.253        7.867      154.900       39.100       61.897        0.020        0.013       12.071        7.541        0.390      338.156       10.616      867.617
10/05/2014  07:56:00      -14.347      -10.555        2.233       15.189       13.090        7.567      230.701      171.353       57.257        0.039        0.023       17.811        9.388        0.278      338.109       10.537      867.607
10/05/2014  07:57:00      -56.700      -41.652        0.202       32.922       24.526       15.508     1083.874      601.539      240.490        0.344        0.096       70.355       13.798        0.038      337.823       10.057      867.596
10/05/2014  07:58:00      -64.848      -66.184        1.637       25.928       25.241       18.525      672.235      637.125      343.168        0.512        0.083       92.658       16.817        0.033      337.843       10.092      867.594
10/05/2014  07:59:00      -74.732      -75.730       -1.215       26.322       23.844       17.403      692.856      568.554      302.873        0.644        0.078      106.395       14.757        0.019      337.885       10.162      867.595
10/05/2014  08:00:00      -70.028      -67.412        0.372       35.112       31.883       21.035     1232.838     1016.535      442.485        0.607        0.135       97.202       20.263        0.043      337.897       10.180      867.598
10/05/2014  08:01:00      -86.353      -93.411       -4.165       34.025       29.338       22.062     1157.707      860.701      486.749        0.935        0.125      127.210       21.107        0.028      337.934       10.244      867.610
10/05/2014  08:02:00      -68.018      -72.786       -1.367       21.818       33.343       17.396      476.011     1111.789      302.628        0.591        0.095       99.620       11.430        0.013      337.987       10.331      867.625
10/05/2014  08:03:00      -33.952      -58.929        7.237       22.536       23.486       14.236      507.869      551.580      202.669        0.297        0.063       68.011        9.318        0.019      338.018       10.386      867.645
10/05/2014  08:04:00      -29.979      -65.211       -1.647       17.290       14.471       11.424      298.948      209.419      130.515        0.290        0.032       71.772        8.429        0.014      338.080       10.487      867.663
10/05/2014  08:05:00      -26.333      -48.610        3.039       10.855        9.576        7.568      117.835       91.705       57.276        0.167        0.013       55.284        4.683        0.007      338.118       10.552      867.680
10/05/2014  08:06:00      -25.062      -25.631       14.451       17.925       15.163       13.074      321.298      229.916      170.922        0.111        0.036       35.847       12.402        0.120      338.374       10.981      867.692
10/05/2014  08:07:00        9.307      -27.966        8.213       19.339       20.349       19.999      373.991      414.064      399.942        0.106        0.059       29.474       13.712        0.216      338.362       10.962      867.688
10/05/2014  08:08:00        1.070       -3.842       12.529       12.126       13.581       12.086      147.044      184.442      146.081        0.033        0.024        3.988        7.310        3.359      338.616       11.389      867.685
10/05/2014  08:09:00      -13.290       -9.359        4.818       11.825        9.978       11.443      139.821       99.569      130.947        0.033        0.019       16.255        9.124        0.315      338.611       11.380      867.673
10/05/2014  08:10:00      -22.918       -1.378        3.502        8.883        8.947       10.804       78.900       80.057      116.729        0.041        0.014       22.959        6.573        0.082      338.458       11.125      867.669
10/05/2014  08:11:00      -17.594       -6.588       -9.478       10.471        9.897        7.236      109.652       97.958       52.354        0.035        0.013       18.787        6.386        0.116      338.399       11.024      867.674
10/05/2014  08:12:00      -23.693       -7.018       -3.379       10.628        7.861        7.708      112.953       61.800       59.406        0.043        0.012       24.711        6.106        0.061      338.432       11.080      867.672
10/05/2014  08:13:00      -31.693      -12.400       -8.018        9.016        7.633        6.503       81.291       58.259       42.284        0.070        0.009       34.033        3.356        0.010      338.416       11.053      867.678
10/05/2014  08:14:00      -13.897      -18.530       -2.067       24.741       23.251       11.938      612.117      540.608      142.508        0.092        0.065       23.162       15.382        0.441      338.397       11.021      867.672
10/05/2014  08:15:00      -19.843      -16.947       -1.957       15.104       12.713        8.805      228.131      161.610       77.532        0.058        0.023       26.095        6.056        0.054      338.528       11.242      867.664
10/05/2014  08:16:00       -4.852       -3.205       18.246       15.796       24.241       16.989      249.515      587.622      288.617        0.075        0.056        5.815       15.636        7.229      339.017       12.064      867.664
10/05/2014  08:17:00      -27.536      -16.248       -2.032       16.851       11.308       12.617      283.966      127.881      159.199        0.080        0.029       31.972        6.291        0.039      338.561       11.296      867.662
10/05/2014  08:18:00      -40.773       -4.624       -7.480       26.966       19.253       15.357      727.162      370.668      235.842        0.154        0.067       41.034       12.680        0.095      338.488       11.173      867.655
10/05/2014  08:19:00      -36.042       -1.517       -6.022       27.188       25.268       11.911      739.177      638.492      141.879        0.143        0.076       36.074       10.072        0.078      338.444       11.100      867.650
10/05/2014  08:20:00      -40.825      -28.806       -0.150       26.143       37.374       11.320      683.442     1396.794      128.138        0.235        0.110       49.965       11.132        0.050      338.343       10.930      867.647
10/05/2014  08:21:00      -50.103      -76.223       -0.577       41.722       32.905       22.559     1740.750     1082.714      508.895        0.583        0.167       91.216       25.478        0.078      338.368       10.973      867.651
10/05/2014  08:22:00      -40.769      -77.615       -4.144       32.423       28.469       21.806     1051.276      810.509      475.502        0.502        0.117       87.671       18.059        0.042      338.307       10.869      867.648
10/05/2014  08:23:00      -46.430      -62.393        4.246       27.484       33.444       15.745      755.369     1118.513      247.890        0.409        0.106       77.772       14.720        0.036      338.350       10.942      867.646
10/05/2014  08:24:00      -45.536      -49.461       -4.282       25.161       29.379       19.058      633.074      863.113      363.217        0.320        0.093       67.230       15.040        0.050      338.387       11.005      867.654
10/05/2014  08:25:00      -27.983      -25.939       -9.326       17.967       26.980       15.113      322.811      727.918      228.390        0.141        0.064       38.156        9.778        0.066      338.531       11.247      867.659
10/05/2014  08:26:00      -31.683      -43.988       -4.667       18.520       26.471       20.081      342.982      700.730      403.261        0.220        0.072       54.210        8.387        0.024      338.528       11.240      867.679
10/05/2014  08:27:00      -20.398      -56.573        1.628       32.415       18.598       15.236     1050.748      345.903      232.137        0.262        0.081       60.138       10.968        0.033      338.510       11.210      867.697
10/05/2014  08:28:00      -41.647       -2.376       -9.377       14.826       14.644       10.609      219.812      214.442      112.544        0.119        0.027       41.715        4.895        0.014      338.564       11.301      867.721
10/05/2014  08:29:00      -54.246        0.455        3.140       12.525       13.422        9.038      156.868      180.153       81.690        0.169        0.021       54.248        7.800        0.021      338.567       11.305      867.728
10/05/2014  08:30:00      -41.435       -8.377        0.052       13.570       11.462        9.424      184.156      131.380       88.811        0.110        0.020       42.274        5.223        0.015      338.623       11.401      867.723
10/05/2014  08:31:00      -25.538      -19.659       -0.621       16.472       19.319       14.442      271.330      373.230      208.583        0.095        0.043       32.228       14.735        0.209      338.797       11.694      867.713
10/05/2014  08:32:00      -35.191       14.111       18.434       17.877       23.446       24.373      319.585      549.718      594.019        0.162        0.073       37.915       19.376        0.261      339.130       12.253      867.705
10/05/2014  08:33:00      -37.571        8.889        0.146       23.730       23.212       24.495      563.108      538.798      600.003        0.160        0.085       38.609       18.374        0.226      338.951       11.952      867.707
10/05/2014  08:34:00      -30.157        6.733        5.789       14.746       16.543       21.870      217.456      273.654      478.295        0.098        0.048       30.899       15.995        0.268      339.023       12.073      867.714
10/05/2014  08:35:00      -33.911      -12.080      -10.600       21.568       15.374        9.499      465.195      236.347       90.228        0.110        0.040       35.999        5.868        0.027      338.807       11.710      867.723
10/05/2014  08:36:00      -24.227       -0.706        7.949       17.116       16.568       13.793      292.955      274.509      190.253        0.070        0.038       24.237       10.221        0.178      339.019       12.066      867.729
10/05/2014  08:37:00      -33.866      -10.063       -5.774       20.878       16.892       13.330      435.872      285.349      177.688        0.109        0.045       35.329        6.295        0.032      338.995       12.026      867.734
10/05/2014  08:38:00      -27.420      -15.601       10.179       33.283       29.712       26.154     1107.748      882.804      684.027        0.189        0.134       31.548       25.150        0.636      339.273       12.493      867.734
10/05/2014  08:39:00      -35.037      -18.631       11.281       32.053       24.600       22.003     1027.401      605.156      484.124        0.191        0.106       39.682       23.149        0.340      339.015       12.059      867.730
10/05/2014  08:40:00      -28.265      -46.735        2.305       13.333       14.614       13.453      177.757      213.561      180.993        0.178        0.029       54.618        8.864        0.026      338.721       11.564      867.739
10/05/2014  08:41:00      -47.763      -29.941       -5.702       14.460       12.186        9.099      209.087      148.496       82.794        0.183        0.022       56.372        3.289        0.003      338.795       11.690      867.740
10/05/2014  08:42:00      -48.855      -51.898        1.399       19.484       18.030       14.654      379.609      325.090      214.750        0.300        0.046       71.275       10.999        0.024      338.774       11.655      867.733
10/05/2014  08:43:00      -38.105      -28.955       -2.065       15.287       16.239        8.403      233.700      263.709       70.615        0.143        0.028       47.858        4.391        0.008      338.859       11.796      867.728
10/05/2014  08:44:00      -27.451      -13.677       -6.339       15.894       14.469       10.385      252.634      209.345      107.844        0.078        0.028       30.669        6.716        0.048      339.053       12.123      867.722
10/05/2014  08:45:00      -23.027      -15.173      -14.980       11.684       14.660       13.525      136.523      214.906      182.913        0.076        0.027       27.577        7.832        0.081      339.040       12.101      867.719
10/05/2014  08:46:00      -44.346      -14.044       -2.457       18.398       18.219       17.304      338.501      331.934      299.413        0.157        0.048       46.517        8.353        0.032      338.970       11.983      867.718
10/05/2014  08:47:00       -6.360      -29.255        2.431       21.592       14.508       17.555      466.227      210.471      308.164        0.094        0.049       29.939        9.044        0.091      339.170       12.319      867.710
10/05/2014  08:48:00      -21.253       -5.170        9.019       16.348       13.238       10.347      267.257      175.232      107.060        0.055        0.027       21.873        8.863        0.164      339.509       12.890      867.690
10/05/2014  08:49:00      -37.238      -10.539       -4.104        5.693       14.888        9.594       32.414      221.641       92.037        0.093        0.017       38.701        7.969        0.042      339.077       12.164      867.668
10/05/2014  08:50:00      -36.630      -51.984        0.169       15.721       33.020        7.905      247.147     1090.314       62.488        0.272        0.070       63.593        6.919        0.012      339.059       12.133      867.656
10/05/2014  08:51:00      -53.253      -69.100        4.319       25.503       26.821       16.981      650.383      719.355      288.343        0.464        0.083       87.239       15.578        0.032      339.083       12.175      867.647
10/05/2014  08:52:00      -68.615      -61.902       -3.259       16.353       24.127       13.228      267.422      582.125      174.986        0.479        0.051       92.411       11.953        0.017      339.067       12.148      867.648
10/05/2014  08:53:00      -50.047      -36.878        3.170       18.337       21.489       15.099      336.246      461.776      227.978        0.245        0.051       62.167        9.620        0.024      339.144       12.276      867.652
10/05/2014  08:54:00      -34.763      -36.421        0.607       11.576       16.217       10.699      134.004      262.996      114.459        0.152        0.026       50.348        2.938        0.003      339.253       12.461      867.657
10/05/2014  08:55:00      -38.349       -5.086        8.648       33.457       15.704       14.751     1119.339      246.606      217.584        0.158        0.079       38.685       16.426        0.180      339.560       12.976      867.657
10/05/2014  08:56:00      -18.027       -4.819        4.235       26.362       20.648       14.840      694.965      426.359      220.219        0.085        0.067       18.660       11.100        0.354      339.583       13.015      867.660
10/05/2014  08:57:00      -26.605      -37.485       -2.345       18.448       10.332       13.237      340.322      106.748      175.228        0.137        0.031       45.967        9.199        0.040      339.357       12.635      867.668
10/05/2014  08:58:00      -36.207       -7.029       14.317       11.904       16.661       10.313      141.710      277.580      106.353        0.105        0.026       36.883        9.310        0.064      339.546       12.954      867.676
10/05/2014  08:59:00      -21.260      -11.919        8.697       21.286       13.315       11.672      453.091      177.292      136.243        0.072        0.038       24.373       11.477        0.222      339.733       13.268      867.669
10/05/2014  09:00:00      -39.021      -23.623       -5.400       12.492       14.365        7.791      156.054      206.361       60.703        0.127        0.021       45.614        6.870        0.023      339.428       12.755      867.657
10/05/2014  09:01:00      -52.670      -24.242       -5.112       10.464       13.413        7.510      109.491      179.906       56.393        0.187        0.017       57.981        5.284        0.008      339.421       12.744      867.641
10/05/2014  09:02:00      -49.059      -29.338       -0.909       21.312       15.649       12.652      454.190      244.896      160.061        0.206        0.043       57.162       13.159        0.053      339.521       12.912      867.623
10/05/2014  09:03:00      -38.295      -33.432        5.638       35.743       24.398       18.178     1277.543      595.268      330.449        0.241        0.110       50.835       19.478        0.147      339.661       13.146      867.607
10/05/2014  09:04:00      -43.280      -27.769       11.699       36.054       38.783       22.616     1299.890     1504.133      511.463        0.305        0.166       51.423       15.041        0.086      339.629       13.094      867.600
10/05/2014  09:05:00      -49.158      -38.420       -0.022       27.979       24.898       15.116      782.850      619.910      228.484        0.276        0.082       62.391       13.540        0.047      339.586       13.019      867.605
10/05/2014  09:06:00      -39.924      -50.097       -1.178       16.634       16.211       14.467      276.681      262.795      209.288        0.243        0.037       64.060       12.093        0.036      339.617       13.075      867.609
10/05/2014  09:07:00      -35.455      -25.549       -8.496       11.468        7.566        7.447      131.517       57.249       55.457        0.111        0.012       43.701        5.176        0.014      339.634       13.102      867.621
10/05/2014  09:08:00      -14.736      -10.657        1.925        9.394       10.179        5.204       88.247      103.611       27.086        0.028        0.011       18.186        2.638        0.021      339.843       13.454      867.634
10/05/2014  09:09:00      -23.500       -9.435        1.792       11.975       11.947       11.840      143.406      142.736      140.188        0.054        0.021       25.323       10.074        0.158      339.916       13.578      867.649
10/05/2014  09:10:00      -16.415       16.028       39.280       12.268       20.830       19.797      150.503      433.892      391.912        0.152        0.049       22.942       14.256        0.386      340.806       15.081      867.657
10/05/2014  09:11:00      -19.359      -11.207       19.317       14.799       16.283       18.224      219.017      265.144      332.122        0.084        0.041       22.369       13.567        0.368      340.391       14.379      867.658
10/05/2014  09:12:00      -14.323       13.308       43.111       14.109       23.220       17.866      199.065      539.167      319.178        0.165        0.053       19.552       17.119        0.767      340.805       15.080      867.663
10/05/2014  09:13:00        4.937       13.021       23.894       19.961       20.540       14.509      398.448      421.903      210.516        0.090        0.052       13.926       12.969        0.867      340.703       14.908      867.664
10/05/2014  09:14:00       -4.836       -6.659       24.318       19.320       14.532       15.082      373.251      211.187      227.455        0.074        0.041        8.230       12.923        2.466      340.585       14.709      867.655
10/05/2014  09:15:00       12.833       16.491       37.076       28.122       18.973       26.326      790.872      359.992      693.078        0.183        0.092       20.896       18.633        0.795      340.614       14.758      867.650
10/05/2014  09:16:00       44.242       30.797       20.179       33.292       22.619       37.971     1108.379      511.624     1441.811        0.319        0.153       53.905       23.340        0.187      340.042       13.789      867.651
10/05/2014  09:17:00       81.728       53.224       14.548       27.184       30.291       28.265      738.949      917.544      798.918        0.609        0.123       97.531       16.552        0.029      340.096       13.880      867.656
10/05/2014  09:18:00       64.595        8.305        7.270       28.635       22.088       24.092      819.982      487.882      580.432        0.309        0.094       65.126       17.190        0.070      340.146       13.964      867.661
10/05/2014  09:19:00       41.838       22.492       10.921       24.980       23.754       20.364      623.988      564.276      414.689        0.199        0.080       47.501       13.432        0.080      340.238       14.121      867.666
10/05/2014  09:20:00       51.942       34.100       30.951       47.340       38.812       26.164     2241.123     1506.342      684.541        0.462        0.222       62.135       16.636        0.072      340.627       14.779      867.670
10/05/2014  09:21:00       91.761       60.247       29.814       40.816       38.937       29.631     1665.975     1516.111      877.993        0.850        0.203      109.772       22.082        0.040      340.257       14.153      867.665
10/05/2014  09:22:00       64.749       72.617       40.434       37.730       33.235       33.022     1423.569     1104.562     1090.444        0.736        0.181       97.291       27.023        0.077      340.348       14.308      867.656
10/05/2014  09:23:00       28.149       77.431       77.829       69.391       35.926       36.516     4815.053     1290.711     1333.439        1.014        0.372       82.389       30.339        0.136      340.489       14.545      867.657
10/05/2014  09:24:00       31.528       71.333       60.260       36.497       34.502       36.448     1332.056     1190.361     1328.466        0.678        0.193       77.990       28.289        0.132      340.255       14.149      867.657
10/05/2014  09:25:00       95.716       65.073       39.874       54.913       33.290       40.231     3015.484     1108.199     1618.503        1.036        0.287      115.741       29.545        0.065      340.215       14.080      867.656
10/05/2014  09:26:00       88.054       63.919       27.498       49.204       36.572       32.542     2421.041     1337.535     1059.011        0.871        0.241      108.808       26.769        0.061      340.334       14.283      867.657
10/05/2014  09:27:00       85.531       47.681       10.169       26.141       28.128       24.282      683.345      791.181      589.625        0.588        0.103       97.924       13.326        0.019      340.181       14.023      867.664
10/05/2014  09:28:00       79.725       33.251        8.056       36.554       26.595       31.554     1336.174      707.287      995.650        0.528        0.152       86.381       19.490        0.051      340.352       14.312      867.672
10/05/2014  09:29:00       52.529       65.791        8.917       39.385       28.392       30.243     1551.165      806.118      914.645        0.522        0.164       84.189       19.766        0.055      340.581       14.701      867.676
10/05/2014  09:30:00       91.517       55.943        0.137       42.903       35.619       29.467     1840.625     1268.680      868.321        0.774        0.199      107.261       15.657        0.021      340.543       14.637      867.697
10/05/2014  09:31:00       66.943       72.971        3.028       50.907       25.763       26.317     2591.553      663.758      692.609        0.688        0.197       99.026       17.523        0.031      340.626       14.776      867.695
10/05/2014  09:32:00       52.207       55.789       -3.960       28.562       24.456       20.883      815.786      598.111      436.089        0.385        0.092       76.406       10.559        0.019      340.488       14.544      867.694
10/05/2014  09:33:00        7.553       31.353       14.498       21.901       44.808       23.634      479.666     2007.780      558.555        0.215        0.152       32.250       15.248        0.224      340.812       15.092      867.691
10/05/2014  09:34:00       40.690       34.201       26.580       38.896       31.613       36.534     1512.886      999.371     1334.709        0.369        0.192       53.154       24.308        0.209      340.718       14.933      867.687
10/05/2014  09:35:00       85.455       53.581       -2.273       28.737       21.048       23.464      825.823      443.015      550.559        0.600        0.091      100.864       12.706        0.016      340.611       14.752      867.681
10/05/2014  09:36:00       37.853       66.269        1.848       41.680       46.460       34.733     1737.188     2158.514     1206.361        0.546        0.255       76.318       34.971        0.210      340.865       15.181      867.682
10/05/2014  09:37:00        5.930       93.176       -1.803       35.541       37.864       29.676     1263.197     1433.672      880.692        0.615        0.179       93.365       17.406        0.035      340.678       14.864      867.685
10/05/2014  09:38:00       21.947       24.899       21.166       39.537       23.831       29.956     1563.202      567.896      897.344        0.229        0.151       33.191       18.066        0.296      341.016       15.437      867.688
10/05/2014  09:39:00        1.851       -2.198       16.747       26.731       41.831       21.201      714.539     1749.795      449.472        0.160        0.146        2.873       22.250       59.961      341.114       15.602      867.688
10/05/2014  09:40:00       -4.222       -7.886       37.350       36.788       41.262       21.053     1353.392     1702.539      443.239        0.249        0.175        8.945       10.660        1.420      340.918       15.270      867.684
10/05/2014  09:41:00       20.764       15.694        8.638       17.325       19.850       19.369      300.163      394.007      375.176        0.091        0.053       26.028       12.219        0.220      341.095       15.571      867.683
10/05/2014  09:42:00        3.574        2.456       17.316       11.726       20.511       13.083      137.495      420.710      171.169        0.052        0.036        4.337        6.689        2.379      341.331       15.970      867.669
10/05/2014  09:43:00       15.510      -11.914       31.072       29.547       35.851       29.456      873.009     1285.312      867.682        0.219        0.151       19.558       20.769        1.128      341.103       15.584      867.651
10/05/2014  09:44:00       43.883       30.737       58.891       45.380       39.264       27.125     2059.328     1541.649      735.776        0.534        0.217       53.577       21.892        0.167      341.061       15.514      867.646
10/05/2014  09:45:00       12.259        8.619       37.036       57.724       54.876       37.681     3332.026     3011.324     1419.893        0.468        0.388       14.985       35.212        5.522      341.252       15.837      867.648
10/05/2014  09:46:00       65.147      -58.322       -0.025       45.281       57.395       44.071     2050.358     3294.180     1942.256        0.746        0.364       87.439       40.875        0.219      340.799       15.069      867.651
10/05/2014  09:47:00       34.537      -14.800       37.288       41.206       47.051       30.586     1697.927     2213.763      935.516        0.382        0.242       37.574       33.495        0.795      340.940       15.308      867.650
10/05/2014  09:48:00       17.835       24.344       28.297       54.469       29.287       22.243     2966.843      857.739      494.773        0.301        0.216       30.178       23.672        0.615      341.277       15.877      867.658
10/05/2014  09:49:00       80.308       83.152       50.456       50.830       40.683       44.881     2583.727     1655.084     2014.329        1.108        0.313      115.601       33.266        0.083      340.954       15.330      867.673
10/05/2014  09:50:00       52.492       49.485       44.110       43.402       33.077       53.338     1883.731     1094.072     2844.963        0.649        0.291       72.140       33.420        0.215      340.956       15.335      867.675
10/05/2014  09:51:00       36.796       61.269       74.240       47.191       38.142       24.060     2227.027     1454.777      578.861        0.744        0.213       71.469       16.761        0.055      341.031       15.461      867.682
10/05/2014  09:52:00        8.673       51.686       52.115       44.440       31.791       32.519     1974.898     1010.661     1057.511        0.475        0.202       52.409       19.287        0.135      341.107       15.591      867.683
10/05/2014  09:53:00      -10.588       -3.927       16.663       23.045       27.351       18.298      531.087      748.057      334.831        0.101        0.081       11.293        8.026        0.505      341.565       16.367      867.673
10/05/2014  09:54:00       23.058       16.540       19.454       33.317       35.650       29.482     1110.016     1270.927      869.198        0.222        0.163       28.377       28.425        1.003      341.293       15.906      867.668
10/05/2014  09:55:00       -1.496       -6.875       14.421       36.008       20.835       20.221     1296.596      434.110      408.900        0.120        0.107        7.036       19.077        7.352      341.315       15.943      867.663
10/05/2014  09:56:00       36.562       44.148       33.886       47.831       35.576       47.373     2287.810     1265.628     2244.194        0.511        0.290       57.322       43.066        0.564      341.436       16.147      867.646
10/05/2014  09:57:00       -6.994      -12.922       30.085       20.575       28.389       19.978      423.330      805.941      399.121        0.137        0.081       14.693       18.595        1.602      341.631       16.478      867.636
10/05/2014  09:58:00        4.882        4.771       30.002       29.714       28.500       20.783      882.901      812.253      431.913        0.154        0.106        6.826        8.492        1.548      341.515       16.282      867.619
10/05/2014  09:59:00       69.325       46.480       46.705       33.013       31.177       25.493     1089.842      972.035      649.877        0.593        0.136       83.464       13.972        0.028      341.366       16.029      867.612
10/05/2014  10:00:00       47.457       31.956       30.793       40.626       37.210       23.988     1650.465     1384.548      575.403        0.392        0.181       57.213       28.093        0.241      341.555       16.347      867.623
10/05/2014  10:01:00       17.799       29.955       42.255       23.377       22.333       17.593      546.498      498.748      309.507        0.218        0.068       34.843        7.667        0.048      341.631       16.477      867.628
10/05/2014  10:02:00        7.351       42.567       71.573       29.914       26.984       16.823      894.823      728.124      283.008        0.445        0.095       43.197        9.281        0.046      341.636       16.486      867.630
10/05/2014  10:03:00       45.962       53.120       46.940       35.718       34.702       22.308     1275.749     1204.206      497.645        0.506        0.149       70.244       15.138        0.046      341.444       16.161      867.642
10/05/2014  10:04:00       -0.097      -32.803        5.052       26.848       34.360       25.126      720.807     1180.613      631.294        0.182        0.127       32.803       16.632        0.257      341.010       15.428      867.646
10/05/2014  10:05:00        3.609      -29.457       25.189       39.721       31.603       23.644     1577.728      998.762      559.021        0.232        0.157       29.678       15.098        0.259      341.574       16.381      867.655
10/05/2014  10:06:00       54.183       35.466       35.878       34.249       41.329       39.041     1173.025     1708.056     1524.231        0.494        0.220       64.758       21.230        0.107      341.608       16.440      867.653
10/05/2014  10:07:00       31.911       13.496       26.122       30.383       35.255       24.461      923.153     1242.928      598.347        0.232        0.138       34.648       16.708        0.233      341.753       16.685      867.644
10/05/2014  10:08:00        8.793       14.698       26.330       25.453       46.689       24.402      647.853     2179.899      595.447        0.220        0.171       17.127       20.239        1.396      341.791       16.749      867.629
10/05/2014  10:09:00       16.889      -29.617       24.307       23.531       41.935       28.040      553.690     1758.551      786.233        0.243        0.155       34.094       14.701        0.186      342.051       17.191      867.610
10/05/2014  10:10:00       10.043        8.052       37.997       24.332       27.847       19.147      592.063      775.467      366.600        0.167        0.087       12.872       11.007        0.731      342.285       17.587      867.605
10/05/2014  10:11:00       34.426      -38.549       10.606       35.924       45.006       32.019     1290.566     2025.499     1025.209        0.356        0.217       51.683       19.992        0.150      341.862       16.870      867.605
10/05/2014  10:12:00       28.632       -7.107       24.674       42.007       26.882       27.954     1764.556      722.668      781.423        0.237        0.163       29.501       23.084        0.612      341.978       17.069      867.595
10/05/2014  10:13:00       22.643        1.386        2.003       32.793       24.876       30.445     1075.411      618.820      926.900        0.157        0.131       22.686       15.427        0.462      341.800       16.765      867.593
10/05/2014  10:14:00      -45.590       27.537      -26.468       20.798       12.119       17.422      432.575      146.862      303.511        0.221        0.044       53.261        9.630        0.033      341.599       16.423      867.590
10/05/2014  10:15:00      -11.003        5.260        6.737       14.999       16.068       13.728      224.978      258.178      188.463        0.043        0.034       12.196        8.142        0.446      342.448       17.865      867.591
10/05/2014  10:16:00      -30.120       13.535       18.431       14.081       13.083       17.411      198.281      171.177      303.149        0.105        0.034       33.021        6.359        0.037      342.112       17.294      867.575
10/05/2014  10:17:00       15.570       -1.726       21.194       26.970       10.270       18.991      727.355      105.478      360.675        0.094        0.060       15.666       12.425        0.629      342.321       17.650      867.588
10/05/2014  10:18:00       50.448        4.933        2.483       23.538       23.236       19.723      554.052      539.924      388.990        0.203        0.074       50.689        8.073        0.025      341.785       16.740      867.575
10/05/2014  10:19:00       39.763       29.097        6.149       36.254       21.466       21.439     1314.375      460.800      459.641        0.235        0.112       49.272       14.442        0.086      341.955       17.029      867.571
10/05/2014  10:20:00       31.525       -4.594        4.906       40.078       36.205       36.924     1606.266     1310.779     1363.385        0.266        0.214       31.858       29.139        0.837      342.097       17.270      867.557
10/05/2014  10:21:00       30.221       -7.833       44.712       29.141       39.628       39.025      849.183     1570.374     1522.920        0.346        0.197       31.220       25.251        0.654      342.031       17.155      867.552
10/05/2014  10:22:00       51.460      -37.001      -15.751       32.679       37.080       41.364     1067.925     1374.903     1710.951        0.421        0.208       63.381       13.253        0.044      341.608       16.439      867.543
10/05/2014  10:23:00       50.891       -0.560       -2.765       36.655       37.605       31.357     1343.586     1414.145      983.233        0.317        0.187       50.895       17.923        0.124      341.789       16.746      867.520
10/05/2014  10:24:00       25.905       29.399       31.486       26.359       28.794       26.483      694.807      829.097      701.350        0.238        0.111       39.184       19.857        0.257      342.190       17.427      867.510
10/05/2014  10:25:00       24.713       22.084        4.247       15.594       13.211       23.537      243.172      174.536      553.987        0.104        0.049       33.142        9.186        0.077      342.044       17.178      867.485
10/05/2014  10:26:00       36.253        3.947       -7.289       29.252       18.795       22.526      855.686      353.260      507.424        0.155        0.086       36.467       12.114        0.110      342.206       17.453      867.474
10/05/2014  10:27:00       20.706        4.679       27.008       27.829       36.316       42.492      774.443     1318.879     1805.599        0.254        0.195       21.228       33.373        2.472      342.464       17.892      867.456
10/05/2014  10:28:00       29.420       14.814       14.010       29.223       26.270       26.880      853.978      690.109      722.519        0.177        0.113       32.939       20.637        0.393      342.176       17.402      867.446
10/05/2014  10:29:00       43.860       10.564       23.297       29.850       29.343       35.527      891.037      860.986     1262.154        0.280        0.151       45.115        9.398        0.043      342.241       17.513      867.427
10/05/2014  10:30:00       18.916       24.728        5.533       31.138       21.171       23.246      969.571      448.212      540.399        0.148        0.098       31.133       17.936        0.332      342.351       17.700      867.418
10/05/2014  10:31:00      -10.472        6.076        4.382       21.255       18.406       21.424      451.765      338.787      459.003        0.071        0.062       12.108       15.210        1.578      342.704       18.300      867.411
10/05/2014  10:32:00      -16.876      -20.667        9.120       18.659       23.864       22.174      348.141      569.479      491.694        0.110        0.070       26.682       17.145        0.413      342.694       18.284      867.409
10/05/2014  10:33:00      -53.539      -23.884        1.016       31.389       21.003       18.097      985.245      441.116      327.493        0.260        0.088       58.624       19.471        0.110      342.498       17.950      867.401
10/05/2014  10:34:00      -69.104      -22.220       -3.079       34.423       16.831       15.165     1184.953      283.276      229.983        0.349        0.085       72.588       15.557        0.046      342.396       17.776      867.386
10/05/2014  10:35:00      -59.510       13.345       -7.174       13.689       15.671       10.944      187.390      245.567      119.761        0.216        0.028       60.987        5.844        0.009      342.303       17.617      867.383
10/05/2014  10:36:00      -40.801        9.442       -2.941       12.628       10.921        7.676      159.457      119.266       58.927        0.105        0.017       41.879        6.889        0.027      342.374       17.739      867.386
10/05/2014  10:37:00      -20.726       10.005       21.647       19.520       11.981       17.266      381.033      143.540      298.126        0.091        0.041       23.015       10.730        0.217      343.036       18.866      867.384
10/05/2014  10:38:00       -7.154        4.037       33.515       26.306       16.691       15.958      692.020      278.581      254.656        0.121        0.061        8.215       13.389        2.656      343.564       19.764      867.377
10/05/2014  10:39:00        6.913      -15.118        3.649       23.847       23.264       27.555      568.688      541.222      759.271        0.108        0.093       16.624       12.470        0.563      342.895       18.625      867.375
10/05/2014  10:40:00       41.994       20.702       23.306       26.831       34.612       30.557      719.896     1197.964      933.709        0.279        0.143       46.820       12.557        0.072      343.201       19.148      867.365
10/05/2014  10:41:00       -7.944       24.559      -14.733       33.551       24.382       21.112     1125.681      594.503      445.711        0.152        0.108       25.812       18.656        0.522      342.705       18.303      867.352
10/05/2014  10:42:00       -4.889        1.920       23.849       15.604       16.950       14.252      243.488      287.290      203.116        0.067        0.037        5.253        9.817        3.493      343.659       19.927      867.342
10/05/2014  10:43:00        8.802       -3.005       14.878       28.493       39.377       29.886      811.850     1550.513      893.174        0.178        0.163        9.301       12.433        1.787      342.802       18.466      867.340
10/05/2014  10:44:00       -8.046      -15.435       22.477       28.767       35.821       23.125      827.531     1283.140      534.779        0.173        0.132       17.406       10.500        0.364      343.208       19.159      867.334
10/05/2014  10:45:00        6.589       -5.752       27.592       26.533       27.863       27.128      704.007      776.372      735.937        0.153        0.111        8.746       23.248        7.065      343.199       19.142      867.337
10/05/2014  10:46:00       37.644       -6.034       17.209       36.493       40.497       31.329     1331.710     1639.981      981.525        0.285        0.198       38.124       30.027        0.620      342.646       18.201      867.331
10/05/2014  10:47:00       55.253      -35.431       -3.579       41.963       75.505       29.293     1760.904     5701.030      858.101        0.632        0.416       65.637       24.099        0.135      342.535       18.012      867.329
10/05/2014  10:48:00       72.677       73.879       17.342       32.539       32.037       33.320     1058.771     1026.377     1110.229        0.712        0.160      103.634        7.931        0.006      343.245       19.222      867.315
10/05/2014  10:49:00       54.891       54.917       -6.913       22.018       23.769       26.412      484.814      564.965      697.610        0.391        0.087       77.646        9.055        0.014      343.100       18.974      867.312
10/05/2014  10:50:00       40.376       30.715       -4.678       31.305       24.656       21.163      980.007      607.942      447.873        0.232        0.102       50.731       14.682        0.084      342.908       18.647      867.307
10/05/2014  10:51:00       26.298       53.511        9.235       34.479       29.125       29.491     1188.779      848.279      869.698        0.327        0.145       59.623       20.054        0.113      343.322       19.352      867.297
10/05/2014  10:52:00      -23.195       60.260        8.473       23.533       49.393       34.067      553.808     2439.661     1160.545        0.420        0.208       64.570       32.833        0.259      343.493       19.643      867.296
10/05/2014  10:53:00       67.135       47.774       25.412       42.773       44.981       32.787     1829.499     2023.261     1074.979        0.618        0.246       82.398       30.547        0.137      343.532       19.710      867.281
10/05/2014  10:54:00      147.849       80.495        8.464       41.736       37.286       32.771     1741.885     1390.250     1073.937        1.631        0.210      168.342       24.445        0.021      343.087       18.952      867.272
10/05/2014  10:55:00      109.813       89.462       19.698       58.895       44.340       32.124     3468.671     1966.030     1031.947        1.346        0.323      141.642       32.475        0.053      342.864       18.572      867.265
10/05/2014  10:56:00       42.726       34.353       -2.555       27.750       43.189       23.189      770.050     1865.301      537.719        0.309        0.159       54.824        9.585        0.031      343.028       18.849      867.256
10/05/2014  10:57:00       26.703      -67.119        5.053       31.909       44.869       32.683     1018.154     2013.236     1068.166        0.467        0.205       72.236       29.613        0.168      342.986       18.781      867.252
10/05/2014  10:58:00       66.086      -17.237        8.147       25.442       26.275       26.273      647.300      690.389      690.266        0.338        0.101       68.297       20.108        0.087      342.783       18.435      867.246
10/05/2014  10:59:00       15.876       19.124       30.348       23.477       27.142       23.677      551.156      736.690      560.587        0.169        0.092       24.855       16.526        0.442      343.107       18.986      867.238
10/05/2014  11:00:00       29.590      -21.412        8.760       31.889       44.170       36.208     1016.887     1950.946     1311.042        0.284        0.214       36.524       28.787        0.621      343.237       19.208      867.233
10/05/2014  11:01:00        9.351       -7.286       32.227       25.267       25.163       21.170      638.406      633.189      448.167        0.145        0.086       11.855       11.505        0.942      343.456       19.582      867.230
10/05/2014  11:02:00       53.031       54.793       43.806       36.931       33.636       28.388     1363.868     1131.391      805.891        0.552        0.165       76.254        4.861        0.004      343.193       19.131      867.229
10/05/2014  11:03:00       28.434       39.558       28.571       28.017       25.197       23.750      784.953      634.885      564.051        0.259        0.099       48.717        6.553        0.018      343.225       19.187      867.227
10/05/2014  11:04:00       31.087       10.108       35.844       25.087       22.708       21.671      629.357      515.632      469.621        0.198        0.081       32.689       13.402        0.168      343.433       19.542      867.233
10/05/2014  11:05:00       35.749      -19.922        4.753       28.694       29.224       22.898      823.370      854.034      524.297        0.195        0.110       40.926       20.372        0.248      342.898       18.631      867.224
10/05/2014  11:06:00       44.024        3.969       11.079       28.800       14.276       19.921      829.424      203.797      396.847        0.175        0.072       44.203       10.146        0.053      343.101       18.977      867.222
10/05/2014  11:07:00       25.333       14.267       19.623       34.357       28.816       25.257     1180.420      830.363      637.935        0.194        0.132       29.074       23.121        0.632      343.385       19.460      867.207
10/05/2014  11:08:00       21.445        6.787       28.544       33.084       22.763       22.810     1094.548      518.163      520.294        0.173        0.107       22.494       13.573        0.364      343.895       20.330      867.203
10/05/2014  11:09:00       12.877        3.860       34.187       36.293       38.555       28.235     1317.187     1486.483      797.210        0.247        0.180       13.443       25.379        3.564      343.787       20.145      867.182
10/05/2014  11:10:00       28.296      -38.540       31.079       30.917       46.705       31.282      955.863     2181.343      978.581        0.368        0.206       47.812       17.597        0.135      343.821       20.202      867.176
10/05/2014  11:11:00        4.618      -38.421       26.780       26.785       36.485       26.540      717.437     1331.143      704.366        0.248        0.138       38.697       21.073        0.297      343.789       20.149      867.160
10/05/2014  11:12:00       -2.223      -10.057       25.864       24.986       24.785       13.771      624.319      614.295      189.627        0.110        0.071       10.300       11.685        1.287      344.320       21.056      867.143
10/05/2014  11:13:00      -13.625        4.162        5.735       20.351       12.966       16.493      414.154      168.123      272.019        0.054        0.043       14.246       11.476        0.649      344.146       20.758      867.120
10/05/2014  11:14:00        5.560        1.433       15.575       34.557       20.624       14.148     1194.179      425.334      200.167        0.105        0.091        5.741       17.736        9.542      344.046       20.589      867.108
10/05/2014  11:15:00      -15.888       27.981       27.724       18.441       21.571       20.677      340.052      465.328      427.525        0.152        0.062       32.178        8.207        0.065      344.332       21.075      867.087
10/05/2014  11:16:00        9.142        5.527       31.698       18.142       24.148       21.086      329.146      583.134      444.632        0.124        0.068       10.683       17.243        2.605      344.192       20.838      867.075
10/05/2014  11:17:00        7.060       22.256       13.038       21.232       13.840       15.728      450.790      191.550      247.357        0.080        0.044       23.349        8.241        0.125      343.904       20.346      867.047
10/05/2014  11:18:00      -15.769      -38.350       -6.716       25.908       21.592       23.400      671.249      466.223      547.565        0.172        0.084       41.466       20.087        0.235      343.767       20.110      867.030
10/05/2014  11:19:00       30.139       27.896       33.407       29.253       31.928       26.652      855.733     1019.383      710.306        0.269        0.129       41.068       19.687        0.230      343.939       20.406      867.009
10/05/2014  11:20:00       55.685       26.365       26.384       35.335       30.735       21.549     1248.535      944.622      464.358        0.357        0.133       61.611       20.975        0.116      344.009       20.523      866.998
10/05/2014  11:21:00       14.003        2.982       31.418       29.685       20.958       17.921      881.219      439.219      321.155        0.142        0.082       14.317       13.336        0.868      344.314       21.045      866.986
10/05/2014  11:22:00       17.497      -23.864        5.572       34.149       24.181       20.678     1166.173      584.706      427.564        0.154        0.109       29.591       16.259        0.302      343.955       20.432      866.973
10/05/2014  11:23:00       14.257        2.134        9.952       21.445       37.500       20.263      459.872     1406.240      410.603        0.129        0.114       14.416       18.665        1.676      344.123       20.718      866.964
10/05/2014  11:24:00       62.366       33.547        5.294       20.841       22.924       28.592      434.354      525.493      817.509        0.341        0.089       70.816       18.373        0.067      344.180       20.816      866.956
10/05/2014  11:25:00       54.086       37.450       18.005       41.315       31.414       28.866     1706.917      986.843      833.239        0.409        0.176       65.786       21.075        0.103      344.159       20.781      866.956
10/05/2014  11:26:00       34.489       25.179        4.773       33.187       26.462       25.705     1101.354      700.264      660.753        0.215        0.123       42.702       21.362        0.250      344.215       20.876      866.961
10/05/2014  11:27:00       16.941        6.783       38.218       30.790       43.080       34.495      948.026     1855.874     1189.898        0.289        0.200       18.249       33.255        3.321      344.406       21.203      866.963
10/05/2014  11:28:00       42.004      -84.868       -5.576       53.755       50.759       48.779     2889.620     2576.493     2379.409        0.842        0.392       94.693       36.204        0.146      344.234       20.908      866.953
10/05/2014  11:29:00       74.335     -141.989      -30.152       60.609       49.365       27.884     3673.411     2436.857      777.499        1.674        0.344      160.270       22.214        0.019      344.209       20.866      866.960
10/05/2014  11:30:00       14.415     -133.400      -15.339       39.706       45.634       33.232     1576.528     2082.429     1104.374        1.150        0.238      134.177       16.937        0.016      344.038       20.574      866.950
10/05/2014  11:31:00      -11.191      -61.021       20.317       35.401       59.019       29.813     1253.236     3483.222      888.839        0.494        0.281       62.039       29.920        0.233      344.597       21.529      866.946
10/05/2014  11:32:00       17.871      -22.610       30.757       39.835       58.445       45.366     1586.804     3415.819     2058.115        0.442        0.353       28.819       32.535        1.274      344.580       21.500      866.946
10/05/2014  11:33:00        5.022      -19.077       15.798       38.327       42.145       38.631     1468.984     1776.203     1492.365        0.269        0.237       19.727       34.396        3.040      344.587       21.512      866.943
10/05/2014  11:34:00       22.527      -61.506        3.116       48.413       45.154       30.304     2343.865     2038.863      918.343        0.480        0.265       65.502       27.478        0.176      344.403       21.197      866.945
10/05/2014  11:35:00       32.112     -101.170       11.338       50.715       68.047       42.171     2572.039     4630.411     1778.377        1.019        0.449      106.144       35.839        0.114      344.393       21.180      866.924
10/05/2014  11:36:00       35.462     -130.124      -18.163       34.367       37.070       31.040     1181.121     1374.181      963.490        1.102        0.176      134.870       19.380        0.021      344.061       20.613      866.926
10/05/2014  11:37:00       22.637      -94.741      -22.973       38.391       44.053       27.030     1473.842     1940.654      730.632        0.708        0.207       97.408       25.310        0.068      344.176       20.810      866.907
10/05/2014  11:38:00       -9.052        6.306       37.309       22.154       24.660       17.654      490.793      608.117      311.678        0.146        0.071       11.032       15.859        2.066      344.849       21.958      866.910
10/05/2014  11:39:00       -0.651      -11.581       32.264       22.071       28.448       27.683      487.125      809.274      766.324        0.162        0.103       11.600       14.157        1.489      344.729       21.754      866.891
10/05/2014  11:40:00        4.933      -40.797       28.238       54.982       54.985       38.941     3023.052     3023.311     1516.401        0.502        0.378       41.095       27.252        0.440      344.497       21.357      866.884
10/05/2014  11:41:00       27.130      -12.292       32.712       27.517       50.343       31.187      757.165     2534.468      972.611        0.311        0.213       29.784       34.301        1.326      344.641       21.604      866.872
10/05/2014  11:42:00       46.857       10.574       28.284       33.877       23.116       23.597     1147.648      534.357      556.800        0.267        0.112       48.036       17.848        0.138      343.898       20.335      866.869
10/05/2014  11:43:00       15.234        1.124        2.293       17.479       20.908       17.899      305.498      437.150      320.361        0.065        0.053       15.276        7.334        0.230      344.079       20.644      866.856
10/05/2014  11:44:00      -12.436       15.512       19.714       13.251       18.707       16.814      175.585      349.963      282.705        0.080        0.040       19.882       10.317        0.269      344.767       21.820      866.834
10/05/2014  11:45:00      -47.844        9.452      -10.043       22.304       17.643       18.794      497.451      311.281      353.219        0.182        0.058       48.769       12.846        0.069      344.385       21.167      866.816
10/05/2014  11:46:00      -28.019        3.222       11.078       22.213       16.572       15.751      493.400      274.647      248.108        0.097        0.051       28.203       15.887        0.317      344.933       22.105      866.795
10/05/2014  11:47:00      -12.097       19.903       26.530       21.061       20.890       18.245      443.573      436.406      332.878        0.123        0.061       23.291       14.284        0.376      344.948       22.130      866.793
10/05/2014  11:48:00       35.160       37.979        9.164       23.370       17.946       20.849      546.164      322.064      434.691        0.203        0.065       51.755       11.920        0.053      344.568       21.479      866.780
10/05/2014  11:49:00      -12.371       -0.277       -7.516       24.562       16.037       15.729      603.294      257.198      247.390        0.066        0.055       12.374       11.836        0.915      344.654       21.628      866.777
10/05/2014  11:50:00       -1.597        6.095        4.133       27.114       25.022       16.206      735.168      626.119      262.647        0.084        0.081        6.300       14.427        5.243      344.876       22.005      866.773
10/05/2014  11:51:00       -3.685      118.707      -12.945       29.082       26.377       23.987      845.788      695.735      575.362        0.819        0.106      118.764       16.948        0.020      344.746       21.783      866.770
10/05/2014  11:52:00       17.219       26.503       12.068       29.481       50.522       28.078      869.121     2552.473      788.372        0.268        0.210       31.606       18.390        0.339      345.215       22.588      866.765
10/05/2014  11:53:00       63.196       42.132        7.032       33.407       25.096       29.941     1116.025      629.797      896.443        0.423        0.132       75.953       16.627        0.048      344.556       21.459      866.760
10/05/2014  11:54:00       60.815       54.711       10.354       50.752       45.849       33.558     2575.761     2102.090     1126.166        0.630        0.290       81.803       23.143        0.080      345.058       22.318      866.758
10/05/2014  11:55:00       51.217      118.966      -14.978       41.991       39.978       40.304     1763.249     1598.252     1624.425        1.099        0.249      129.523       29.804        0.053      344.742       21.776      866.751
10/05/2014  11:56:00       74.919       52.830       16.741       76.860       48.794       45.417     5907.404     2380.882     2062.662        0.952        0.518       91.672       30.462        0.110      345.009       22.235      866.745
10/05/2014  11:57:00       72.643       78.404        0.882       58.533       41.319       41.402     3426.124     1707.241     1714.097        0.914        0.342      106.884       31.289        0.086      344.994       22.208      866.727
10/05/2014  11:58:00      114.388       75.555       16.357       40.363       34.184       29.981     1629.171     1168.571      898.844        1.138        0.185      137.088        8.461        0.004      344.709       21.721      866.721
10/05/2014  11:59:00       44.401       66.213       37.293       43.882       39.793       37.924     1925.666     1583.509     1438.247        0.635        0.247       79.722       23.285        0.085      344.836       21.937      866.708
10/05/2014  12:00:00       27.143      -39.178       13.702       38.784       36.626       28.745     1504.176     1341.429      826.300        0.307        0.184       47.662       14.136        0.088      344.972       22.170      866.700
10/05/2014  12:01:00       67.068      -59.612        9.334       47.013       46.651       34.502     2210.234     2176.284     1190.366        0.686        0.279       89.731       33.692        0.141      344.181       20.819      866.673
10/05/2014  12:02:00      100.523      -56.278       12.178       39.893       28.319       27.683     1591.436      801.942      766.364        0.829        0.158      115.205       21.714        0.036      344.255       20.943      866.665
10/05/2014  12:03:00       20.767       22.971       26.324       38.013       49.453       26.073     1444.988     2445.583      679.809        0.311        0.229       30.966       26.921        0.756      345.016       22.247      866.646
10/05/2014  12:04:00       68.962       49.148       21.030       34.812       29.778       31.218     1211.864      886.738      974.590        0.534        0.154       84.683       22.314        0.069      345.343       22.806      866.639
10/05/2014  12:05:00       22.002       14.148       14.972       36.548       36.350       30.051     1335.756     1321.312      903.072        0.223        0.178       26.158       19.162        0.537      345.247       22.641      866.616
10/05/2014  12:06:00       54.016       17.381       10.553       48.567       41.632       37.910     2358.750     1733.215     1437.156        0.443        0.276       56.744       25.383        0.200      345.333       22.789      866.599
10/05/2014  12:07:00       45.003        4.900        9.729       57.558       59.894       33.245     3312.892     3587.344     1105.239        0.507        0.400       45.269       17.264        0.145      345.132       22.444      866.581
10/05/2014  12:08:00       59.388       77.098       58.564       59.438       47.011       36.477     3532.848     2210.038     1330.601        0.999        0.354       97.319       12.140        0.016      345.260       22.664      866.574
10/05/2014  12:09:00       52.698      -14.298       28.527       52.162       30.731       40.690     2720.904      944.380     1655.692        0.456        0.266       54.603       28.281        0.268      344.908       22.062      866.576
10/05/2014  12:10:00       35.306       67.928       75.858       56.256       62.461       47.152     3164.711     3901.428     2223.294        1.045        0.464       76.555       44.258        0.334      344.822       21.913      866.572
10/05/2014  12:11:00       93.899       97.610       99.025       92.934       59.349       56.185     8636.801     3522.279     3156.719        2.173        0.766      135.443       59.492        0.193      344.808       21.889      866.560
10/05/2014  12:12:00      112.496       95.490       72.845       60.911       46.192       49.572     3710.097     2133.663     2457.424        1.769        0.415      147.559       36.855        0.062      344.730       21.755      866.554
10/05/2014  12:13:00       39.542       54.478       61.235       48.578       41.435       30.700     2359.803     1716.825      942.505        0.665        0.251       67.316       18.932        0.079      345.290       22.715      866.543
10/05/2014  12:14:00       93.759       56.940       56.426       51.095       44.347       44.584     2610.658     1966.694     1987.760        1.089        0.328      109.694       29.359        0.072      344.909       22.063      866.526
10/05/2014  12:15:00       31.937       27.054       28.969       54.747       43.077       41.980     2997.208     1855.652     1762.295        0.460        0.331       41.856       32.115        0.589      345.171       22.511      866.527
10/05/2014  12:16:00       73.204       20.014       52.148       62.817       58.186       52.285     3945.931     3385.603     2733.751        0.927        0.503       75.891       53.902        0.504      344.729       21.755      866.516
10/05/2014  12:17:00       89.120       45.869       18.646       55.771       46.558       45.624     3110.426     2167.631     2081.593        0.888        0.368      100.231       10.985        0.012      345.125       22.432      866.499
10/05/2014  12:18:00       65.888       52.736       13.433       68.896       38.521       32.890     4746.675     1483.849     1081.722        0.731        0.366       84.394       24.885        0.087      345.751       23.506      866.497
10/05/2014  12:19:00       63.829       74.428       24.665       55.633       38.836       41.167     3095.037     1508.212     1694.751        0.826        0.315       98.049       33.429        0.116      345.581       23.215      866.483
10/05/2014  12:20:00       18.412      -13.273       13.678       33.270       17.535       19.810     1106.894      307.491      392.439        0.125        0.090       22.697        9.501        0.175      345.292       22.720      866.479
10/05/2014  12:21:00       36.587        5.653       -1.650       35.841       21.791       26.738     1284.554      474.828      714.914        0.192        0.124       37.021       18.549        0.251      345.084       22.363      866.477
10/05/2014  12:22:00       29.004        0.259       -6.904       49.704       38.219       21.635     2470.467     1460.666      468.053        0.264        0.220       29.005       12.265        0.179      345.323       22.771      866.470
10/05/2014  12:23:00       69.527       61.891       30.238       56.974       44.712       36.596     3245.980     1999.136     1339.234        0.808        0.329       93.083       28.931        0.097      345.717       23.449      866.468
10/05/2014  12:24:00       -1.472       53.872        8.454       36.118       44.892       23.870     1304.491     2015.283      569.797        0.343        0.194       53.892       17.575        0.106      346.007       23.946      866.473
10/05/2014  12:25:00       -5.054        7.593       10.530       15.593       15.297       18.137      243.152      233.985      328.940        0.050        0.040        9.121       12.827        1.978      346.109       24.121      866.455
10/05/2014  12:26:00        9.175       10.108       -5.688       16.695       26.518       18.397      278.716      703.223      338.443        0.077        0.066       13.651       12.128        0.789      346.021       23.969      866.449
10/05/2014  12:27:00       87.938       80.848       18.664       61.206       46.737       38.502     3746.201     2184.331     1482.403        1.101        0.371      119.455       24.954        0.044      345.876       23.720      866.435
10/05/2014  12:28:00      128.234      101.077       15.191       78.141       53.694       48.319     6105.978     2883.074     2334.753        1.911        0.566      163.280       35.925        0.048      345.802       23.591      866.429
10/05/2014  12:29:00       99.091       80.382       13.789       63.006       54.466       47.156     3969.756     2966.497     2223.697        1.281        0.458      127.594       33.031        0.067      345.779       23.553      866.421
10/05/2014  12:30:00        0.677       90.051        4.847       30.976       44.232       28.194      959.500     1956.441      794.908        0.592        0.186       90.053       21.779        0.058      346.126       24.148      866.408
10/05/2014  12:31:00      150.607       51.866        1.040      112.836       68.045       40.579    12731.868     4630.111     1646.641        2.219        0.950      159.287       38.571        0.059      345.841       23.660      866.404
10/05/2014  12:32:00      133.832      112.199        9.830       42.865       35.097       39.002     1837.405     1231.795     1521.159        1.759        0.230      174.641       11.375        0.004      345.697       23.412      866.386
10/05/2014  12:33:00       51.905       94.257        3.362       55.496       67.184       43.255     3079.842     4513.702     1871.010        1.053        0.473      107.603       40.600        0.142      346.006       23.942      866.373
10/05/2014  12:34:00       46.827       96.173       -5.789       48.299       56.837       38.205     2332.811     3230.420     1459.621        0.925        0.351      106.967       28.990        0.073      345.828       23.637      866.362
10/05/2014  12:35:00       22.032      178.116      -20.886       58.935       80.958       38.114     3473.347     6554.221     1452.700        2.206        0.574      179.473       42.367        0.056      345.796       23.581      866.343
10/05/2014  12:36:00       18.445       90.627       12.198       42.439       80.319       49.205     1801.032     6451.202     2421.122        0.969        0.534       92.485       52.480        0.322      346.232       24.332      866.334
10/05/2014  12:37:00       48.840      100.941       -6.284       51.570       65.728       40.167     2659.449     4320.136     1613.426        1.060        0.430      112.136       36.345        0.105      345.929       23.812      866.315
10/05/2014  12:38:00       55.690       56.001       13.417       55.097       56.950       40.192     3035.652     3243.334     1615.372        0.715        0.395       78.978       26.468        0.112      346.129       24.154      866.310
10/05/2014  12:39:00       85.864       87.578       17.320       65.847       36.769       45.622     4335.842     1351.932     2081.381        1.155        0.388      122.648       27.524        0.050      345.851       23.677      866.298
10/05/2014  12:40:00       85.381       60.185       23.719       68.711       57.988       42.181     4721.257     3362.588     1779.265        1.067        0.493      104.462       18.600        0.032      346.238       24.341      866.262
10/05/2014  12:41:00       70.400       64.355       44.343       49.310       66.820       45.491     2431.503     4464.951     2069.440        1.001        0.448       95.382       41.098        0.186      346.282       24.417      866.257
10/05/2014  12:42:00      124.181       63.604       35.734       76.922       61.882       40.418     5917.029     3829.329     1633.634        1.606        0.569      139.522       35.911        0.066      346.315       24.474      866.245
10/05/2014  12:43:00      173.076      126.887       40.818       59.980       46.750       45.927     3597.567     2185.587     2109.251        2.781        0.395      214.605       30.659        0.020      345.889       23.741      866.224
10/05/2014  12:44:00      137.346       99.223       19.709       53.142       38.083       37.305     2824.076     1450.347     1391.695        1.738        0.283      169.437       22.903        0.018      345.879       23.725      866.220
10/05/2014  12:45:00       77.211       86.082       19.221       47.954       51.554       46.982     2299.547     2657.850     2207.334        1.045        0.358      115.636       34.468        0.089      346.134       24.162      866.205
10/05/2014  12:46:00       70.141       63.627       22.105       71.399       69.166       34.052     5097.888     4783.923     1159.506        1.025        0.552       94.700       16.933        0.032      346.329       24.499      866.187
10/05/2014  12:47:00       48.241       16.123       28.829       43.350       37.224       39.885     1879.188     1385.632     1590.807        0.414        0.243       50.864       28.473        0.313      346.580       24.932      866.183
10/05/2014  12:48:00        7.594       44.045       26.528       49.203       22.160       31.534     2420.949      491.079      994.401        0.330        0.195       44.695       29.971        0.450      346.365       24.561      866.164
10/05/2014  12:49:00       -2.496       39.105        7.356       27.267       27.202       28.673      743.501      739.935      822.149        0.195        0.115       39.185       22.067        0.317      346.315       24.475      866.152
10/05/2014  12:50:00       47.024      -15.539       10.562       27.904       65.346       28.272      778.642     4270.160      799.313        0.421        0.292       49.525       33.582        0.460      346.181       24.242      866.150
10/05/2014  12:51:00       13.239       61.972       91.123       37.004       75.058       45.608     1369.324     5633.727     2080.120        1.070        0.454       63.370       53.108        0.702      346.589       24.945      866.150
10/05/2014  12:52:00       75.376      109.851       79.114       58.242       51.443       40.079     3392.084     2646.372     1606.361        1.583        0.382      133.224       32.832        0.061      346.317       24.478      866.152
10/05/2014  12:53:00       46.363       57.730        3.395       33.347       36.057       24.499     1112.035     1300.123      600.186        0.425        0.151       74.043       19.228        0.067      346.488       24.772      866.141
10/05/2014  12:54:00       58.904       42.514        5.736       40.898       39.062       29.151     1672.640     1525.878      849.767        0.468        0.202       72.644       21.253        0.086      346.459       24.721      866.137
10/05/2014  12:55:00       19.154       19.760        4.795       28.113       32.200       30.224      790.317     1036.833      913.482        0.176        0.137       27.520       17.869        0.422      346.467       24.736      866.120
10/05/2014  12:56:00      105.722       51.779        6.958       57.944       35.817       37.014     3357.552     1282.872     1370.048        0.996        0.301      117.721       13.436        0.013      346.440       24.690      866.110
10/05/2014  12:57:00      115.046       91.843       39.412       63.516       56.480       52.107     4034.312     3189.939     2715.103        1.658        0.497      147.210       34.694        0.056      346.702       25.140      866.096
10/05/2014  12:58:00       18.692       57.010       68.914       62.658       62.041       47.272     3926.029     3849.144     2234.605        0.918        0.500       59.996       43.252        0.520      347.120       25.860      866.088
10/05/2014  12:59:00      107.272      116.116       88.495       75.557       64.217       61.228     5708.791     4123.828     3748.812        2.320        0.679      158.083       50.598        0.102      346.331       24.499      866.093
10/05/2014  13:00:00       47.948       48.426        7.632       38.114       33.974       28.940     1452.685     1154.221      837.512        0.407        0.172       68.148       14.276        0.044      346.584       24.938      866.077
10/05/2014  13:01:00       51.481       56.806       49.453       60.852       64.673       53.870     3702.947     4182.595     2901.959        0.955        0.539       76.663       40.172        0.275      346.991       25.637      866.058
10/05/2014  13:02:00       92.156      119.641       67.788      105.371       75.434       77.033    11103.073     5690.292     5934.044        2.506        1.136      151.019       61.436        0.165      346.823       25.347      866.050
10/05/2014  13:03:00       62.402       93.385      -17.481      102.126       59.899       27.124    10429.727     3587.835      735.715        1.383        0.738      112.316       31.291        0.078      346.354       24.540      866.043
10/05/2014  13:04:00       54.241      101.735        2.821       62.506       32.560       34.304     3906.940     1060.140     1176.792        0.972        0.307      115.292       32.820        0.081      346.524       24.833      866.025
10/05/2014  13:05:00       85.221       67.811       26.532       87.910       75.912       47.276     7728.238     5762.656     2235.057        1.414        0.786      108.908       11.491        0.011      346.772       25.259      866.012
10/05/2014  13:06:00       65.031       60.378       35.026       71.482       64.852       56.824     5109.696     4205.833     3228.996        1.082        0.627       88.738       39.260        0.196      347.018       25.683      865.994
10/05/2014  13:07:00      130.951       53.375       28.072       75.913       54.615       47.910     5762.740     2982.748     2295.398        1.591        0.552      141.411       18.217        0.017      346.724       25.176      865.980
10/05/2014  13:08:00       45.179       23.960       10.376       47.642       42.557       33.341     2269.744     1811.108     1111.649        0.396        0.260       51.140       23.727        0.215      346.816       25.336      865.958
10/05/2014  13:09:00      107.726       77.543        6.770       72.079       51.028       45.297     5195.372     2603.825     2051.822        1.376        0.493      132.732       23.725        0.032      346.774       25.262      865.922
10/05/2014  13:10:00      106.589       78.114       26.752       75.410       46.825       55.247     5686.640     2192.536     3052.252        1.455        0.547      132.148       37.715        0.081      347.118       25.856      865.912
10/05/2014  13:11:00      149.900       58.691       29.644       67.510       46.394       49.542     4557.629     2152.358     2454.448        1.798        0.458      160.981       33.880        0.044      346.564       24.901      865.897
10/05/2014  13:12:00       73.902       30.311        4.921       64.497       56.720       36.471     4159.869     3217.171     1330.117        0.755        0.435       79.877       26.939        0.114      346.922       25.518      865.883
10/05/2014  13:13:00       26.419       42.039        6.324       27.210       29.804       25.624      740.368      888.294      656.567        0.239        0.114       49.651       20.208        0.166      347.176       25.955      865.886
10/05/2014  13:14:00       57.047       86.694       85.735       58.532       66.477       65.245     3425.943     4419.183     4256.876        1.511        0.605      103.779       59.428        0.328      346.969       25.599      865.863
10/05/2014  13:15:00       50.878       48.958       43.547       59.247       51.667       36.658     3510.243     2669.432     1343.819        0.720        0.376       70.608       17.776        0.063      346.684       25.108      865.853
10/05/2014  13:16:00       37.693       11.939       62.810       52.358       60.050       42.697     2741.353     3605.976     1823.053        0.684        0.409       39.539       40.830        1.066      346.825       25.351      865.842
10/05/2014  13:17:00      137.969       79.929       67.768       77.188      105.692       67.667     5957.970    11170.859     4578.832        2.586        1.085      159.449       61.163        0.147      346.540       24.859      865.817
10/05/2014  13:18:00      171.086      131.996        2.730       65.275       37.972       61.827     4260.841     1441.906     3822.558        2.811        0.476      216.086       43.660        0.041      346.480       24.753      865.814
10/05/2014  13:19:00       73.786       80.254        8.556       78.156       49.241       36.344     6108.293     2424.717     1320.864        1.090        0.493      109.019       33.086        0.092      346.801       25.309      865.793
10/05/2014  13:20:00       82.812       77.178        5.512       74.716       61.119       45.828     5582.482     3735.499     2100.250        1.213        0.571      113.200       36.770        0.106      346.977       25.614      865.778
10/05/2014  13:21:00       57.254       37.750       13.529       65.282       50.256       43.384     4261.750     2525.650     1882.206        0.678        0.433       68.580       27.806        0.164      346.910       25.496      865.768
10/05/2014  13:22:00       68.560      -79.683        0.926       65.382       98.290       51.801     4274.793     9660.954     2683.297        1.383        0.831      105.118       53.264        0.257      346.920       25.514      865.759
10/05/2014  13:23:00      115.652     -186.414       -6.733       59.616       67.688       27.249     3554.047     4581.716      742.501        2.852        0.444      219.376       27.323        0.016      346.621       24.999      865.725
10/05/2014  13:24:00       27.626       21.452       37.783       47.362       51.978       30.406     2243.141     2701.698      924.516        0.426        0.293       34.977       26.425        0.571      347.203       26.002      865.733
10/05/2014  13:25:00      -13.320        6.147       41.648       18.766       31.441       26.114      352.170      988.563      681.940        0.199        0.101       14.670       17.615        1.442      347.758       26.960      865.738
10/05/2014  13:26:00       14.548        0.089       55.285       39.880       57.066       29.265     1590.382     3256.530      856.412        0.448        0.285       14.548       27.222        3.501      347.545       26.592      865.720
10/05/2014  13:27:00       54.367       40.517       -1.386       52.812       46.631       30.113     2789.148     2174.477      906.784        0.523        0.294       67.804       12.850        0.036      347.223       26.037      865.720
10/05/2014  13:28:00      149.407      109.347       -3.827       42.978       33.357       28.852     1847.073     1112.661      832.417        1.904        0.190      185.146        8.967        0.002      346.799       25.306      865.720
10/05/2014  13:29:00       95.300       52.396       21.641       54.870       51.219       34.575     3010.756     2623.414     1195.464        0.956        0.341      108.754        8.937        0.007      346.762       25.242      865.710
10/05/2014  13:30:00      153.529       66.954       24.038       92.664       71.252       53.445     8586.605     5076.904     2856.354        2.257        0.826      167.493       22.716        0.018      346.939       25.547      865.695
10/05/2014  13:31:00       94.830       77.232       33.664       91.577       78.683       54.621     8386.385     6190.986     2983.483        1.682        0.878      122.301       33.383        0.075      347.041       25.723      865.684
10/05/2014  13:32:00      120.270       44.821       63.016       93.133      104.582       74.095     8673.715    10937.494     5490.137        2.277        1.255      128.350       64.408        0.252      347.119       25.855      865.666
10/05/2014  13:33:00       63.611        6.598       91.472       76.937      131.514       86.525     5919.237    17295.972     7486.532        2.157        1.535       63.952       78.616        1.511      347.339       26.234      865.644
10/05/2014  13:34:00       96.490      104.928       80.879       84.050       73.478       78.589     7064.441     5399.026     6176.262        2.275        0.932      142.549       55.318        0.151      347.096       25.816      865.676
10/05/2014  13:35:00      119.908       86.727       49.025       68.573       57.002       55.548     4702.313     3249.242     3085.544        1.767        0.552      147.985       41.339        0.078      346.808       25.324      865.666
10/05/2014  13:36:00       90.334       72.961       25.248       62.426       49.874       38.109     3897.045     2487.421     1452.284        1.098        0.392      116.119       26.005        0.050      346.904       25.486      865.635
10/05/2014  13:37:00       -6.608      112.967      -13.661       53.651       60.416       25.687     2878.432     3650.125      659.815        1.009        0.359      113.160       33.771        0.089      346.978       25.614      865.613
10/05/2014  13:38:00        0.579       97.704       -3.554       32.430       51.370       28.431     1051.728     2638.881      808.316        0.703        0.225       97.705       28.812        0.087      347.152       25.914      865.571
10/05/2014  13:39:00       39.724       17.017       11.956       63.116       68.021       31.452     3983.681     4626.872      989.216        0.580        0.480       43.215       26.892        0.387      347.207       26.010      865.560
10/05/2014  13:40:00       66.471      110.955      104.316       76.405       91.304       85.978     5837.776     8336.423     7392.143        2.459        1.078      129.342       79.417        0.377      347.020       25.685      865.529
10/05/2014  13:41:00       97.975      102.579       35.172       75.370       42.498       49.801     5680.639     1806.048     2480.100        1.566        0.498      141.851       43.034        0.092      346.831       25.359      865.515
10/05/2014  13:42:00       62.278       72.996       10.492       64.351       44.473       39.311     4141.092     1977.813     1545.367        0.849        0.383       95.952       17.704        0.034      347.040       25.722      865.488
10/05/2014  13:43:00      102.506       35.945       92.495      116.810      131.370       84.908    13644.640    17257.975     7209.374        2.923        1.906      108.625       82.613        0.578      347.256       26.091      865.460
10/05/2014  13:44:00       73.683      128.258      128.889       85.772       91.342       69.799     7356.827     8343.378     4871.837        2.953        1.029      147.916       62.747        0.180      347.322       26.205      865.456
10/05/2014  13:45:00      136.224       62.367       59.614       91.112       82.362       63.425     8301.486     6783.554     4022.739        2.255        0.955      149.822       51.766        0.119      347.045       25.725      865.444
10/05/2014  13:46:00      136.059       93.915       94.881       90.064       91.857       79.322     8111.605     8437.655     6291.932        2.958        1.142      165.324       61.336        0.138      347.238       26.059      865.436
10/05/2014  13:47:00      104.973       95.070       85.448       91.753       60.636       54.914     8418.549     3676.698     3015.531        2.123        0.756      141.625       50.225        0.126      347.088       25.803      865.442
10/05/2014  13:48:00      101.249       33.221       67.301       66.260       74.057       48.826     4390.431     5484.418     2383.985        1.407        0.613      106.560       44.295        0.173      347.060       25.755      865.445
10/05/2014  13:49:00      105.405       37.602        5.070       57.934      121.252       46.656     3356.347    14701.999     2176.810        1.639        1.012      111.911       33.915        0.092      347.230       26.048      865.422
10/05/2014  13:50:00      179.401       75.301       17.033       72.023       62.114       50.349     5187.380     3858.100     2534.978        2.486        0.579      194.563       22.709        0.014      347.108       25.836      865.420
10/05/2014  13:51:00      106.058       63.477       18.474       70.877       50.033       41.686     5023.495     2503.265     1737.734        1.244        0.463      123.603       22.039        0.032      347.039       25.720      865.413
10/05/2014  13:52:00       59.607       77.866      -17.651       93.405       60.190       30.749     8724.427     3622.872      945.489        1.161        0.665       98.062       32.302        0.109      346.879       25.444      865.395
10/05/2014  13:53:00       25.222       47.239       20.688       41.629       47.990       35.998     1732.955     2303.035     1295.856        0.431        0.267       53.551       23.373        0.191      347.428       26.391      865.367
10/05/2014  13:54:00      110.367       72.478       87.722       80.081       84.247       66.503     6412.920     7097.478     4422.637        2.153        0.897      132.038       53.711        0.165      347.298       26.165      865.349
10/05/2014  13:55:00      128.214       55.630      106.213      112.262       94.390       67.557    12602.736     8909.395     4563.936        2.844        1.304      139.763       69.338        0.246      347.317       26.196      865.305
10/05/2014  13:56:00      196.052       96.800       29.049       92.476      105.818       49.372     8551.881    11197.459     2437.595        3.542        1.109      218.648       26.515        0.015      347.233       26.050      865.300
10/05/2014  13:57:00       52.489        5.817       16.073       74.588       71.882       52.224     5563.434     5167.020     2727.370        0.825        0.673       52.811       20.442        0.150      347.459       26.443      865.303
10/05/2014  13:58:00       84.888      -39.088       13.625       73.505       98.236       54.880     5403.007     9650.349     3011.833        1.349        0.903       93.455       30.399        0.106      347.488       26.493      865.281
10/05/2014  13:59:00       76.689       12.437       72.163       80.625       72.042       48.601     6500.444     5190.112     2362.066        1.265        0.703       77.691       36.539        0.221      347.547       26.594      865.269
10/05/2014  14:00:00       18.424      -29.324       35.152       63.102      102.691       37.891     3981.869    10545.448     1435.742        0.920        0.798       34.632       39.623        1.309      347.582       26.655      865.246
10/05/2014  14:01:00       53.922       20.484       68.623       60.453      124.971       67.560     3654.539    15617.864     4564.313        1.593        1.192       57.682       80.463        1.946      347.638       26.752      865.252
10/05/2014  14:02:00      166.370       30.619       64.709       88.425      127.801       54.236     7818.995    16333.212     2941.525        2.994        1.355      169.165       45.770        0.073      347.446       26.418      865.248
10/05/2014  14:03:00      154.427       87.901       66.719      111.478       85.740       67.870    12427.390     7351.326     4606.405        3.020        1.219      177.692       62.282        0.123      347.496       26.505      865.237
10/05/2014  14:04:00      110.849      102.631      116.641      104.054      112.770       85.605    10827.268    12717.132     7328.223        3.364        1.544      151.065       79.650        0.278      347.463       26.447      865.223
10/05/2014  14:05:00      104.830       84.027      102.717      107.884       77.564       69.045    11638.993     6016.118     4767.281        2.551        1.121      134.350       67.790        0.255      347.300       26.167      865.224
10/05/2014  14:06:00       98.438       80.632       71.822      115.190       64.115       73.261    13268.842     4110.734     5367.235        2.204        1.137      127.246       73.464        0.333      347.565       26.626      865.223
10/05/2014  14:07:00      113.591      110.108        7.412       82.022       60.255       50.697     6727.579     3630.649     2570.214        1.900        0.646      158.198       41.635        0.069      347.173       25.949      865.237
10/05/2014  14:08:00       67.006       66.779       21.842       81.568       70.167       47.431     6653.420     4923.351     2249.694        1.162        0.691       94.600       37.238        0.155      347.463       26.450      865.214
10/05/2014  14:09:00       19.704      127.423      -14.483       49.006      108.453       37.167     2401.586    11762.005     1381.413        1.619        0.777      128.937       45.779        0.126      347.318       26.200      865.201
10/05/2014  14:10:00       16.907      118.570       -8.092       44.775       69.053       31.095     2004.825     4768.280      966.915        1.107        0.387      119.769       26.754        0.050      347.302       26.171      865.174
10/05/2014  14:11:00      153.630      138.200        1.809      135.927       94.377       75.430    18476.241     8907.109     5689.719        3.788        1.654      206.643       47.340        0.052      347.494       26.500      865.156
10/05/2014  14:12:00      124.018      107.327       50.022       91.927       60.473       58.581     8450.601     3657.032     3431.754        2.247        0.777      164.011       56.831        0.120      347.695       26.849      865.166
10/05/2014  14:13:00      198.646      125.606       28.022       64.202       43.132       57.663     4121.888     1860.370     3325.020        3.266        0.465      235.026       37.996        0.026      347.326       26.211      865.162
10/05/2014  14:14:00      120.787       65.622       35.954       80.329       59.776       46.614     6452.743     3573.183     2172.838        1.619        0.610      137.462       36.117        0.069      347.327       26.215      865.156
10/05/2014  14:15:00       99.000       57.807       27.043       70.403       52.140       38.012     4956.599     2718.621     1444.879        1.150        0.456      114.642       31.089        0.074      347.420       26.375      865.144
10/05/2014  14:16:00       63.162       74.707       35.808       55.092       48.237       49.478     3035.125     2326.828     2448.117        0.933        0.391       97.830       29.621        0.092      347.426       26.388      865.135
10/05/2014  14:17:00       48.603      -20.707       26.466       77.819       66.708       40.671     6055.765     4449.981     1654.129        0.782        0.608       52.830       34.937        0.437      347.565       26.625      865.110
10/05/2014  14:18:00       30.514      -99.959       -0.717       47.531       66.903       37.527     2259.242     4476.004     1408.259        0.953        0.407      104.513       30.443        0.085      347.638       26.753      865.096
10/05/2014  14:19:00       45.459       89.604       65.472       37.278       45.208       36.381     1389.682     2043.760     1323.606        0.957        0.238      100.476       20.809        0.043      347.629       26.737      865.087
10/05/2014  14:20:00       98.259      124.085       11.947       65.027       62.686       49.498     4228.504     3929.522     2450.070        1.790        0.530      158.278       45.297        0.082      347.206       26.006      865.097
10/05/2014  14:21:00       59.456      136.149       23.062      107.175       78.355       65.418    11486.417     6139.530     4279.489        2.225        1.095      148.565       65.740        0.196      347.393       26.327      865.077
10/05/2014  14:22:00      301.274      188.160       32.692       98.145       89.145       58.178     9632.448     7946.889     3384.664        7.410        1.048      355.205       36.659        0.011      347.339       26.231      865.080
10/05/2014  14:23:00      216.496      145.688       47.047       84.112       69.117       54.382     7074.844     4777.135     2957.383        4.256        0.740      260.952       42.013        0.026      347.218       26.024      865.102
10/05/2014  14:24:00       22.009       25.972       13.292       44.118       55.907       31.760     1946.365     3125.575     1008.724        0.371        0.304       34.044       30.762        0.817      347.496       26.507      865.094
10/05/2014  14:25:00       27.026       41.302        8.719       82.344       61.328       50.619     6780.492     3761.111     2562.248        0.781        0.655       49.358       27.651        0.314      347.741       26.930      865.075
10/05/2014  14:26:00      225.017      129.702       28.702       67.521       63.878       49.447     4559.110     4080.404     2445.049        3.968        0.554      259.721       35.628        0.019      347.396       26.332      865.060
10/05/2014  14:27:00       59.864      136.752      -28.761       64.071       84.935       33.189     4105.139     7213.924     1101.504        1.776        0.621      149.281       38.972        0.068      347.380       26.305      865.074
10/05/2014  14:28:00       -6.662      156.987      -23.924       35.500       37.505       24.090     1260.220     1406.619      580.351        1.425        0.162      157.128       18.037        0.013      347.310       26.186      865.077
10/05/2014  14:29:00      -11.407       43.075        0.967       28.324       23.432       21.798      802.274      549.058      475.147        0.191        0.091       44.559       17.150        0.148      347.544       26.589      865.068
10/05/2014  14:30:00       91.471       57.901       17.681       51.184       34.420       30.383     2619.797     1184.724      923.112        0.838        0.236      108.257       19.406        0.032      347.443       26.416      865.059
10/05/2014  14:31:00       83.998       56.822       21.627       49.767       49.847       31.064     2476.754     2484.705      964.942        0.834        0.296      101.412       24.382        0.058      347.472       26.466      865.035
10/05/2014  14:32:00      117.595       66.877        5.248       38.464       33.028       36.516     1479.448     1090.854     1333.388        1.112        0.195      135.282       17.329        0.016      347.457       26.441      865.033
10/05/2014  14:33:00      121.557       99.731       28.760       50.211       48.129       47.523     2521.188     2316.380     2258.415        1.632        0.355      157.234       14.703        0.009      347.648       26.771      865.027
10/05/2014  14:34:00      118.018       67.067        8.258       43.614       50.623       31.423     1902.212     2562.680      987.421        1.197        0.273      135.743       27.457        0.041      347.662       26.794      865.011
10/05/2014  14:35:00      162.131       87.232       19.968       81.377       55.661       49.119     6622.179     3098.111     2412.703        2.321        0.607      184.109       36.777        0.040      347.709       26.872      864.995
10/05/2014  14:36:00      115.915      116.638       24.045       83.092       53.961       54.126     6904.219     2911.771     2929.674        2.018        0.637      164.441       28.318        0.030      347.510       26.529      864.983
10/05/2014  14:37:00      -16.362       55.557       -0.957       71.067       37.158       30.020     5050.498     1380.688      901.205        0.534        0.367       57.916       32.982        0.324      347.756       26.956      864.956
10/05/2014  14:38:00       42.451       40.463        5.580       27.903       26.958       32.491      778.557      726.730     1055.692        0.302        0.128       58.646       16.795        0.082      347.579       26.650      864.959
10/05/2014  14:39:00       70.399       36.017       22.296       48.868       33.358       29.203     2388.121     1112.761      852.831        0.555        0.218       79.078       10.884        0.019      347.761       26.964      864.951
10/05/2014  14:40:00       88.172       65.835       17.850       66.230       46.626       37.451     4386.380     2174.016     1402.541        1.019        0.398      110.039       36.212        0.108      348.191       27.707      864.949
10/05/2014  14:41:00       49.843       17.418       20.646       51.755       37.055       35.262     2678.544     1373.055     1243.375        0.425        0.265       52.798       25.646        0.236      348.169       27.670      864.939
10/05/2014  14:42:00       48.824       97.611      106.557       75.983       58.833       47.686     5773.387     3461.274     2273.927        1.739        0.575      109.140       31.335        0.082      347.995       27.367      864.931
10/05/2014  14:43:00      103.766      -28.841       50.248      113.231       86.170       61.077    12821.203     7425.308     3730.408        1.905        1.199      107.699       64.392        0.357      348.030       27.427      864.929
10/05/2014  14:44:00       71.753      -10.330       29.922       63.791       84.936       60.321     4069.232     7214.062     3638.583        1.053        0.746       72.492       55.506        0.586      347.682       26.829      864.924
10/05/2014  14:45:00       58.187      -27.977       34.953       76.004       69.379       46.537     5776.645     4813.439     2165.671        0.907        0.638       64.563       46.915        0.528      347.794       27.022      864.909
10/05/2014  14:46:00      119.403      -56.197       15.667      113.576       91.978       54.122    12899.493     8459.946     2929.200        2.097        1.214      131.967       56.749        0.185      347.650       26.772      864.905
10/05/2014  14:47:00       58.933       -8.584       47.132       74.747       97.328       63.634     5587.131     9472.736     4049.237        1.244        0.955       59.555       68.797        1.334      347.768       26.976      864.913
10/05/2014  14:48:00       73.712      -67.619        0.349       53.396       56.222       35.964     2851.156     3160.912     1293.442        0.865        0.365      100.029       41.084        0.169      347.720       26.895      864.922
10/05/2014  14:49:00       42.509       -1.697       42.319       40.705       68.184       36.830     1656.931     4649.016     1356.453        0.563        0.383       42.543       39.053        0.843      347.812       27.053      864.911
10/05/2014  14:50:00       34.873       57.942       79.448       48.010       57.643       51.728     2304.996     3322.703     2675.816        0.959        0.415       67.627       33.821        0.250      347.877       27.164      864.901
10/05/2014  14:51:00      124.421       99.499       15.728       94.677       51.724       53.863     8963.693     2675.349     2901.255        2.008        0.727      159.313       29.448        0.034      347.780       26.997      864.890
10/05/2014  14:52:00      203.299       97.325       69.818      133.450       70.959       94.117    17808.813     5035.167     8857.991        4.368        1.585      225.395       76.824        0.116      347.657       26.781      864.886
10/05/2014  14:53:00      186.726      122.985      110.633      143.030      104.715       96.591    20457.541    10965.129     9329.784        5.149        2.038      223.588       91.554        0.168      347.500       26.510      864.861
10/05/2014  14:54:00      125.602      116.130      112.755      109.710       93.971       79.353    12036.175     8830.476     6296.946        3.457        1.358      171.062       58.551        0.117      347.571       26.633      864.859
10/05/2014  14:55:00       43.705       47.999       63.940       86.422       58.499       52.187     7468.807     3422.155     2723.491        1.096        0.681       64.915       49.871        0.590      348.117       27.579      864.858
10/05/2014  14:56:00       91.640       73.654       86.904      118.417       95.567       90.889    14022.685     9133.130     8260.730        2.639        1.571      117.571       87.875        0.559      347.920       27.236      864.869
10/05/2014  14:57:00       92.560       24.777       37.996       50.303       56.456       37.135     2530.349     3187.323     1379.035        0.886        0.355       95.819       31.450        0.108      347.635       26.747      864.884
10/05/2014  14:58:00       25.276      -58.145      -16.366       59.306       59.536       27.367     3517.165     3544.535      748.974        0.605        0.391       63.401       13.345        0.044      347.556       26.612      864.858
10/05/2014  14:59:00      -32.538       23.524       -1.877       56.449       47.783       29.710     3186.455     2283.214      882.702        0.398        0.318       40.151       23.331        0.338      347.766       26.973      864.834
10/05/2014  15:00:00       -2.937       68.041      -13.762       16.068       15.680       15.290      258.188      245.865      233.769        0.278        0.037       68.105       12.536        0.034      347.629       26.738      864.833
10/05/2014  15:01:00       48.622       69.842       -5.746       61.075       43.912       37.071     3730.147     1928.231     1374.291        0.715        0.352       85.100       31.286        0.135      347.721       26.895      864.831
10/05/2014  15:02:00       34.214       29.703       22.194       63.049       37.987       37.909     3975.134     1442.995     1437.121        0.470        0.343       45.308       13.949        0.095      347.828       27.080      864.826
10/05/2014  15:03:00       37.459       29.208        1.136       47.622       48.888       26.103     2267.814     2390.070      681.353        0.380        0.267       47.500       16.510        0.121      347.928       27.253      864.817
10/05/2014  15:04:00       99.603       90.334       24.967       76.265       49.266       41.966     5816.300     2427.174     1761.113        1.435        0.500      134.466       22.744        0.029      347.851       27.119      864.807
10/05/2014  15:05:00      115.914       93.045        5.255       77.560       67.404       52.280     6015.487     4543.254     2733.223        1.770        0.665      148.639       32.236        0.047      347.767       26.974      864.780
10/05/2014  15:06:00       90.259      117.382        4.807       76.374       67.122       58.158     5832.933     4505.300     3382.348        1.783        0.686      148.072       43.039        0.084      347.734       26.917      864.777
10/05/2014  15:07:00       82.896       39.802       29.422       58.620       45.366       37.946     3436.281     2058.100     1439.916        0.813        0.347       91.956       20.040        0.047      347.827       27.079      864.769
10/05/2014  15:08:00       41.757       38.031       15.011       26.520       26.196       27.762      703.331      686.257      770.730        0.279        0.108       56.480       15.992        0.080      347.995       27.368      864.771
10/05/2014  15:09:00       37.492       81.936       -1.407       51.354       71.066       35.550     2637.227     5050.352     1263.800        0.853        0.448       90.107       39.532        0.192      348.009       27.393      864.769
10/05/2014  15:10:00       60.909      172.415       -5.802       93.320       99.940       58.676     8708.682     9988.027     3442.821        2.780        1.107      182.858       56.667        0.096      347.843       27.102      864.741
10/05/2014  15:11:00      105.801      161.308       -1.547      116.920       83.500       78.773    13670.305     6972.227     6205.110        3.203        1.342      192.910       56.408        0.086      347.705       26.864      864.753
10/05/2014  15:12:00      134.095      227.116       -5.709      130.323      137.130       85.554    16984.004    18804.511     7319.531        5.634        2.155      263.748       82.151        0.097      347.623       26.724      864.744
10/05/2014  15:13:00       90.445      123.737       -1.570      108.394       92.674       55.220    11749.200     8588.380     3049.264        2.344        1.169      153.268       39.449        0.066      347.778       26.991      864.741
10/05/2014  15:14:00      146.886      134.539        6.566      113.603       73.334       60.007    12905.698     5377.831     3600.803        3.080        1.094      199.189       43.755        0.048      347.799       27.029      864.730
10/05/2014  15:15:00      148.947      139.506       12.872      104.184       87.415       77.296    10854.274     7641.367     5974.739        3.314        1.224      204.076       65.954        0.104      347.642       26.756      864.738
10/05/2014  15:16:00       25.840      237.223      -30.387       92.133      119.521       56.420     8488.473    14285.334     3183.231        4.191        1.298      238.626       64.763        0.074      347.756       26.952      864.749
10/05/2014  15:17:00       70.974      255.541      -29.181       96.315      134.846       73.951     9276.553    18183.370     5468.709        5.205        1.646      265.214       72.067        0.074      347.644       26.759      864.743
10/05/2014  15:18:00       52.627      104.607      -15.238       73.202       80.111       45.906     5358.586     6417.712     2107.395        1.391        0.694      117.099       45.358        0.150      347.664       26.796      864.746
10/05/2014  15:19:00       65.583       74.374        8.800       79.940       25.443       26.493     6390.434      647.355      701.868        0.882        0.387       99.159       36.638        0.137      347.550       26.600      864.722
10/05/2014  15:20:00      -59.294      201.852      -30.885       48.782       74.413       33.488     2379.700     5537.238     1121.446        2.712        0.452      210.381       27.420        0.017      347.639       26.751      864.714
10/05/2014  15:21:00      -41.192      179.199      -17.819       64.062       63.172       27.778     4103.919     3990.704      771.602        2.149        0.443      183.872       27.609        0.023      347.693       26.845      864.702
10/05/2014  15:22:00        2.297      183.060      -16.058       39.063       71.385       39.122     1525.923     5095.775     1530.548        2.096        0.408      183.075       40.659        0.049      347.633       26.742      864.697
10/05/2014  15:23:00       92.538       64.642       31.178       83.504       62.450       59.703     6972.954     3899.981     3564.471        1.407        0.722      112.880       35.525        0.099      347.876       27.160      864.703
10/05/2014  15:24:00      120.372       65.950       45.921       87.656       82.478       61.060     7683.502     6802.620     3728.320        1.958        0.911      137.255       41.015        0.089      347.852       27.120      864.702
10/05/2014  15:25:00      224.855      144.181       18.020       83.620       65.476       53.487     6992.294     4287.142     2860.889        4.290        0.707      267.110       47.341        0.031      347.755       26.953      864.707
10/05/2014  15:26:00      178.580       96.225       61.336       82.090       61.708       58.294     6738.848     3807.872     3398.196        2.943        0.697      202.855       38.086        0.035      347.920       27.235      864.695
10/05/2014  15:27:00      111.373       45.127       75.683      104.274       93.287       71.328    10872.967     8702.485     5087.661        2.241        1.233      120.168       65.340        0.296      347.934       27.263      864.698
10/05/2014  15:28:00       23.399       16.796       48.769       72.415       46.457       39.025     5243.926     2158.294     1522.923        0.607        0.446       28.803       39.024        1.836      347.978       27.340      864.696
10/05/2014  15:29:00       85.023       56.327       -0.148       83.959       61.438       50.239     7049.157     3774.683     2523.973        1.187        0.667      101.989       37.458        0.135      347.936       27.266      864.704
10/05/2014  15:30:00      268.774      146.155       27.813      125.524      100.858       49.691    15756.354    10172.375     2469.245        6.138        1.420      305.942       14.959        0.002      347.652       26.773      864.700
10/05/2014  15:31:00      202.333      103.847       30.697       54.162       58.019       51.400     2933.479     3366.230     2641.951        3.080        0.447      227.426       31.895        0.020      347.590       26.663      864.708
10/05/2014  15:32:00      155.712       62.348       67.779       98.736       59.044       65.727     9748.861     3486.161     4320.085        2.514        0.878      167.731       51.826        0.095      347.763       26.966      864.702
10/05/2014  15:33:00      116.937       53.124       22.961       85.631       64.801       65.634     7332.739     4199.109     4307.809        1.643        0.792      128.438       47.968        0.139      347.824       27.071      864.694
10/05/2014  15:34:00       82.271       46.680       72.387       96.496       67.983       75.632     9311.560     4621.631     5720.203        1.692        0.983       94.591       59.893        0.401      347.868       27.150      864.684
10/05/2014  15:35:00      114.393       11.222       65.610       87.131       68.580       50.818     7591.831     4703.229     2582.426        1.619        0.744      114.942       33.306        0.084      347.873       27.157      864.674
10/05/2014  15:36:00       79.913       -1.254       26.990       40.859      117.801       33.623     1669.445    13877.015     1130.480        1.189        0.834       79.923       24.437        0.093      347.918       27.235      864.645
10/05/2014  15:37:00      193.043      133.985       18.336       68.935       66.532       63.109     4751.978     4426.444     3982.763        3.436        0.658      234.984       35.326        0.023      347.784       27.001      864.655
10/05/2014  15:38:00       84.365      105.296       12.227      100.431       71.271       54.090    10086.464     5079.599     2925.737        1.822        0.905      134.925       35.523        0.069      347.902       27.207      864.652
10/05/2014  15:39:00       63.761      124.589       -2.764       64.019       60.095       36.818     4098.439     3611.369     1355.544        1.433        0.453      139.957       39.058        0.078      347.653       26.777      864.651
10/05/2014  15:40:00       98.426       80.421       -4.536       46.743       44.055       32.003     2184.911     1940.862     1024.204        1.066        0.257      127.103       25.086        0.039      347.651       26.775      864.644
10/05/2014  15:41:00       15.306       52.543       -7.399       23.278       15.120       17.806      541.889      228.618      317.053        0.207        0.054       54.727       14.693        0.072      347.604       26.694      864.617
10/05/2014  15:42:00       13.910       39.110       -9.889       26.502       28.949       12.409      702.376      838.063      153.983        0.176        0.085       41.510        3.076        0.005      347.829       27.082      864.591
10/05/2014  15:43:00        3.248       49.136      -10.772       23.726       20.592        9.433      562.909      424.011       88.978        0.181        0.054       49.243        8.398        0.029      347.715       26.883      864.584
10/05/2014  15:44:00      104.275      148.442        0.855      110.585       79.451       58.791    12229.006     6312.489     3456.374        2.745        1.100      181.406       48.625        0.072      347.736       26.919      864.573
10/05/2014  15:45:00       33.799      231.294      -18.047       77.647      100.075       58.681     6029.015    10015.050     3443.433        3.722        0.974      233.750       50.790        0.047      347.858       27.129      864.567
10/05/2014  15:46:00       28.987      142.181      -11.101       61.774       67.850       43.907     3816.083     4603.564     1927.856        1.576        0.517      145.106       30.908        0.045      348.084       27.522      864.572
10/05/2014  15:47:00       98.667      107.486        5.459       83.696       68.938       44.922     7005.075     4752.432     2017.980        1.754        0.689      145.905       39.980        0.075      347.987       27.352      864.571
10/05/2014  15:48:00      102.829       92.721       11.005       79.059       77.667       62.678     6250.253     6032.214     3928.551        1.775        0.811      138.459       46.480        0.113      347.853       27.122      864.563
10/05/2014  15:49:00      139.990      121.488      -11.677       81.672       57.256       53.108     6670.362     3278.291     2820.509        2.363        0.638      185.355       37.072        0.040      347.708       26.872      864.565
10/05/2014  15:50:00      107.256       96.724        2.156       68.066       48.844       42.856     4632.989     2385.693     1836.636        1.486        0.443      144.428       17.006        0.014      347.670       26.807      864.570
10/05/2014  15:51:00       10.790       16.085        7.010       34.124       19.670       20.147     1164.465      386.903      405.910        0.119        0.098       19.369       14.514        0.562      347.802       27.036      864.549
10/05/2014  15:52:00      -27.766       65.644       -4.057       21.875       21.775       22.262      478.508      474.144      495.591        0.327        0.072       71.275       18.249        0.066      347.880       27.170      864.527
10/05/2014  15:53:00       44.100       85.072        0.343       43.910       25.389       31.033     1928.082      644.583      963.052        0.636        0.177       95.824       29.155        0.093      347.712       26.879      864.527
10/05/2014  15:54:00      154.909       93.406       46.182       81.331       47.157       41.168     6614.677     2223.776     1694.772        2.269        0.527      180.891       18.209        0.010      347.751       26.945      864.517
10/05/2014  15:55:00      183.841       82.739       30.401      101.933       76.020       56.798    10390.296     5778.996     3226.038        3.048        0.970      201.602       21.372        0.011      347.773       26.981      864.513
10/05/2014  15:56:00      214.423      163.756       20.895       84.686       66.161       51.709     7171.702     4377.320     2673.866        4.372        0.711      269.803       35.926        0.018      347.742       26.927      864.497
10/05/2014  15:57:00      249.859      179.869       27.704       91.915       68.340       59.860     8448.314     4670.390     3583.274        5.612        0.835      307.867       21.222        0.005      347.699       26.855      864.474
10/05/2014  15:58:00      146.433       98.449       24.046      108.683       56.566       52.580    11811.904     3199.729     2764.625        2.474        0.889      176.451       33.082        0.035      347.787       27.008      864.462
10/05/2014  15:59:00      191.932      111.462       17.472      114.161       92.232       57.896    13032.838     8506.753     3351.914        3.723        1.245      221.950       41.848        0.036      347.756       26.954      864.451
10/05/2014  16:00:00      139.302      140.393       -0.167      111.219       95.523       76.484    12369.635     9124.677     5849.827        3.323        1.367      197.776       55.067        0.078      347.799       27.027      864.450
10/05/2014  16:01:00      212.092      173.428        7.936       84.367       62.921       64.569     7117.776     3959.076     4169.154        4.518        0.762      273.972       38.444        0.020      347.678       26.819      864.454
10/05/2014  16:02:00      160.127      100.323       19.812       71.163       54.902       41.704     5064.141     3014.205     1739.215        2.296        0.491      188.959       15.252        0.007      347.635       26.744      864.444
10/05/2014  16:03:00       75.084       62.421       18.176       66.330       54.748       48.296     4399.621     2997.341     2332.532        0.980        0.486       97.643       36.943        0.143      347.797       27.027      864.415
10/05/2014  16:04:00      168.752       92.665       20.433       91.820       72.512       50.491     8430.841     5258.012     2549.322        2.686        0.812      192.520       16.087        0.007      347.903       27.207      864.413
10/05/2014  16:05:00      158.700      114.180       10.103       94.958       61.228       49.053     9017.117     3748.887     2406.244        2.675        0.759      195.507       26.797        0.019      347.717       26.884      864.428
10/05/2014  16:06:00      153.345      107.342       49.223       74.596       51.892       57.439     5564.555     2692.763     3299.223        2.451        0.578      187.182       29.560        0.025      347.749       26.941      864.431
10/05/2014  16:07:00       93.577       50.299       16.707       52.346       53.665       42.048     2740.082     2879.904     1768.061        0.948        0.369      106.239       24.391        0.053      347.683       26.831      864.435
10/05/2014  16:08:00       70.761       52.082       33.613       47.038       37.228       29.911     2212.608     1385.907      894.678        0.667        0.225       87.861       13.439        0.023      347.627       26.734      864.430
10/05/2014  16:09:00       55.428       34.128       32.996       62.909       47.631       38.945     3957.572     2268.757     1516.689        0.653        0.387       65.092       28.053        0.186      347.806       27.043      864.428
10/05/2014  16:10:00       48.398       44.504        5.037       64.699       42.649       32.233     4185.923     1818.965     1038.935        0.569        0.352       65.749       24.047        0.134      348.030       27.429      864.414
10/05/2014  16:11:00       91.037       55.484       20.406       43.152       51.499       27.335     1862.073     2652.176      747.220        0.852        0.263      106.612       16.849        0.025      347.779       26.997      864.415
10/05/2014  16:12:00       64.257       64.246       -1.227       38.818       33.919       32.881     1506.865     1150.521     1081.148        0.600        0.187       90.866       20.211        0.049      347.811       27.050      864.400
10/05/2014  16:13:00       50.705       46.023       -3.629       27.185       18.082       20.936      739.035      326.960      438.312        0.310        0.075       68.477       10.465        0.023      347.810       27.049      864.390
10/05/2014  16:14:00       -6.341        3.332       -8.251       13.357       18.385       10.102      178.403      338.026      102.057        0.037        0.031        7.163        9.197        1.648      348.025       27.420      864.384
10/05/2014  16:15:00        9.518       33.167       13.701       25.290       35.944       17.092      639.583     1291.968      292.137        0.180        0.111       34.506       11.941        0.120      347.994       27.367      864.370
10/05/2014  16:16:00       -8.934       16.579       21.468       30.538       31.889       25.275      932.562     1016.940      638.829        0.170        0.129       18.833       19.390        1.060      348.371       28.018      864.367
10/05/2014  16:17:00       35.537      -61.761        3.988       29.294       29.647       23.027      858.132      878.955      530.243        0.368        0.113       71.255       14.351        0.041      348.077       27.511      864.364
10/05/2014  16:18:00       39.582        6.493       38.355       43.381       66.548       34.657     1881.941     4428.677     1201.084        0.529        0.376       40.111       30.026        0.560      348.097       27.543      864.357
10/05/2014  16:19:00       24.661        7.753        8.578       18.761       16.197       16.230      351.971      262.353      263.421        0.081        0.044       25.851       11.497        0.198      348.049       27.461      864.355
10/05/2014  16:20:00       67.651       38.773       12.483       56.575       37.748       36.662     3200.774     1424.880     1344.129        0.610        0.298       77.974       32.471        0.173      347.964       27.314      864.342
10/05/2014  16:21:00      126.680       77.376       13.227       95.210       53.193       35.652     9064.911     2829.445     1271.048        1.769        0.658      148.441       22.185        0.022      347.885       27.175      864.317
10/05/2014  16:22:00      184.087      132.455        8.437       64.386       54.517       47.413     4145.546     2972.140     2248.010        3.043        0.468      226.787       32.703        0.021      347.739       26.923      864.320
10/05/2014  16:23:00       96.970       68.142       12.754       40.338       49.049       35.981     1627.126     2405.788     1294.605        0.977        0.266      118.518       13.087        0.012      347.761       26.964      864.323
10/05/2014  16:24:00       10.372       35.180        5.017       31.325       45.668       24.674      981.241     2085.569      608.821        0.252        0.184       36.677       23.075        0.396      347.896       27.197      864.319
10/05/2014  16:25:00       87.860       27.436       22.159       50.311       37.320       31.640     2531.173     1392.798     1001.098        0.694        0.246       92.044       13.671        0.022      347.841       27.102      864.316
10/05/2014  16:26:00       96.776       46.808        9.349       54.482       41.248       37.950     2968.306     1701.424     1440.229        0.888        0.305      107.502       24.799        0.053      347.807       27.044      864.310
10/05/2014  16:27:00       29.440       83.134       -6.165       34.457       54.513       27.548     1187.257     2971.674      758.889        0.637        0.246       88.193       31.504        0.128      347.754       26.952      864.308
10/05/2014  16:28:00        4.167       83.690      -14.003       22.008       32.958       14.614      484.348     1086.217      213.565        0.450        0.089       83.793       11.995        0.020      347.726       26.904      864.309
10/05/2014  16:29:00       -1.429      101.481      -18.527       23.033       28.956       14.963      530.502      838.453      223.897        0.612        0.080      101.491       15.323        0.023      347.813       27.054      864.304
10/05/2014  16:30:00      -31.527       62.812       -1.160       17.546       37.571       20.288      307.847     1411.549      411.589        0.354        0.107       70.280       19.219        0.075      347.953       27.296      864.302
10/05/2014  16:31:00      -38.965       43.742       -9.847       18.475       36.009       16.556      341.335     1296.668      274.110        0.272        0.096       58.581        5.213        0.008      347.909       27.221      864.300
10/05/2014  16:32:00        7.426       43.644        0.237       14.315       17.620       13.611      204.918      310.467      185.270        0.133        0.035       44.272        7.478        0.029      347.822       27.070      864.297
10/05/2014  16:33:00       35.076       10.415        3.955       18.167       16.602       16.540      330.057      275.630      273.582        0.112        0.044       36.589        6.703        0.034      347.807       27.043      864.304
10/05/2014  16:34:00       83.184       15.277       22.729       43.831       38.423       30.579     1921.146     1476.365      935.053        0.600        0.217       84.575       24.539        0.084      347.893       27.192      864.310
10/05/2014  16:35:00       71.171       14.272       44.940       49.900       50.385       34.459     2489.976     2538.662     1187.396        0.675        0.311       72.587       36.806        0.257      348.012       27.398      864.306
10/05/2014  16:36:00      173.165       60.940       58.060       78.039      108.683       59.836     6090.156    11812.072     3580.300        2.927        1.074      183.575       59.109        0.104      347.959       27.302      864.286
10/05/2014  16:37:00      110.628       13.117       43.078       73.354       57.606       51.398     5380.865     3318.448     2641.795        1.280        0.567      111.403       33.582        0.091      347.996       27.370      864.285
10/05/2014  16:38:00       27.094       49.864       60.921       38.243       61.937       53.618     1462.517     3836.196     2874.867        0.755        0.409       56.750       47.672        0.706      348.037       27.441      864.274
10/05/2014  16:39:00      152.733       96.551       44.247       86.453       53.250       53.654     7474.073     2835.553     2878.759        2.390        0.659      180.691       46.864        0.067      347.867       27.145      864.271
10/05/2014  16:40:00       91.624       66.839       47.904       47.352       50.871       42.958     2242.183     2587.831     1845.352        1.092        0.334      113.413       28.325        0.062      347.993       27.364      864.268
10/05/2014  16:41:00       43.735       46.220       45.371       42.660       47.092       37.926     1819.860     2217.644     1438.347        0.579        0.274       63.631       34.471        0.293      348.023       27.416      864.266
10/05/2014  16:42:00       73.048       50.629       22.440       40.553       36.865       33.960     1644.532     1359.017     1153.264        0.628        0.208       88.878       24.882        0.078      348.061       27.483      864.267
10/05/2014  16:43:00       50.690       47.605       36.484       50.206       30.869       27.340     2520.651      952.887      747.484        0.519        0.211       69.539       22.449        0.104      348.138       27.615      864.264
10/05/2014  16:44:00      108.581       75.927        2.327       55.128       56.404       51.779     3039.087     3181.427     2681.025        1.323        0.445      132.495       28.800        0.047      348.022       27.414      864.257
10/05/2014  16:45:00      151.205       85.087       23.571       54.082       51.884       40.809     2924.842     2691.972     1665.338        1.897        0.364      173.502       24.303        0.020      347.945       27.281      864.254
10/05/2014  16:46:00       40.666       30.504       45.208       45.726       54.584       36.534     2090.860     2979.451     1334.727        0.552        0.320       50.835       36.437        0.514      347.999       27.376      864.261
10/05/2014  16:47:00       31.889       26.785       71.342       52.234       82.791       58.979     2728.401     6854.304     3478.572        0.994        0.653       41.645       65.275        2.457      347.946       27.284      864.261
10/05/2014  16:48:00       21.188      -15.853       55.157       49.150       57.408       36.280     2415.694     3295.712     1316.266        0.538        0.351       26.462       25.633        0.938      348.035       27.438      864.261
10/05/2014  16:49:00       40.271       -9.062       53.746       53.412       91.510       45.469     2852.861     8374.157     2067.386        0.894        0.665       41.278       43.484        1.110      347.988       27.356      864.261
10/05/2014  16:50:00       54.054       42.874       70.341       48.524       69.503       45.007     2354.606     4830.653     2025.586        0.946        0.461       68.993       42.177        0.374      347.849       27.117      864.274
10/05/2014  16:51:00       96.413       15.227       50.563       58.911       53.646       43.027     3470.452     2877.841     1851.284        1.014        0.410       97.608       35.719        0.134      347.806       27.042      864.281
10/05/2014  16:52:00       63.652       -7.070       39.768       44.707       27.877       24.105     1998.688      777.104      581.073        0.452        0.168       64.043       15.899        0.062      347.919       27.237      864.292
10/05/2014  16:53:00       25.343       -5.427       17.732       29.666       33.281       20.566      880.087     1107.645      422.945        0.170        0.121       25.918       15.159        0.342      348.093       27.538      864.297
10/05/2014  16:54:00       16.224       58.652      -13.281       28.723       30.099       17.946      824.992      905.975      322.069        0.297        0.103       60.854       14.322        0.055      347.865       27.143      864.302
10/05/2014  16:55:00       -2.081       37.655       -1.783       22.937       22.413       15.224      526.110      502.356      231.782        0.134        0.063       37.712       10.420        0.076      347.943       27.279      864.301
10/05/2014  16:56:00       35.722       16.258        5.883       21.749       19.931       13.896      473.015      397.242      193.086        0.132        0.053       39.248        9.913        0.064      347.870       27.153      864.303
10/05/2014  16:57:00       -3.449        7.978       21.850       16.695       16.292       13.670      278.739      265.439      186.867        0.064        0.037        8.691        6.701        0.594      348.150       27.638      864.305
10/05/2014  16:58:00       15.200      -11.701       18.402       22.088       34.873       20.184      487.888     1216.113      407.401        0.141        0.106       19.182       10.251        0.286      347.972       27.328      864.307
10/05/2014  16:59:00       27.427     -101.759      -10.717       28.117       33.042       22.898      790.592     1091.755      524.301        0.681        0.120      105.390       17.012        0.026      347.910       27.221      864.309
10/05/2014  17:00:00       28.777      -85.129       -1.844       44.304       57.837       32.125     1962.870     3345.082     1032.022        0.721        0.317       89.862       33.102        0.136      348.018       27.408      864.293
10/05/2014  17:01:00       59.852     -147.308      -11.764       42.228       35.037       27.276     1783.227     1227.575      743.981        1.459        0.188      159.003       18.230        0.013      347.845       27.111      864.275
10/05/2014  17:02:00       39.685     -141.001      -10.277       66.093       48.350       32.872     4368.349     2337.695     1080.552        1.467        0.389      146.480       22.873        0.024      347.874       27.158      864.258
10/05/2014  17:03:00       58.052      -37.933       32.308       56.351       43.220       40.587     3175.400     1867.938     1647.271        0.627        0.335       69.346       31.259        0.203      347.802       27.035      864.257
10/05/2014  17:04:00       83.306       30.763       30.785       57.359       50.001       35.362     3290.107     2500.089     1250.493        0.794        0.352       88.805       31.260        0.124      347.655       26.781      864.254
10/05/2014  17:05:00      136.456       81.492        8.109       45.003       45.892       32.532     2025.236     2106.108     1058.321        1.526        0.259      158.938       15.217        0.009      347.880       27.169      864.262
10/05/2014  17:06:00      119.716       77.058       39.771       79.541       45.205       37.336     6326.840     2043.470     1393.963        1.581        0.488      142.372       40.254        0.080      347.922       27.241      864.268
10/05/2014  17:07:00      135.472       82.148       29.546       44.580       40.148       30.755     1987.399     1611.855      945.865        1.526        0.227      158.433       23.406        0.022      347.838       27.098      864.266
10/05/2014  17:08:00      126.784       43.580        9.243       57.647       47.557       31.789     3323.173     2261.704     1010.560        1.233        0.330      134.065       17.187        0.016      347.849       27.115      864.267
10/05/2014  17:09:00      168.662      103.679       26.962       52.790       38.472       40.962     2786.805     1480.106     1677.917        2.293        0.297      197.980       15.804        0.006      347.870       27.150      864.273
10/05/2014  17:10:00      131.858       62.362       27.973       61.313       47.575       55.553     3759.328     2263.355     3086.136        1.558        0.455      145.862       26.916        0.034      347.863       27.140      864.281
10/05/2014  17:11:00      108.849       57.699       13.460       69.381       82.503       37.595     4813.674     6806.771     1413.352        1.419        0.652      123.196       35.157        0.081      347.787       27.011      864.283
10/05/2014  17:12:00       63.986       51.096       44.603       55.615       50.961       33.151     3092.976     2597.063     1098.996        0.774        0.339       81.884       21.828        0.071      347.847       27.112      864.269
10/05/2014  17:13:00      199.571      115.117       40.182       89.935       74.080       51.517     8088.292     5487.804     2654.021        3.546        0.812      230.392       30.197        0.017      347.868       27.147      864.256
10/05/2014  17:14:00      204.424      131.483       28.337       79.545       64.408       55.877     6327.474     4148.362     3122.275        3.674        0.680      243.057       35.693        0.022      347.793       27.017      864.266
10/05/2014  17:15:00      123.147      122.969        1.366       75.698       56.408       48.655     5730.237     3181.849     2367.334        2.078        0.564      174.031       35.400        0.041      347.807       27.041      864.260
10/05/2014  17:16:00      149.540      119.481       18.010       84.025       69.484       51.248     7060.218     4828.033     2626.375        2.574        0.726      191.410       33.282        0.030      347.810       27.045      864.253
10/05/2014  17:17:00      137.638       69.391       46.829       58.549       66.860       41.836     3428.014     4470.203     1750.284        1.780        0.482      154.141       29.146        0.036      347.821       27.067      864.262
10/05/2014  17:18:00       51.094       73.896       82.678       62.100       62.496       48.029     3856.357     3905.791     2306.760        1.249        0.503       89.840       48.820        0.295      347.591       26.670      864.266
10/05/2014  17:19:00      178.936      119.456       59.613      117.353       73.454       57.019    13771.764     5395.562     3251.220        3.613        1.121      215.146       45.894        0.046      347.663       26.793      864.276
10/05/2014  17:20:00      187.811      125.139       36.839      114.683       93.431       62.218    13152.210     8729.328     3871.036        3.902        1.288      225.683       20.669        0.008      347.618       26.715      864.275
10/05/2014  17:21:00      189.531      115.624       18.778       95.874       70.566       54.861     9191.846     4979.596     3009.761        3.341        0.859      222.016       43.063        0.038      347.627       26.731      864.267
10/05/2014  17:22:00      220.303      147.979       26.217      113.904       94.221       63.171    12974.201     8877.629     3990.615        4.848        1.292      265.389       31.263        0.014      347.670       26.804      864.270
10/05/2014  17:23:00       99.154      106.402       13.402       77.591       64.746       55.129     6020.396     4192.036     3039.213        1.729        0.663      145.440       33.912        0.054      347.691       26.843      864.261
10/05/2014  17:24:00       61.639      104.000      -20.638       60.189       73.338       47.342     3622.714     5378.504     2241.280        1.314        0.562      120.894       42.103        0.121      347.653       26.776      864.260
10/05/2014  17:25:00      141.957       87.448       21.191       69.930       53.029       41.988     4890.139     2812.057     1762.993        1.885        0.473      166.730       36.087        0.047      347.708       26.872      864.263
10/05/2014  17:26:00      127.878       74.815       29.289       44.800       49.795       37.651     2007.084     2479.522     1417.616        1.436        0.295      148.156       14.525        0.010      347.715       26.884      864.269
10/05/2014  17:27:00      164.896       73.322       35.090       83.162       72.678       48.178     6915.864     5282.078     2321.159        2.416        0.726      180.463       33.512        0.034      347.651       26.772      864.272
10/05/2014  17:28:00      194.661      115.532       30.795      109.939       62.234       51.398    12086.554     3873.044     2641.765        3.539        0.930      226.364       51.299        0.051      347.586       26.659      864.267
10/05/2014  17:29:00      262.718      145.882       56.083       71.215       72.847       54.845     5071.523     5306.632     3007.990        5.341        0.669      300.503       30.987        0.011      347.590       26.666      864.271
10/05/2014  17:30:00      203.879      138.888       30.112      113.699       71.418       61.289    12927.376     5100.516     3756.332        4.177        1.089      246.691       40.373        0.027      347.579       26.648      864.284
10/05/2014  17:31:00      221.116      142.509       24.187      101.149       89.991       67.483    10231.154     8098.320     4553.973        4.633        1.144      263.061       38.958        0.022      347.555       26.606      864.288
10/05/2014  17:32:00      202.576      101.580       19.627       85.512       62.288       59.667     7312.220     3879.839     3560.171        3.324        0.738      226.618       32.311        0.020      347.538       26.577      864.292
10/05/2014  17:33:00      168.204      120.083       14.660       81.280       62.667       57.937     6606.461     3927.162     3356.673        2.841        0.695      206.670       30.909        0.022      347.515       26.538      864.300
10/05/2014  17:34:00      173.247      132.353       16.789       70.061       53.276       52.570     4908.586     2838.338     2763.557        2.916        0.526      218.019       27.251        0.016      347.542       26.582      864.302
10/05/2014  17:35:00      163.614       93.917       36.869       87.297       63.694       53.540     7620.829     4056.966     2866.512        2.574        0.727      188.653       27.943        0.022      347.525       26.554      864.297
10/05/2014  17:36:00      223.551      139.747       38.147      104.973       76.137       53.029    11019.266     5796.917     2812.083        4.529        0.981      263.637       23.228        0.008      347.491       26.496      864.293
10/05/2014  17:37:00      126.996       90.825       26.502       97.781       75.912       45.363     9561.074     5762.568     2057.816        2.123        0.869      156.131       27.508        0.031      347.478       26.474      864.279
10/05/2014  17:38:00      149.652      110.179       36.865       87.413       66.250       70.503     7641.051     4389.069     4970.723        2.644        0.850      185.836       41.135        0.049      347.435       26.400      864.272
10/05/2014  17:39:00      110.220       77.981       16.842       92.535       58.771       54.669     8562.805     3454.012     2988.718        1.676        0.750      135.017       40.387        0.089      347.462       26.447      864.257
10/05/2014  17:40:00      231.340      156.918       37.053       61.451       53.442       58.892     3776.174     2856.002     3468.262        4.481        0.505      279.538       29.281        0.011      347.491       26.493      864.259
10/05/2014  17:41:00      131.734       81.042       14.390       82.165       47.051       38.705     6751.018     2213.824     1498.071        1.729        0.523      154.666       20.851        0.018      347.454       26.435      864.250
10/05/2014  17:42:00      187.300       72.282       52.961      132.084       60.799       52.031    17446.171     3696.466     2707.187        3.348        1.192      200.764       63.629        0.100      347.448       26.421      864.240
10/05/2014  17:43:00      118.104       77.413       29.894       59.247       60.650       42.924     3510.193     3678.445     1842.441        1.493        0.452      141.214       28.362        0.040      347.389       26.322      864.238
10/05/2014  17:44:00      169.044       75.234       53.999       80.852       82.396       64.173     6537.107     6789.055     4118.144        2.730        0.872      185.030       46.374        0.063      347.335       26.225      864.225
10/05/2014  17:45:00      181.976      104.721       19.907       89.253       75.576       56.230     7966.152     5711.715     3161.836        3.066        0.842      209.956       27.455        0.017      347.329       26.216      864.220
10/05/2014  17:46:00      134.275       58.740       19.883       91.117       61.883       42.540     8302.339     3829.468     1809.687        1.791        0.697      146.561       39.083        0.071      347.297       26.163      864.218
10/05/2014  17:47:00      185.474       92.790       48.503       63.523       51.479       46.871     4035.112     2650.082     2196.916        2.712        0.444      207.390       38.759        0.035      347.328       26.213      864.214
10/05/2014  17:48:00      178.917      123.112       80.930      117.016      101.228       68.690    13692.757    10247.103     4718.314        4.118        1.433      217.182       47.986        0.049      347.291       26.152      864.205
10/05/2014  17:49:00      169.580      105.322       71.186       66.352       69.285       57.290     4402.567     4800.359     3282.166        2.870        0.624      199.625       30.954        0.024      347.264       26.104      864.212
10/05/2014  17:50:00      224.714      121.994       51.860       88.753       63.740       55.122     7877.160     4062.822     3038.397        4.152        0.749      255.693       29.692        0.013      347.267       26.109      864.215
10/05/2014  17:51:00      160.992      111.803       27.154       76.469       55.890       48.463     5847.492     3123.728     2348.680        2.524        0.566      196.006       33.664        0.029      347.274       26.121      864.223
10/05/2014  17:52:00      150.940       85.730       61.442      112.572       64.822       61.480    12672.452     4201.857     3779.815        2.728        1.033      173.587       66.902        0.149      347.166       25.936      864.216
10/05/2014  17:53:00       98.403       87.117       45.379       72.841       46.068       42.171     5305.791     2122.280     1778.428        1.427        0.460      131.425       26.568        0.041      347.231       26.050      864.217
10/05/2014  17:54:00      107.064       55.158       36.184       84.366       65.607       40.587     7117.550     4304.232     1647.286        1.444        0.653      120.437       26.853        0.050      347.230       26.047      864.214
10/05/2014  17:55:00      118.412       50.755       15.430       55.468       38.262       32.498     3076.712     1464.009     1056.118        1.122        0.280      128.831       23.448        0.033      347.200       25.996      864.206
10/05/2014  17:56:00      140.299       81.293       23.291       70.330       60.070       49.672     4946.339     3608.429     2467.266        1.893        0.551      162.149       41.837        0.067      347.167       25.940      864.207
10/05/2014  17:57:00      111.953       41.893       28.189       94.769       58.180       50.275     8981.237     3384.893     2527.623        1.499        0.745      119.534       32.791        0.075      347.188       25.974      864.205
10/05/2014  17:58:00      174.194       74.374       19.410       74.049       47.452       41.138     5483.215     2251.710     1692.300        2.284        0.471      189.407       19.985        0.011      347.142       25.895      864.211
10/05/2014  17:59:00      103.109       88.994       41.424       73.870       55.382       45.656     5456.748     3067.179     2084.455        1.544        0.530      136.204       37.357        0.075      347.088       25.804      864.222
10/05/2014  18:00:00       92.424       21.165       18.577       73.619       47.977       31.734     5419.699     2301.747     1007.060        0.903        0.436       94.817       27.341        0.083      346.973       25.605      864.226
10/05/2014  18:01:00      100.145       59.200       15.687       59.575       57.452       41.284     3549.201     3300.737     1704.381        1.117        0.428      116.335       39.431        0.115      346.994       25.641      864.225
10/05/2014  18:02:00      119.034       79.740       52.910       68.477       54.099       51.263     4689.147     2926.706     2627.861        1.678        0.512      143.275       46.465        0.105      346.973       25.604      864.222
10/05/2014  18:03:00      134.720       56.659       16.819       67.988       53.931       40.319     4622.390     2908.500     1625.639        1.540        0.458      146.150       32.550        0.050      346.946       25.558      864.209
10/05/2014  18:04:00      144.416       58.551       40.038       74.687       74.581       44.159     5578.098     5562.253     1950.019        1.949        0.655      155.834       39.421        0.064      346.943       25.552      864.200
10/05/2014  18:05:00      166.094       96.652       31.954       54.500       47.759       44.940     2970.226     2280.930     2019.576        2.261        0.364      192.168       36.729        0.037      346.947       25.559      864.195
10/05/2014  18:06:00       78.874       42.774       36.893       66.250       53.589       35.516     4389.098     2871.753     1261.360        0.897        0.426       89.725       27.095        0.091      346.931       25.533      864.185
10/05/2014  18:07:00      104.390       43.639       16.737       48.336       32.547       28.770     2336.364     1059.300      827.709        0.865        0.211      113.144       20.454        0.033      346.958       25.580      864.191
10/05/2014  18:08:00       44.670       18.893        8.812       28.186       29.998       16.895      794.459      899.883      285.428        0.220        0.099       48.501        8.757        0.033      346.864       25.418      864.191
10/05/2014  18:09:00       32.614       32.409       17.128       52.151       28.735       27.245     2719.685      825.696      742.287        0.335        0.214       45.978       27.551        0.359      346.826       25.354      864.184
10/05/2014  18:10:00       93.592       47.192       15.734       42.745       36.541       22.163     1827.150     1335.211      491.179        0.744        0.183      104.816       11.515        0.012      346.860       25.410      864.183
10/05/2014  18:11:00       91.318       44.506        2.508       23.138       21.243       23.415      535.380      451.245      548.261        0.593        0.077      101.586       17.622        0.030      346.855       25.403      864.183
10/05/2014  18:12:00       78.948       52.017       18.252       17.953       16.512       14.445      322.306      272.653      208.667        0.504        0.040       94.544        7.050        0.006      346.790       25.291      864.190
10/05/2014  18:13:00      104.496       55.864       10.894       38.214       35.369       31.337     1460.284     1250.956      981.980        0.893        0.185      118.491       19.813        0.028      346.825       25.351      864.206
10/05/2014  18:14:00       91.240       52.266       14.816       36.756       27.121       23.976     1350.977      735.547      574.869        0.697        0.133      105.150       10.682        0.010      346.741       25.206      864.216
10/05/2014  18:15:00       86.221       50.276       16.731       41.612       26.296       28.439     1731.582      691.506      808.764        0.674        0.162       99.809       20.969        0.044      346.686       25.113      864.221
10/05/2014  18:16:00      110.034       63.065       21.210       41.957       30.509       22.532     1760.408      930.809      507.687        0.987        0.160      126.825       13.125        0.011      346.776       25.267      864.223
10/05/2014  18:17:00       75.555       14.649        5.657       45.970       27.726       26.168     2113.216      768.726      684.759        0.476        0.178       76.962       26.415        0.118      346.630       25.016      864.229
10/05/2014  18:18:00       75.266       19.012       13.201       47.960       39.607       29.495     2300.177     1568.747      869.976        0.547        0.237       77.630       11.144        0.021      346.542       24.863      864.238
10/05/2014  18:19:00       95.301       26.386        8.964       37.091       35.925       27.400     1375.726     1290.587      750.786        0.664        0.171       98.886       16.460        0.028      346.611       24.984      864.254
10/05/2014  18:20:00       47.179       25.599       17.465       48.842       33.090       23.223     2385.495     1094.977      539.309        0.360        0.201       53.676       15.393        0.082      346.525       24.835      864.253
10/05/2014  18:21:00       58.453       36.337       13.317       47.231       31.464       26.080     2230.809      989.973      680.168        0.441        0.195       68.827       12.935        0.035      346.622       25.001      864.251
10/05/2014  18:22:00      101.827       60.281       21.595       39.514       24.808       26.345     1561.347      615.450      694.035        0.867        0.144      118.332       15.899        0.018      346.599       24.963      864.259
10/05/2014  18:23:00       75.452       45.889       13.801       22.226       14.766       16.786      494.013      218.038      281.778        0.449        0.050       88.311        8.324        0.009      346.528       24.841      864.280
10/05/2014  18:24:00       74.652       47.097       14.234       36.479       22.557       17.311     1330.719      508.840      299.685        0.507        0.107       88.267       16.005        0.033      346.578       24.926      864.287
10/05/2014  18:25:00       43.618       46.888       11.203       36.173       25.914       21.362     1308.457      671.540      456.349        0.333        0.122       64.040       13.578        0.045      346.520       24.826      864.290
10/05/2014  18:26:00       78.640       60.094        7.370       38.343       32.266       30.632     1470.190     1041.096      938.333        0.665        0.172       98.973       22.387        0.051      346.518       24.824      864.287
10/05/2014  18:27:00       78.706       59.943       14.543       38.145       26.147       23.083     1455.054      683.643      532.817        0.633        0.134       98.933       17.035        0.030      346.523       24.831      864.298
10/05/2014  18:28:00       69.299       53.421       11.085       38.250       27.791       19.432     1463.099      772.332      377.606        0.520        0.131       87.499       14.767        0.028      346.442       24.693      864.301
10/05/2014  18:29:00       86.787       53.830       18.824       23.145       21.124       23.404      535.708      446.215      547.762        0.616        0.076      102.126       11.613        0.013      346.450       24.708      864.307
10/05/2014  18:30:00       98.450       73.086       19.861       27.358       17.051       17.841      748.475      290.737      318.300        0.839        0.068      122.613        8.355        0.005      346.463       24.728      864.309
10/05/2014  18:31:00       88.437       69.988       24.389       25.165       27.161       24.953      633.258      737.716      622.658        0.765        0.100      112.780       11.371        0.010      346.422       24.658      864.317
10/05/2014  18:32:00       60.708       49.452        6.588       22.213       20.392       18.907      493.411      415.844      357.474        0.372        0.063       78.300       14.485        0.034      346.376       24.579      864.325
10/05/2014  18:33:00       52.712       44.942        8.933       22.962       15.505       17.016      527.237      240.415      289.530        0.297        0.053       69.270       11.402        0.027      346.317       24.479      864.322
10/05/2014  18:34:00       55.471       38.731        1.868       20.983       16.917       13.847      440.288      286.173      191.753        0.275        0.046       67.655        8.883        0.017      346.259       24.378      864.322
10/05/2014  18:35:00       21.925       30.345        2.981       20.840       20.883       15.486      434.297      436.117      239.804        0.126        0.056       37.437       10.637        0.081      346.180       24.242      864.341
10/05/2014  18:36:00       37.753       50.494        3.033       34.037       37.935       25.560     1158.509     1439.054      653.294        0.362        0.163       63.047       24.244        0.148      346.284       24.420      864.337
10/05/2014  18:37:00       13.622       35.920        7.243       22.648       29.230       17.094      512.915      854.406      292.221        0.159        0.083       38.416       14.463        0.142      346.188       24.256      864.338
10/05/2014  18:38:00       21.108       45.073       -5.725       24.051       26.111       17.119      578.460      681.808      293.076        0.203        0.078       49.771       16.928        0.116      346.217       24.307      864.349
10/05/2014  18:39:00       25.322       33.900        2.594       16.440       22.039       19.226      270.288      485.735      369.650        0.146        0.056       42.313       12.718        0.090      346.180       24.242      864.350
10/05/2014  18:40:00       30.360       48.780       -2.954       20.520       24.525       14.843      421.089      601.477      220.329        0.228        0.062       57.456       13.977        0.059      346.215       24.301      864.344
10/05/2014  18:41:00       22.573       41.800       -4.298       19.276       18.668       14.849      371.551      348.512      220.498        0.161        0.047       47.506       11.995        0.064      346.237       24.339      864.357
10/05/2014  18:42:00       25.237       34.005       -5.757       15.664       17.465        8.364      245.372      305.035       69.957        0.122        0.031       42.347        6.480        0.023      346.282       24.417      864.354
10/05/2014  18:43:00       40.443       33.445        0.763       14.093       12.267        9.926      198.606      150.480       98.529        0.160        0.022       52.480        6.462        0.015      346.305       24.455      864.357
10/05/2014  18:44:00       34.061       37.338        0.711       14.331       12.625       11.069      205.389      159.399      122.526        0.152        0.024       50.540        7.924        0.025      346.257       24.375      864.364
10/05/2014  18:45:00       27.689       37.126        0.666       20.114       19.519       12.238      404.566      381.005      149.767        0.154        0.047       46.314       11.259        0.059      346.279       24.411      864.362
10/05/2014  18:46:00       17.699       54.878       -8.062       16.366       25.001       13.600      267.842      625.055      184.947        0.223        0.054       57.661       14.696        0.065      346.275       24.405      864.376
10/05/2014  18:47:00       26.514       66.568       -8.927       21.141       26.259       15.985      446.932      689.530      255.527        0.330        0.070       71.654       14.362        0.040      346.217       24.305      864.378
10/05/2014  18:48:00       24.533       64.730       -6.233       21.025       31.074       14.662      442.058      965.601      214.982        0.323        0.081       69.223       14.372        0.043      346.159       24.204      864.372
10/05/2014  18:49:00        6.990       68.220       -7.415       15.432       23.953       14.553      238.146      573.723      211.781        0.289        0.051       68.577       15.246        0.049      346.138       24.171      864.381
10/05/2014  18:50:00       -8.800       94.349      -14.812       16.173       11.275        8.155      261.560      127.117       66.500        0.483        0.023       94.759        5.789        0.004      346.253       24.369      864.373
10/05/2014  18:51:00      -22.594       83.771      -12.074       15.865       14.284        9.479      251.702      204.028       89.860        0.411        0.027       86.765        5.746        0.004      346.183       24.248      864.383
10/05/2014  18:52:00      -17.139       70.205      -11.613       24.070       20.510       11.188      579.364      420.668      125.164        0.324        0.056       72.267       11.183        0.024      346.112       24.125      864.385
10/05/2014  18:53:00      -20.064       77.662      -11.795       15.866       13.325        8.544      251.746      177.546       73.004        0.354        0.025       80.211        5.552        0.005      346.129       24.154      864.402
10/05/2014  18:54:00      -13.135       57.383      -11.193       17.627       15.746        8.899      310.718      247.943       79.190        0.211        0.032       58.867        8.199        0.019      346.131       24.158      864.413
10/05/2014  18:55:00      -30.526       19.244       -9.482       16.194       28.269        9.600      262.257      799.113       92.161        0.127        0.058       36.086       10.472        0.084      345.922       23.799      864.421
10/05/2014  18:56:00      -28.215       34.595       -9.051       18.039       23.112       10.801      325.413      534.188      116.658        0.153        0.049       44.642       10.831        0.059      345.923       23.801      864.434
10/05/2014  18:57:00      -43.281       -8.679       -9.780       19.518       15.356       13.444      380.964      235.816      180.732        0.142        0.040       44.142       11.276        0.065      345.553       23.165      864.446
10/05/2014  18:58:00      -61.921       -9.780      -12.127       14.480       19.433       11.054      209.667      377.649      122.188        0.239        0.035       62.688        5.162        0.007      345.269       22.678      864.449
10/05/2014  18:59:00      -72.455      -15.121      -10.284       21.308       16.362       15.890      454.048      267.720      252.481        0.328        0.049       74.016       12.628        0.029      345.203       22.566      864.453
10/05/2014  19:00:00      -90.281      -16.438      -12.508       29.743       23.665       15.251      884.654      560.055      232.585        0.513        0.084       91.766       15.131        0.027      345.108       22.402      864.459
10/05/2014  19:01:00     -105.621        1.055      -18.801       26.896       20.137       15.729      723.391      405.514      247.410        0.644        0.069      105.627        9.297        0.008      345.073       22.343      864.470
10/05/2014  19:02:00     -118.303        3.908      -22.009       24.508       17.246       15.695      600.642      297.428      246.340        0.782        0.057      118.367       11.069        0.009      345.018       22.250      864.478
10/05/2014  19:03:00      -91.141       -3.189      -16.724       31.254       20.595       17.166      976.841      424.159      294.673        0.515        0.085       91.197       16.970        0.035      344.943       22.120      864.492
10/05/2014  19:04:00      -92.191       -2.162      -18.979       37.163       25.917       22.793     1381.110      671.700      519.525        0.572        0.129       92.216       24.133        0.068      344.933       22.105      864.491
10/05/2014  19:05:00      -87.324        0.299      -11.779       36.387       21.221       20.357     1324.035      450.339      414.409        0.498        0.109       87.325       20.088        0.053      344.948       22.130      864.504
10/05/2014  19:06:00      -80.193       -3.973      -20.609       32.722       20.485       12.653     1070.742      419.615      160.102        0.426        0.083       80.291       14.473        0.032      344.786       21.852      864.508
10/05/2014  19:07:00      -97.756        2.759      -14.833       30.600       23.946       19.194      936.353      573.407      368.400        0.583        0.094       97.795       14.445        0.022      344.719       21.738      864.521
10/05/2014  19:08:00      -61.302       -0.260       -9.262       34.865       23.930       18.930     1215.546      572.651      358.338        0.299        0.107       61.303       17.944        0.086      344.621       21.570      864.531
10/05/2014  19:09:00      -73.150      -11.689       -9.234       23.222       28.045       19.698      539.243      786.505      388.020        0.364        0.086       74.078       14.267        0.037      344.672       21.658      864.545
10/05/2014  19:10:00      -66.392       -8.718       -9.888       25.363       20.806       19.824      643.264      432.894      393.004        0.303        0.073       66.962       14.476        0.047      344.502       21.366      864.555
10/05/2014  19:11:00      -79.618      -22.802      -12.148       23.123       20.369       15.036      534.660      414.912      226.085        0.409        0.059       82.819       10.121        0.015      344.455       21.285      864.557
10/05/2014  19:12:00     -104.174      -12.035      -21.106       22.485       17.314       15.069      505.564      299.786      227.068        0.624        0.052      104.867       10.065        0.009      344.415       21.218      864.569
10/05/2014  19:13:00      -80.128       -7.199      -15.574       21.430       27.426       13.759      459.243      752.159      189.317        0.406        0.070       80.451        8.632        0.012      344.380       21.159      864.577
10/05/2014  19:14:00      -77.759      -27.016      -21.647       25.156       21.429       14.715      632.802      459.188      216.527        0.428        0.065       82.319        7.335        0.008      344.376       21.151      864.575
10/05/2014  19:15:00      -74.567       -9.971      -13.227       17.238       22.872       17.708      297.159      523.147      313.587        0.348        0.057       75.231       14.235        0.036      344.412       21.212      864.584
10/05/2014  19:16:00      -63.655       -4.154       -7.619       23.591       28.187       14.066      556.550      794.486      197.863        0.284        0.077       63.790        9.322        0.021      344.493       21.352      864.588
10/05/2014  19:17:00      -84.647       27.426      -10.148       31.983       49.218       20.684     1022.891     2422.372      427.829        0.595        0.194       88.979       20.163        0.051      344.850       21.962      864.592
10/05/2014  19:18:00      -83.363       81.235      -22.812       28.604       34.086       17.021      818.171     1161.879      289.718        0.817        0.113      116.398       13.056        0.013      345.105       22.397      864.598
10/05/2014  19:19:00      -65.982      108.024      -21.499       28.770       23.072       17.719      827.709      532.313      313.964        0.908        0.084      126.581       11.843        0.009      345.238       22.625      864.612
10/05/2014  19:20:00      -58.664       85.607      -14.119       27.668       43.339       20.820      765.518     1878.241      433.464        0.702        0.154      103.778       14.133        0.019      345.119       22.423      864.620
10/05/2014  19:21:00      -78.458       80.410      -18.552       27.116       32.310       17.908      735.251     1043.938      320.709        0.753        0.105      112.345       14.929        0.018      345.136       22.450      864.628
10/05/2014  19:22:00      -79.310       92.417      -20.623       29.093       37.773       26.953      846.401     1426.834      726.479        0.913        0.150      121.783       24.938        0.042      345.275       22.689      864.632
10/05/2014  19:23:00      -78.900       68.720      -17.107       23.022       26.420       17.589      530.029      698.027      309.359        0.639        0.077      104.631       11.540        0.012      345.186       22.537      864.645
10/05/2014  19:24:00      -67.113       69.259      -20.496       25.706       30.737       14.054      660.808      944.781      197.510        0.576        0.090       96.442       11.692        0.015      345.251       22.648      864.648
10/05/2014  19:25:00      -73.306       62.739      -14.609       32.849       40.219       21.319     1079.072     1617.548      454.501        0.634        0.158       96.489       21.943        0.052      345.184       22.534      864.655
10/05/2014  19:26:00      -97.763       74.969      -19.349       31.028       37.510       21.207      962.708     1407.023      449.744        0.919        0.141      123.199       23.033        0.035      345.259       22.661      864.671
10/05/2014  19:27:00      -95.231       62.341      -20.906       31.166       47.143       23.534      971.303     2222.504      553.831        0.857        0.187      113.821       23.531        0.043      345.305       22.740      864.680
10/05/2014  19:28:00      -70.407       61.093      -14.532       32.383       41.433       18.068     1048.663     1716.701      326.464        0.600        0.155       93.217       21.519        0.053      345.159       22.490      864.692
10/05/2014  19:29:00      -68.538       41.487      -15.164       22.134       28.348       11.842      489.892      803.637      140.225        0.404        0.072       80.117        7.812        0.010      345.067       22.332      864.712
10/05/2014  19:30:00      -84.105       51.951      -11.391       30.434       26.693       21.047      926.223      712.536      442.980        0.599        0.104       98.856       17.110        0.030      345.026       22.264      864.717
10/05/2014  19:31:00      -73.041       52.962      -17.767       20.020       42.824       16.415      400.819     1833.930      269.452        0.548        0.125       90.222       21.652        0.058      345.079       22.354      864.727
10/05/2014  19:32:00      -55.999       15.350      -11.092       20.595       20.262       12.779      424.173      410.555      163.291        0.225        0.050       58.065        9.824        0.029      344.878       22.008      864.729
10/05/2014  19:33:00      -56.809       -3.726      -12.144       14.622       13.418       11.234      213.811      180.030      126.209        0.195        0.026       56.931        7.495        0.017      344.688       21.685      864.733
10/05/2014  19:34:00      -60.303       30.284      -15.903       19.836       25.404       12.198      393.464      645.348      148.791        0.300        0.059       67.480        8.767        0.017      345.121       22.425      864.739
10/05/2014  19:35:00      -58.143       36.552      -12.449       27.054       32.607       11.514      731.918     1063.236      132.577        0.340        0.096       68.678       13.532        0.039      345.038       22.283      864.743
10/05/2014  19:36:00      -74.383       20.328      -15.730       17.545       22.182       11.921      307.819      492.025      142.118        0.357        0.047       77.111        8.220        0.011      344.683       21.677      864.752
10/05/2014  19:37:00      -75.362       16.409      -15.727       18.232       20.631       12.593      332.395      425.653      158.583        0.356        0.046       77.128        5.500        0.005      344.508       21.376      864.757
10/05/2014  19:38:00      -93.477        9.516      -15.973       18.063       15.938       12.378      326.267      254.013      153.215        0.491        0.037       93.961        6.985        0.006      344.470       21.311      864.760
10/05/2014  19:39:00     -100.571        5.091      -13.549       23.018       20.479       10.978      529.819      419.401      120.521        0.570        0.053      100.699        8.281        0.007      344.252       20.940      864.767
10/05/2014  19:40:00      -73.034       -2.637      -12.412       21.821       17.086       16.121      476.176      291.937      259.882        0.326        0.051       73.082       13.598        0.035      344.283       20.991      864.767
10/05/2014  19:41:00      -90.502        8.790      -14.986       13.918       15.050       11.006      193.714      226.497      121.136        0.452        0.027       90.928        7.068        0.006      344.152       20.768      864.769
10/05/2014  19:42:00      -86.572        4.830      -12.759       24.282       22.755       15.379      589.623      517.789      236.512        0.451        0.067       86.707        8.232        0.009      344.450       21.277      864.774
10/05/2014  19:43:00      -56.825        4.838       -6.324       28.615       21.442       17.819      818.812      459.775      317.517        0.244        0.080       57.030       16.254        0.081      344.456       21.287      864.776
10/05/2014  19:44:00      -94.860       67.137      -15.167       35.095       39.958       23.428     1231.674     1596.667      548.851        0.856        0.169      116.215       17.444        0.023      344.788       21.856      864.769
10/05/2014  19:45:00      -83.416      104.223      -20.688       31.419       56.858       25.198      987.175     3232.805      634.955        1.155        0.243      133.493       29.266        0.048      344.957       22.143      864.769
10/05/2014  19:46:00     -103.570       93.447      -24.718       37.228       52.724       28.140     1385.920     2779.789      791.878        1.251        0.248      139.496       28.165        0.041      344.849       21.959      864.776
10/05/2014  19:47:00     -122.225      119.906      -28.690       38.926       44.953       26.878     1515.258     2020.804      722.436        1.720        0.213      171.221       21.680        0.016      344.981       22.186      864.767
10/05/2014  19:48:00     -109.016      124.890      -28.130       36.899       51.471       29.522     1361.563     2649.268      871.554        1.658        0.244      165.777       27.919        0.028      345.009       22.233      864.766
10/05/2014  19:49:00      -82.562       99.038      -20.976       34.673       39.625       22.133     1202.207     1570.166      489.887        1.016        0.163      128.938       22.028        0.029      344.969       22.165      864.763
10/05/2014  19:50:00      -94.445       92.277      -17.071       42.110       57.100       33.327     1773.269     3260.401     1110.681        1.193        0.307      132.042       31.192        0.056      344.920       22.082      864.755
10/05/2014  19:51:00      -87.399      105.745      -26.239       40.596       35.069       22.148     1648.063     1229.857      490.541        1.144        0.168      137.189       18.584        0.018      344.945       22.123      864.752
10/05/2014  19:52:00     -101.857       97.094      -20.536       39.062       36.314       24.021     1525.857     1318.687      577.013        1.182        0.171      140.720       23.274        0.027      344.950       22.133      864.748
10/05/2014  19:53:00      -70.394      114.430      -23.248       40.972       54.326       27.598     1678.701     2951.275      761.659        1.199        0.270      134.349       11.133        0.007      344.911       22.065      864.755
10/05/2014  19:54:00      -66.173       84.054      -13.891       32.117       29.736       21.682     1031.489      884.227      470.109        0.701        0.119      106.977       17.197        0.026      344.824       21.917      864.757
10/05/2014  19:55:00      -63.043       54.729      -16.921       24.209       26.127       10.005      586.079      682.600      100.091        0.431        0.068       83.484        8.358        0.010      344.749       21.788      864.761
10/05/2014  19:56:00      -68.199       52.761      -12.877       26.654       36.223       16.330      710.418     1312.139      266.681        0.494        0.114       86.226       17.478        0.041      344.709       21.720      864.754
10/05/2014  19:57:00      -94.137       76.674      -19.714       32.620       36.681       16.332     1064.053     1345.512      266.726        0.890        0.134      121.411       15.827        0.017      344.824       21.916      864.758
10/05/2014  19:58:00      -67.602       88.232      -20.701       24.162       41.407       19.666      583.810     1714.567      386.765        0.773        0.134      111.152       14.769        0.018      344.897       22.040      864.755
10/05/2014  19:59:00     -109.804       77.977      -20.912       30.630       34.333       24.066      938.225     1178.777      579.188        1.063        0.135      134.675       24.308        0.033      344.797       21.871      864.760
10/05/2014  20:00:00      -98.084       81.032      -20.836       32.970       28.746       23.931     1087.038      826.304      572.711        0.955        0.124      127.227       15.799        0.015      344.867       21.991      864.760
10/05/2014  20:01:00      -84.682      101.200      -19.790       30.109       35.492       19.567      906.540     1259.663      382.870        1.018        0.127      131.957       15.910        0.015      344.842       21.947      864.770
10/05/2014  20:02:00      -81.437       37.758      -10.690       27.711       24.887       20.691      767.924      619.351      428.131        0.499        0.091       89.765       18.171        0.041      344.726       21.750      864.789
10/05/2014  20:03:00      -65.921       39.488       -8.480       31.004       26.110       16.851      961.227      681.751      283.966        0.395        0.096       76.843       13.667        0.032      344.673       21.659      864.794
10/05/2014  20:04:00      -75.987       49.370      -11.630       26.755       35.348       18.466      715.835     1249.483      341.009        0.533        0.115       90.617       20.162        0.050      344.636       21.594      864.816
10/05/2014  20:05:00      -82.823       67.492      -19.354       33.483       27.802       18.850     1121.103      772.939      355.307        0.702        0.112      106.840       18.117        0.029      344.599       21.532      864.827
10/05/2014  20:06:00      -77.792       47.485      -15.418       25.943       25.892       15.621      673.028      670.377      244.003        0.507        0.079       91.139       12.071        0.018      344.501       21.365      864.849
10/05/2014  20:07:00      -70.744       30.965      -10.466       20.699       28.775       17.638      428.438      827.977      311.106        0.382        0.078       77.224        8.066        0.011      344.376       21.151      864.853
10/05/2014  20:08:00      -92.391       43.705      -16.472       29.057       31.619       19.640      844.311      999.791      385.724        0.647        0.111      102.207       14.593        0.020      344.411       21.211      864.863
10/05/2014  20:09:00      -81.604       26.147       -8.954       25.856       25.449       18.417      668.520      647.661      339.183        0.454        0.083       85.691       11.178        0.017      344.483       21.334      864.872
10/05/2014  20:10:00      -90.941       62.653      -15.057       25.239       34.807       23.458      637.013     1211.559      550.297        0.741        0.120      110.434       14.764        0.018      344.579       21.498      864.891
10/05/2014  20:11:00      -86.951       49.388       -9.953       29.109       39.262       19.570      847.335     1541.505      382.972        0.643        0.139       99.999       13.859        0.019      344.551       21.450      864.900
10/05/2014  20:12:00      -78.399        9.173      -14.627       24.674       31.347       15.287      608.795      982.650      233.684        0.413        0.091       78.934       11.739        0.022      344.370       21.143      864.908
10/05/2014  20:13:00     -105.142       66.253      -19.790       34.099       36.600       26.199     1162.710     1339.581      686.363        0.951        0.159      124.275       26.303        0.045      344.510       21.379      864.919
10/05/2014  20:14:00      -70.467       43.534      -12.393       26.739       18.411       15.526      714.948      338.983      241.045        0.415        0.065       82.830        6.403        0.006      344.443       21.266      864.924
10/05/2014  20:15:00     -100.876       36.077      -12.763       33.038       29.688       18.863     1091.522      881.403      355.822        0.698        0.116      107.133       14.334        0.018      344.474       21.317      864.937
10/05/2014  20:16:00      -98.516       38.793      -13.919       24.524       31.738       20.912      601.411     1007.307      437.325        0.672        0.102      105.878       10.095        0.009      344.458       21.290      864.950
10/05/2014  20:17:00      -88.841       33.074      -12.540       31.799       38.008       24.253     1011.168     1444.623      588.222        0.609        0.152       94.798       21.606        0.052      344.363       21.131      864.971
10/05/2014  20:18:00      -76.066       39.006       -3.545       25.429       31.422       24.479      646.640      987.328      599.230        0.478        0.112       85.485       11.441        0.018      344.271       20.972      864.990
10/05/2014  20:19:00      -91.815       48.459      -16.807       29.574       49.976       21.217      874.606     2497.649      450.179        0.744        0.191      103.818       24.035        0.054      344.285       20.995      865.008
10/05/2014  20:20:00      -96.181       53.395      -15.667       29.323       38.451       20.970      859.818     1478.452      439.754        0.756        0.139      110.009       15.907        0.021      344.238       20.915      865.030
10/05/2014  20:21:00      -94.135       19.026      -13.979       19.082       23.021       15.662      364.124      529.961      245.287        0.528        0.057       96.039        8.401        0.008      343.930       20.389      865.044
10/05/2014  20:22:00     -105.247        7.810      -12.809       28.600       35.973       18.058      817.979     1294.055      326.084        0.687        0.122      105.536       16.520        0.025      344.078       20.641      865.070
10/05/2014  20:23:00      -81.082      -10.129      -10.106       29.118       24.773       14.788      847.862      613.681      218.671        0.423        0.084       81.712        8.836        0.012      343.832       20.221      865.075
10/05/2014  20:24:00     -110.514      -10.433       -9.207       37.298       40.242       20.473     1391.129     1619.433      419.155        0.792        0.171      111.005       19.638        0.031      343.754       20.088      865.091
10/05/2014  20:25:00      -79.626       -3.440       -5.839       48.142       33.259       22.412     2317.692     1106.168      502.278        0.516        0.196       79.700       21.546        0.073      343.830       20.220      865.101
10/05/2014  20:26:00      -90.611       16.280       -6.406       45.448       33.364       22.836     2065.485     1113.164      521.478        0.611        0.185       92.062       23.910        0.067      343.800       20.167      865.108
10/05/2014  20:27:00      -94.573       14.589       -7.856       43.637       34.743       23.771     1904.215     1207.072      565.074        0.645        0.184       95.692       21.921        0.052      343.880       20.304      865.124
10/05/2014  20:28:00     -112.905        4.671       -6.222       42.799       39.564       24.226     1831.783     1565.272      586.887        0.840        0.199      113.002       21.743        0.037      343.870       20.287      865.126
10/05/2014  20:29:00      -98.939      -11.377      -12.642       30.388       31.426       18.403      923.402      987.593      338.678        0.616        0.112       99.591       15.474        0.024      343.761       20.099      865.140
10/05/2014  20:30:00      -77.869       -2.506       -8.172       34.462       37.485       19.447     1187.612     1405.159      378.193        0.455        0.149       77.910       11.951        0.024      343.667       19.940      865.136
10/05/2014  20:31:00      -80.890      -11.168       -3.138       41.078       29.655       22.333     1687.368      879.423      498.751        0.487        0.153       81.657       13.210        0.026      343.629       19.875      865.131
10/05/2014  20:32:00      -65.220       -0.987       -5.834       56.644       31.221       21.752     3208.511      974.764      473.157        0.447        0.233       65.227       22.537        0.119      343.663       19.932      865.133
10/05/2014  20:33:00      -79.058        5.771       -5.111       48.335       33.144       21.145     2336.293     1098.549      447.132        0.510        0.194       79.269       21.273        0.072      343.611       19.844      865.130
10/05/2014  20:34:00     -111.790       -1.818      -14.093       29.569       29.791       17.444      874.318      887.488      304.291        0.738        0.103      111.805       15.631        0.020      343.716       20.022      865.131
10/05/2014  20:35:00      -65.337      -19.795       -4.709       36.233       29.371       15.417     1312.856      862.650      237.681        0.355        0.121       68.270       15.280        0.050      343.456       19.580      865.138
10/05/2014  20:36:00      -76.386       -8.604       -7.236       38.394       24.244       16.511     1474.117      587.749      272.615        0.415        0.117       76.869        9.701        0.016      343.358       19.413      865.140
10/05/2014  20:37:00      -96.011      -10.089       -1.646       37.432       32.413       26.441     1401.185     1050.613      699.102        0.624        0.158       96.540       21.987        0.052      343.459       19.586      865.145
10/05/2014  20:38:00     -120.864      -31.734      -11.524       42.021       37.183       23.477     1765.795     1382.606      551.159        0.972        0.185      124.961       14.846        0.014      343.418       19.517      865.140
10/05/2014  20:39:00     -113.511      -25.155       -9.850       47.587       42.263       23.124     2264.509     1786.150      534.741        0.910        0.229      116.265       18.623        0.026      343.360       19.417      865.141
10/05/2014  20:40:00      -91.873      -24.602       -9.035       31.930       29.482       17.855     1019.504      869.194      318.809        0.567        0.110       95.110        8.658        0.008      343.321       19.351      865.147
10/05/2014  20:41:00      -85.042      -33.759      -12.025       29.370       26.035       22.487      862.622      677.844      505.643        0.528        0.102       91.497       14.327        0.025      343.372       19.435      865.143
10/05/2014  20:42:00     -131.765      -31.672      -25.029       36.346       33.031       16.712     1321.013     1091.075      279.278        1.084        0.135      135.518       13.121        0.009      343.301       19.316      865.149
10/05/2014  20:43:00     -116.609      -29.102      -15.200       37.353       30.534       22.032     1395.238      932.298      485.409        0.874        0.141      120.186       16.743        0.019      343.277       19.275      865.143
10/05/2014  20:44:00     -147.563      -50.049      -25.770       27.336       32.483       18.702      747.251     1055.158      349.762        1.355        0.108      155.820       13.348        0.007      343.261       19.248      865.148
10/05/2014  20:45:00     -114.406      -41.675       -5.443       36.421       38.758       21.856     1326.502     1502.188      477.688        0.908        0.165      121.760       21.860        0.032      343.203       19.149      865.145
10/05/2014  20:46:00     -120.822      -43.493      -11.650       31.023       25.976       19.219      962.398      674.746      369.359        0.932        0.100      128.412       15.779        0.015      343.164       19.083      865.154
10/05/2014  20:47:00     -129.837      -53.276       -9.848       17.905       25.940       16.330      320.590      672.860      266.669        1.053        0.063      140.342       10.369        0.005      343.150       19.059      865.160
10/05/2014  20:48:00     -131.304      -47.964      -16.619       22.174       28.270       17.984      491.706      799.185      323.413        1.072        0.081      139.790       16.046        0.013      343.180       19.111      865.167
10/05/2014  20:49:00     -103.270      -42.668        2.099       41.345       48.549       27.628     1709.408     2356.973      763.312        0.866        0.241      111.737       26.916        0.058      343.074       18.930      865.174
10/05/2014  20:50:00     -111.389      -74.501       -3.171       40.182       31.640       20.000     1614.576     1001.097      399.999        1.049        0.151      134.007       16.647        0.015      343.150       19.058      865.186
10/05/2014  20:51:00     -100.421      -44.173        1.928       45.417       36.764       24.925     2062.718     1351.628      621.261        0.804        0.202      109.707       27.138        0.061      343.049       18.887      865.195
10/05/2014  20:52:00     -102.303      -30.638       -4.985       41.376       36.055       26.612     1711.982     1299.990      708.205        0.757        0.186      106.792       26.722        0.063      343.069       18.922      865.201
10/05/2014  20:53:00     -131.359      -39.501      -13.751       30.943       21.542       15.676      957.458      464.050      245.742        1.034        0.083      137.170       13.759        0.010      343.096       18.967      865.208
10/05/2014  20:54:00      -82.808      -47.721       -5.635       45.287       34.878       19.279     2050.955     1216.459      371.694        0.640        0.182       95.574       15.896        0.028      343.113       18.996      865.215
10/05/2014  20:55:00      -97.270      -45.479      -11.329       23.770       20.995       11.910      565.019      440.793      141.838        0.640        0.057      107.377       10.871        0.010      343.145       19.052      865.217
10/05/2014  20:56:00     -121.352      -40.846       -8.431       22.776       21.648       13.678      518.726      468.652      187.077        0.882        0.059      128.042        8.699        0.005      343.160       19.076      865.230
10/05/2014  20:57:00     -116.297      -63.392       -5.737       21.846       26.207       16.613      477.247      686.805      276.008        0.951        0.072      132.452       12.325        0.009      343.173       19.098      865.228
10/05/2014  20:58:00      -61.134      -36.371        5.155       36.613       31.551       24.991     1340.521      995.457      624.541        0.402        0.148       71.135       24.016        0.114      343.013       18.826      865.234
10/05/2014  20:59:00      -50.718      -52.457        3.517       37.700       38.104       24.299     1421.323     1451.904      590.451        0.440        0.173       72.966       15.952        0.048      342.971       18.754      865.240
10/05/2014  21:00:00     -108.480      -69.547        4.464       63.947       37.624       30.061     4089.176     1415.550      903.645        1.152        0.320      128.859       33.498        0.068      342.990       18.787      865.248
10/05/2014  21:01:00      -91.040      -85.513        5.583       59.985       37.538       29.007     3598.250     1409.091      841.384        1.074        0.292      124.903       32.045        0.066      343.004       18.810      865.263
10/05/2014  21:02:00     -133.110      -99.929        3.674       47.383       49.653       29.624     2245.107     2465.449      877.592        1.665        0.279      166.445       29.218        0.031      343.124       19.013      865.270
10/05/2014  21:03:00     -148.866      -87.023       -7.936       46.735       39.411       23.281     2184.195     1553.200      541.997        1.704        0.214      172.436       17.473        0.010      343.232       19.197      865.280
10/05/2014  21:04:00     -142.320      -66.328       -8.680       46.874       34.192       22.725     2197.198     1169.089      516.447        1.431        0.194      157.017       17.946        0.013      343.262       19.249      865.285
10/05/2014  21:05:00     -116.616      -57.118       -3.813       43.554       32.970       20.204     1896.987     1086.994      408.218        1.013        0.170      129.853       19.815        0.023      343.204       19.152      865.301
10/05/2014  21:06:00     -152.878      -43.740       -8.126       38.785       42.282       24.021     1504.240     1787.745      576.996        1.461        0.193      159.013       19.514        0.015      343.230       19.195      865.298
10/05/2014  21:07:00     -132.343      -60.949        1.620       40.175       43.425       27.159     1614.045     1885.747      737.628        1.273        0.212      145.703       25.775        0.031      343.264       19.253      865.301
10/05/2014  21:08:00     -136.533      -48.033        5.230       39.432       34.259       18.726     1554.906     1173.694      350.666        1.203        0.154      144.736       16.699        0.013      343.304       19.322      865.295
10/05/2014  21:09:00     -102.751       -9.439        0.178       40.512       31.959       21.763     1641.197     1021.386      473.616        0.689        0.157      103.184       21.001        0.041      343.186       19.120      865.294
10/05/2014  21:10:00     -118.022      -18.501       -4.901       31.479       20.169       22.254      990.920      406.788      495.231        0.809        0.095      119.463       21.055        0.031      343.200       19.144      865.280
10/05/2014  21:11:00     -101.241      -48.267       -4.976       33.196       24.863       19.957     1102.007      618.183      398.280        0.736        0.106      112.158       16.099        0.021      343.090       18.956      865.292
10/05/2014  21:12:00     -113.969      -14.105      -13.800       23.600       23.684       13.644      556.941      560.936      186.148        0.734        0.065      114.838       12.075        0.011      343.031       18.856      865.287
10/05/2014  21:13:00     -109.990      -18.939      -10.629       30.440       22.211       21.460      926.573      493.323      460.510        0.722        0.094      111.608       18.426        0.027      342.943       18.708      865.293
10/05/2014  21:14:00     -126.948      -26.548      -11.016       32.646       32.070       21.391     1065.788     1028.468      457.589        0.975        0.128      129.694       20.032        0.024      342.878       18.596      865.283
10/05/2014  21:15:00      -95.068      -31.241       -0.098       27.767       25.455       15.895      770.997      647.959      252.648        0.584        0.084      100.070       14.161        0.020      342.864       18.572      865.283
10/05/2014  21:16:00      -89.334      -31.501        4.274       33.278       25.950       16.827     1107.425      673.402      283.147        0.553        0.103       94.725       16.168        0.029      342.857       18.560      865.280
10/05/2014  21:17:00     -140.844      -25.806       -4.179       34.308       20.491       18.659     1177.069      419.887      348.152        1.123        0.097      143.188       19.639        0.019      342.822       18.501      865.270
10/05/2014  21:18:00     -124.264      -27.786       -7.076       36.633       22.467       23.163     1341.996      504.787      536.530        0.932        0.119      127.333       21.840        0.029      342.762       18.398      865.285
10/05/2014  21:19:00     -123.627      -28.874      -11.004       25.801       21.673       20.196      665.667      469.709      407.887        0.889        0.077      126.954       14.914        0.014      342.686       18.268      865.284
10/05/2014  21:20:00     -138.196      -24.893      -14.870       24.819       18.614       16.863      615.980      346.486      284.377        1.059        0.062      140.421       14.493        0.011      342.654       18.215      865.294
10/05/2014  21:21:00     -147.368      -30.083      -19.290       20.627       20.202       13.630      425.459      408.141      185.786        1.201        0.051      150.407        3.970        0.001      342.789       18.443      865.305
10/05/2014  21:22:00     -130.682      -37.367       -6.871       24.349       22.236       18.752      592.889      494.422      351.634        0.998        0.072      135.919       13.830        0.010      342.790       18.446      865.308
10/05/2014  21:23:00     -157.296      -57.597      -13.614       14.557       20.571       13.931      211.903      423.150      194.070        1.454        0.041      167.510        9.486        0.003      342.834       18.521      865.322
10/05/2014  21:24:00     -102.841      -14.513       -6.976       47.672       30.290       17.557     2272.592      917.483      308.242        0.717        0.175      103.860       16.140        0.024      342.629       18.173      865.321
10/05/2014  21:25:00      -96.330      -36.775       -1.241       30.929       23.704       18.725      956.591      561.878      350.630        0.625        0.093      103.111       16.792        0.027      342.495       17.945      865.322
10/05/2014  21:26:00     -103.121      -20.843       -3.656       41.825       27.792       18.880     1749.329      772.421      356.470        0.698        0.144      105.207       20.019        0.036      342.621       18.157      865.320
10/05/2014  21:27:00     -101.936      -28.444        1.064       49.462       30.818       21.806     2446.485      949.778      475.508        0.754        0.194      105.830       25.366        0.057      342.608       18.136      865.317
10/05/2014  21:28:00     -146.115      -42.669       -9.678       19.656       22.972       12.836      386.350      527.700      164.774        1.217        0.054      152.218        9.442        0.004      342.586       18.099      865.329
10/05/2014  21:29:00     -133.184      -54.343       -6.713       20.468       23.058       13.489      418.951      531.693      181.941        1.093        0.057      143.844       11.662        0.007      342.456       17.878      865.327
10/05/2014  21:30:00     -106.864      -22.363       -3.877       42.660       21.256       14.138     1819.916      451.828      199.871        0.720        0.124      109.179       18.600        0.029      342.555       18.047      865.332
10/05/2014  21:31:00      -79.643      -28.540        1.666       29.135       21.329       15.161      848.869      454.939      229.871        0.435        0.077       84.602       14.250        0.028      342.502       17.957      865.351
10/05/2014  21:32:00      -96.529      -31.643       -1.026       24.531       22.646       15.383      601.771      512.835      236.643        0.584        0.068      101.583       12.169        0.014      342.452       17.872      865.360
10/05/2014  21:33:00     -129.079      -36.130       -4.135       28.958       24.063       17.139      838.574      579.024      293.742        0.985        0.086      134.040       17.065        0.016      342.541       18.023      865.369
10/05/2014  21:34:00     -111.475      -47.539       -6.957       28.477       28.624       19.733      810.958      819.340      389.406        0.838        0.101      121.188       12.506        0.011      342.526       17.996      865.388
10/05/2014  21:35:00     -115.869      -63.070       -7.509       29.312       26.675       21.092      859.198      711.577      444.872        0.974        0.101      131.922       19.625        0.022      342.537       18.016      865.398
10/05/2014  21:36:00     -130.076      -79.757       -7.885       15.967       17.633       15.124      254.954      310.927      228.743        1.207        0.040      152.581        5.529        0.001      342.649       18.206      865.390
10/05/2014  21:37:00     -104.604      -60.516        4.333       36.762       23.131       21.916     1351.472      535.037      480.321        0.849        0.118      120.848       19.341        0.026      342.498       17.949      865.405
10/05/2014  21:38:00      -77.608      -50.255        0.114       48.039       33.039       24.295     2307.717     1091.586      590.252        0.627        0.199       92.459       23.531        0.065      342.454       17.874      865.400
10/05/2014  21:39:00      -73.359      -62.049        3.682       38.493       29.316       23.737     1481.679      859.413      563.450        0.607        0.145       96.081       15.743        0.027      342.519       17.985      865.395
10/05/2014  21:40:00     -101.945      -73.597        0.592       35.259       32.699       22.144     1243.167     1069.235      490.377        0.931        0.140      125.735       21.835        0.030      342.687       18.271      865.406
10/05/2014  21:41:00      -97.995      -67.084        2.407       43.191       31.012       20.072     1865.470      961.714      402.865        0.867        0.162      118.757       20.443        0.030      342.444       17.859      865.406
10/05/2014  21:42:00      -95.261      -63.627        6.575       43.846       28.835       19.386     1922.490      831.435      375.818        0.815        0.156      114.556       18.402        0.026      342.477       17.914      865.407
10/05/2014  21:43:00     -124.400      -65.199        0.315       29.970       25.330       15.387      898.211      641.588      236.767        1.075        0.089      140.450       13.118        0.009      342.515       17.980      865.414
10/05/2014  21:44:00     -128.827      -46.545       -4.577       17.672       21.538       12.629      312.302      463.866      159.493        0.986        0.047      136.977        5.465        0.002      342.402       17.784      865.410
10/05/2014  21:45:00     -104.779      -32.604       -1.051       20.390       17.328       15.504      415.743      300.244      240.376        0.650        0.048      109.734       11.187        0.010      342.398       17.781      865.418
10/05/2014  21:46:00      -87.375      -40.147        2.639       43.003       23.400       17.590     1849.299      547.542      309.419        0.598        0.135       96.157       17.191        0.032      342.358       17.712      865.435
10/05/2014  21:47:00      -94.902      -35.401       -0.354       31.813       20.883       15.786     1012.060      436.091      249.208        0.598        0.085      101.290       14.469        0.020      342.350       17.698      865.438
10/05/2014  21:48:00     -100.975      -41.134       -4.475       16.686       15.334       15.388      278.423      235.134      236.787        0.633        0.038      109.032       11.580        0.011      342.365       17.723      865.442
10/05/2014  21:49:00      -95.324      -36.029       -2.547       15.859       13.417       10.281      251.504      180.007      105.702        0.546        0.027      101.906        7.464        0.005      342.370       17.731      865.454
10/05/2014  21:50:00      -77.949      -20.295       -6.795       27.082       17.449       15.221      733.445      304.457      231.686        0.390        0.063       80.548       14.716        0.033      342.281       17.581      865.455
10/05/2014  21:51:00      -96.811      -24.235       -5.943       32.839       21.351       17.901     1078.391      455.846      320.450        0.592        0.093       99.798       18.283        0.034      342.313       17.636      865.446
10/05/2014  21:52:00      -89.143       -8.452       -2.756       41.793       27.774       25.194     1746.658      771.408      634.744        0.559        0.158       89.543       23.897        0.071      342.302       17.617      865.455
10/05/2014  21:53:00      -47.757      -24.315        8.502       34.138       27.900       18.248     1165.409      778.402      332.988        0.261        0.114       53.591       20.577        0.147      342.140       17.341      865.451
10/05/2014  21:54:00      -87.533      -14.874       -1.705       27.195       23.918       17.213      739.585      572.068      296.292        0.475        0.080       88.788       11.969        0.018      342.156       17.368      865.457
10/05/2014  21:55:00      -64.626       -5.144       -0.817       41.813       21.674       18.315     1748.330      469.765      335.424        0.338        0.128       64.830       20.571        0.101      342.049       17.186      865.475
10/05/2014  21:56:00      -90.499      -12.115       -0.058       32.979       25.631       21.108     1087.614      656.949      445.536        0.526        0.110       91.306       20.915        0.052      342.046       17.181      865.478
10/05/2014  21:57:00     -117.716       -7.393      -13.528       38.749       20.691       19.996     1501.500      428.133      399.856        0.821        0.116      117.948       22.643        0.037      342.034       17.161      865.482
10/05/2014  21:58:00      -98.797      -14.343       -5.309       43.035       30.012       26.137     1851.991      900.715      683.166        0.671        0.172       99.833       26.164        0.069      342.015       17.128      865.499
10/05/2014  21:59:00      -95.304      -11.812       -7.967       31.641       25.637       16.317     1001.131      657.245      266.254        0.560        0.096       96.033       14.859        0.024      342.063       17.210      865.502
10/05/2014  22:00:00      -61.663      -14.799       -4.894       30.136       24.066       15.646      908.181      579.170      244.803        0.289        0.087       63.414       14.330        0.051      342.022       17.142      865.506
10/05/2014  22:01:00      -86.095      -25.476      -12.701       22.460       28.006       18.469      504.431      784.308      341.107        0.493        0.081       89.785       14.563        0.026      342.037       17.167      865.513
10/05/2014  22:02:00     -106.576      -11.254      -18.579       26.672       22.158       17.018      711.414      490.965      289.612        0.666        0.075      107.169       11.616        0.012      342.038       17.168      865.515
10/05/2014  22:03:00      -99.836      -42.568      -25.767       21.558       26.383       15.536      464.746      696.054      241.382        0.692        0.070      108.532       13.962        0.017      341.954       17.025      865.503
10/05/2014  22:04:00      -97.578      -31.695      -19.489       23.743       21.142       18.279      563.723      446.966      334.131        0.613        0.067      102.596        8.684        0.007      341.977       17.065      865.500
10/05/2014  22:05:00     -120.016      -18.319      -23.831       17.838       15.383       13.570      318.182      236.645      184.158        0.802        0.037      121.406       12.384        0.010      341.873       16.889      865.499
10/05/2014  22:06:00      -87.701      -51.422      -25.508       32.943       33.400       22.475     1085.267     1115.548      505.139        0.685        0.135      101.664       18.645        0.034      341.847       16.843      865.486
10/05/2014  22:07:00      -49.064      -54.649       -2.102       29.571       37.698       24.887      874.421     1421.130      619.375        0.416        0.146       73.442       22.971        0.098      341.781       16.731      865.480
10/05/2014  22:08:00      -51.819      -47.018       -8.325       34.487       31.395       21.350     1189.359      985.626      455.832        0.380        0.132       69.971       12.894        0.034      341.719       16.628      865.483
10/05/2014  22:09:00      -53.508      -48.926      -10.128       34.616       27.938       22.583     1198.263      780.531      509.996        0.392        0.124       72.504       18.982        0.069      341.681       16.563      865.470
10/05/2014  22:10:00      -93.365      -50.570       -7.846       51.363       31.591       21.969     2638.142      997.977      482.659        0.773        0.206      106.180       26.887        0.064      341.654       16.517      865.468
10/05/2014  22:11:00     -123.019      -41.086      -17.471       29.586       15.591       12.752      875.350      243.092      162.619        0.920        0.064      129.699        8.321        0.004      341.659       16.525      865.464
10/05/2014  22:12:00     -143.226      -21.618      -21.161       18.374       14.391       14.483      337.597      207.092      209.759        1.109        0.038      144.848       10.009        0.005      341.673       16.550      865.452
10/05/2014  22:13:00     -129.748      -37.786      -21.545       20.490       12.769        8.451      419.857      163.052       71.412        0.969        0.033      135.138        5.918        0.002      341.657       16.523      865.448
10/05/2014  22:14:00     -111.739      -53.813      -15.120       21.214       18.457       14.936      450.021      340.668      223.086        0.831        0.051      124.022       12.208        0.010      341.713       16.615      865.447
10/05/2014  22:15:00     -106.072      -57.174      -11.917       14.107       13.808       12.476      199.019      190.671      155.653        0.760        0.027      120.499       10.087        0.007      341.770       16.713      865.435
10/05/2014  22:16:00     -116.800      -55.271      -20.769        8.010        7.466        7.554       64.167       55.740       57.068        0.865        0.009      129.217        5.810        0.002      341.728       16.641      865.440
10/05/2014  22:17:00     -130.074      -42.433      -21.632        8.489       10.717        7.017       72.062      114.850       49.245        0.971        0.012      136.820        3.075        0.001      341.755       16.687      865.451
10/05/2014  22:18:00     -116.644      -37.796       -4.113       21.407       19.040       13.757      458.267      362.515      189.267        0.803        0.051      122.615       12.706        0.011      341.781       16.732      865.457
10/05/2014  22:19:00     -111.439      -43.717       -5.406       13.126       16.736       10.908      172.288      280.100      118.984        0.747        0.029      119.708        7.048        0.003      341.724       16.636      865.469
10/05/2014  22:20:00      -94.694      -40.098       -4.355       16.811       16.110        9.260      282.609      259.540       85.748        0.561        0.031      102.834        7.431        0.005      341.686       16.572      865.493
10/05/2014  22:21:00      -99.914      -44.002      -10.317       13.963       15.139        8.331      194.966      229.198       69.400        0.626        0.025      109.174        6.822        0.004      341.677       16.557      865.497
10/05/2014  22:22:00     -106.774      -29.669       -7.794       11.441       17.141       11.583      130.886      293.823      134.159        0.645        0.028      110.820        5.756        0.003      341.710       16.612      865.506
10/05/2014  22:23:00     -107.019      -36.181      -10.137       10.604       12.728       10.007      112.448      162.002      100.150        0.662        0.019      112.969        3.625        0.001      341.651       16.514      865.506
10/05/2014  22:24:00     -110.004      -35.836      -15.820       19.109       19.833       12.062      365.149      393.351      145.501        0.727        0.045      115.694        7.667        0.004      341.584       16.397      865.502
10/05/2014  22:25:00     -112.226      -32.434      -11.754       17.460       16.939       11.520      304.861      286.939      132.714        0.725        0.036      116.819        9.605        0.007      341.584       16.398      865.502
10/05/2014  22:26:00     -110.500      -45.335      -13.432       21.233       15.193       13.727      450.843      230.834      188.423        0.766        0.044      119.438       10.955        0.008      341.628       16.472      865.499
10/05/2014  22:27:00      -48.034      -48.766       -2.000       40.379       25.474       19.523     1630.472      648.920      381.138        0.367        0.133       68.450       22.810        0.111      341.609       16.440      865.484
10/05/2014  22:28:00      -56.616      -36.818       -4.846       37.269       22.475       22.587     1388.947      505.131      510.165        0.349        0.120       67.535       20.095        0.089      341.508       16.271      865.487
10/05/2014  22:29:00      -23.955      -21.042        1.650       42.069       25.791       23.213     1769.835      665.193      538.855        0.200        0.149       31.885       24.455        0.588      341.420       16.120      865.485
10/05/2014  22:30:00      -94.017      -53.922       -6.795       19.672       20.886       16.056      386.996      436.220      257.800        0.644        0.054      108.383        9.700        0.008      341.451       16.172      865.483
10/05/2014  22:31:00      -74.989      -55.743      -11.565       30.366       18.527       19.345      922.124      343.253      374.246        0.525        0.082       93.438       17.638        0.036      341.522       16.292      865.497
10/05/2014  22:32:00     -103.400      -60.168       -5.097       18.355       17.043       11.899      336.910      290.452      141.592        0.755        0.038      119.632        7.862        0.004      341.569       16.373      865.511
10/05/2014  22:33:00      -78.869      -48.366      -13.488       38.895       21.830       18.212     1512.787      476.569      331.695        0.553        0.116       92.518       10.419        0.013      341.572       16.378      865.513
10/05/2014  22:34:00      -57.282      -56.163        0.376       36.714       26.248       18.556     1347.899      688.934      344.330        0.441        0.119       80.222       15.343        0.037      341.469       16.202      865.521
10/05/2014  22:35:00      -84.132      -66.637       -2.889       48.537       33.557       22.679     2355.814     1126.062      514.321        0.776        0.200      107.325       20.830        0.038      341.496       16.248      865.535
10/05/2014  22:36:00     -103.905      -97.422      -11.108       43.033       39.482       20.246     1851.864     1558.795      409.908        1.211        0.191      142.433       21.180        0.022      341.495       16.247      865.532
10/05/2014  22:37:00     -103.341      -73.909       -0.399       46.117       35.450       25.032     2126.769     1256.679      626.620        1.008        0.201      127.051       22.447        0.031      341.480       16.221      865.535
10/05/2014  22:38:00      -92.456      -70.727       -2.363       47.014       30.537       21.983     2210.278      932.484      483.272        0.859        0.181      116.406       23.414        0.040      341.387       16.065      865.550
10/05/2014  22:39:00      -96.243      -58.909       -3.878       36.849       36.248       24.800     1357.858     1313.904      615.031        0.802        0.164      112.841       18.487        0.027      341.377       16.046      865.549
10/05/2014  22:40:00      -92.644      -55.926       -2.019       26.737       24.902       16.923      714.841      620.103      286.394        0.667        0.081      108.216       12.175        0.013      341.370       16.035      865.557
10/05/2014  22:41:00      -60.732      -47.383        4.091       33.086       27.274       20.117     1094.676      743.867      404.687        0.410        0.112       77.029       18.452        0.057      341.299       15.915      865.575
10/05/2014  22:42:00      -93.218      -65.877        1.838       36.500       24.285       16.916     1332.218      589.753      286.167        0.762        0.110      114.146       19.172        0.028      341.360       16.017      865.577
10/05/2014  22:43:00      -68.650      -45.648       -0.343       33.452       27.328       19.643     1119.065      746.806      385.866        0.452        0.113       82.441       16.834        0.042      341.322       15.955      865.582
10/05/2014  22:44:00      -95.168      -42.039       -7.563       23.654       19.027       17.363      559.496      362.014      301.474        0.605        0.061      104.040       12.633        0.015      341.295       15.908      865.595
10/05/2014  22:45:00     -127.422      -51.324       -7.876       19.247       14.360       10.912      370.460      206.224      119.070        0.981        0.035      137.370        5.984        0.002      341.350       16.001      865.599
10/05/2014  22:46:00     -122.164      -60.588       -4.441       26.636       22.774       14.699      709.482      518.656      216.072        1.003        0.072      136.364       14.194        0.011      341.317       15.946      865.604
10/05/2014  22:47:00     -142.245      -44.888       -1.416       36.648       23.907       16.991     1343.111      571.531      288.690        1.223        0.110      149.160       18.808        0.016      341.298       15.913      865.615
10/05/2014  22:48:00     -131.743      -38.718       -6.533       30.982       26.064       15.726      959.881      679.335      247.291        1.039        0.094      137.315       11.784        0.007      341.240       15.816      865.614
10/05/2014  22:49:00     -112.898      -48.819      -13.430       13.430       26.624       11.676      180.375      708.851      136.327        0.817        0.051      123.001        3.047        0.001      341.209       15.764      865.619
10/05/2014  22:50:00      -99.249      -57.434       -7.389       37.175       21.125       15.100     1381.983      446.279      228.012        0.763        0.103      114.669       16.414        0.020      341.166       15.691      865.611
10/05/2014  22:51:00     -138.620      -71.339      -13.958       15.734       15.178       12.498      247.559      230.381      156.194        1.257        0.032      155.900        8.633        0.003      341.176       15.707      865.600
10/05/2014  22:52:00     -142.163      -76.121       -8.754       15.963       11.695       11.300      254.811      136.778      127.683        1.330        0.026      161.260        8.752        0.003      341.098       15.577      865.609
10/05/2014  22:53:00     -156.690      -57.201      -16.554       12.848       15.175       13.128      165.080      230.268      172.348        1.433        0.028      166.804        9.112        0.003      341.040       15.477      865.596
10/05/2014  22:54:00     -161.419      -64.212       -8.172       18.268       14.486       13.385      333.722      209.838      179.171        1.548        0.036      173.722       10.229        0.003      341.039       15.476      865.597
10/05/2014  22:55:00     -121.158      -32.503       -0.427       46.678       26.065       24.610     2178.845      679.358      605.646        0.960        0.173      125.442       23.853        0.036      341.026       15.452      865.595
10/05/2014  22:56:00     -114.228      -16.648       -0.961       39.112       28.041       23.466     1529.731      786.294      550.651        0.810        0.143      115.435       20.985        0.033      340.955       15.332      865.591
10/05/2014  22:57:00     -134.595        9.139      -15.028       37.665       32.712       19.991     1418.615     1070.098      399.628        1.066        0.144      134.905       13.320        0.010      341.283       15.888      865.594
10/05/2014  22:58:00      -97.338       22.199       -7.948       53.272       27.476       26.801     2837.948      754.951      718.314        0.717        0.216       99.837       20.958        0.044      341.411       16.104      865.594
10/05/2014  22:59:00     -122.412        2.201       -5.540       37.520       28.728       19.246     1407.757      825.314      370.396        0.881        0.130      122.431       18.414        0.023      341.350       16.001      865.606
10/05/2014  23:00:00      -82.470      -49.352       -5.473       33.783       30.007       22.658     1141.312      900.398      513.365        0.591        0.128       96.109       16.461        0.029      341.236       15.809      865.618
10/05/2014  23:01:00     -125.848      -75.583       -6.283       20.967       23.837       17.373      439.611      568.184      301.838        1.145        0.065      146.801       14.312        0.010      341.238       15.813      865.629
10/05/2014  23:02:00     -121.702      -43.777       -8.497       18.458       15.823       12.247      340.696      250.352      149.997        0.877        0.037      129.336        9.108        0.005      341.240       15.815      865.640
10/05/2014  23:03:00      -65.217      -34.083        4.599       42.453       23.930       21.377     1802.258      572.658      456.969        0.413        0.142       73.586       22.013        0.089      341.125       15.622      865.655
10/05/2014  23:04:00      -57.649      -61.140       -1.158       42.852       36.619       22.356     1836.332     1340.942      499.804        0.537        0.184       84.032       11.192        0.018      341.079       15.543      865.649
10/05/2014  23:05:00      -92.303      -79.699      -11.173       34.833       39.649       21.864     1213.310     1572.067      478.028        0.913        0.163      121.950        9.701        0.006      341.072       15.532      865.643
10/05/2014  23:06:00      -88.153      -85.322        1.204       37.357       45.719       23.504     1395.523     2090.242      552.448        0.954        0.202      122.681       19.155        0.024      340.976       15.369      865.646
10/05/2014  23:07:00     -110.979      -72.594       -6.863       27.144       30.902       20.875      736.821      954.948      435.778        0.988        0.106      132.613       11.034        0.007      340.914       15.263      865.640
10/05/2014  23:08:00     -113.547      -95.192       -8.785       37.031       42.150       30.856     1371.320     1776.622      952.099        1.307        0.205      148.171       27.278        0.034      340.963       15.345      865.631
10/05/2014  23:09:00      -99.364      -83.645       -1.190       53.516       31.395       28.227     2863.979      985.671      796.766        1.076        0.232      129.883       30.412        0.055      340.918       15.271      865.645
10/05/2014  23:10:00     -116.647      -77.410       -3.456       37.485       41.789       24.380     1405.131     1746.279      594.389        1.168        0.187      139.996       17.690        0.016      340.932       15.295      865.643
10/05/2014  23:11:00     -107.882      -64.453       10.220       64.621       31.170       30.408     4175.921      971.575      924.620        1.098        0.304      125.670       35.374        0.079      340.861       15.174      865.642
10/05/2014  23:12:00     -121.330      -99.918       -6.531       48.093       38.712       27.088     2312.935     1498.586      733.785        1.465        0.227      157.177       20.372        0.017      340.828       15.116      865.643
10/05/2014  23:13:00     -142.104     -100.823       -9.448       45.583       25.096       22.921     2077.777      629.803      525.367        1.684        0.162      174.237       17.470        0.010      340.861       15.174      865.628
10/05/2014  23:14:00     -128.085      -74.852        5.187       43.769       35.134       28.782     1915.766     1234.409      828.422        1.301        0.199      148.353       25.728        0.030      340.815       15.094      865.621
10/05/2014  23:15:00     -105.552      -50.527        2.595       57.355       39.733       29.356     3289.619     1578.708      861.792        0.971        0.287      117.022       27.638        0.056      340.758       15.000      865.619
10/05/2014  23:16:00     -106.214      -82.153        6.643       46.036       36.502       28.699     2119.291     1332.426      823.609        1.117        0.214      134.278       25.728        0.037      340.740       14.969      865.602
10/05/2014  23:17:00     -101.109      -63.195        6.335       47.914       41.953       23.930     2295.733     1760.015      572.633        0.944        0.231      119.234       20.457        0.029      340.683       14.874      865.593
10/05/2014  23:18:00      -99.735      -76.169        5.367       38.413       36.317       24.134     1475.562     1318.904      582.462        0.958        0.169      125.494       19.096        0.023      340.651       14.819      865.592
10/05/2014  23:19:00      -31.685      -52.099       20.105       55.610       41.464       30.473     3092.462     1719.249      928.584        0.493        0.287       60.978       34.923        0.328      340.666       14.845      865.584
10/05/2014  23:20:00      -88.712      -68.891        1.898       45.740       42.854       26.769     2092.148     1836.451      716.568        0.863        0.232      112.320       22.999        0.042      340.619       14.764      865.579
10/05/2014  23:21:00      -84.934      -53.623        0.554       55.686       27.629       24.860     3100.960      763.363      618.014        0.729        0.224      100.445       23.329        0.054      340.587       14.711      865.576
10/05/2014  23:22:00      -94.975      -70.908       -3.123       49.847       34.486       26.607     2484.698     1189.252      707.921        0.922        0.219      118.525       24.355        0.042      340.513       14.585      865.569
10/05/2014  23:23:00     -120.638      -77.285       -1.768       35.475       26.020       18.796     1258.498      677.029      353.305        1.141        0.114      143.270       14.774        0.011      340.494       14.554      865.560
10/05/2014  23:24:00      -74.754      -72.209        1.116       50.913       29.965       25.221     2592.126      897.905      636.116        0.746        0.206      103.934       28.614        0.076      340.494       14.553      865.554
10/05/2014  23:25:00      -89.179      -71.054        2.147       65.160       41.309       25.049     4245.833     1706.452      627.429        0.979        0.329      114.025       26.105        0.052      340.469       14.512      865.534
10/05/2014  23:26:00     -126.597      -72.628       -8.313       38.304       31.038       23.631     1467.206      963.336      558.440        1.218        0.149      145.950       14.871        0.010      340.509       14.579      865.527
10/05/2014  23:27:00     -105.667      -78.630       -5.182       47.394       37.841       25.127     2246.196     1431.926      631.350        1.084        0.215      131.712       21.397        0.026      340.422       14.431      865.516
10/05/2014  23:28:00     -121.540      -90.433        1.327       42.889       40.349       27.055     1839.490     1628.069      731.999        1.357        0.210      151.493       27.288        0.032      340.449       14.476      865.494
10/05/2014  23:29:00     -123.635      -79.505       -1.742       32.008       31.378       21.878     1024.514      984.573      478.666        1.205        0.124      146.992       17.949        0.015      340.432       14.449      865.489
10/05/2014  23:30:00     -123.216      -69.909       -7.476       24.013       24.218       16.443      576.624      586.528      270.364        1.078        0.072      141.666        7.556        0.003      340.445       14.470      865.479
10/05/2014  23:31:00      -82.146      -69.092       -3.826       48.404       49.394       28.453     2342.904     2439.760      809.589        0.856        0.280      107.339       28.570        0.071      340.400       14.394      865.467
10/05/2014  23:32:00     -143.521      -88.584       -5.587       43.149       35.825       28.737     1861.871     1283.398      825.827        1.622        0.199      168.658       26.209        0.024      340.433       14.450      865.471
10/05/2014  23:33:00     -116.147      -79.318       -3.421       41.289       32.265       25.789     1704.785     1041.043      665.063        1.160        0.171      140.646       19.942        0.020      340.469       14.510      865.473
10/05/2014  23:34:00     -109.968      -85.367       -1.342       40.492       32.904       25.480     1639.625     1082.670      649.231        1.138        0.169      139.214       21.306        0.023      340.412       14.414      865.469
10/05/2014  23:35:00     -109.008      -57.409       -1.118       37.817       30.691       20.544     1430.137      941.963      422.058        0.899        0.140      123.201       20.741        0.028      340.412       14.415      865.476
10/05/2014  23:36:00     -112.411      -66.437       -3.960       35.828       32.700       20.874     1283.632     1069.269      435.721        0.993        0.139      130.576       14.378        0.012      340.406       14.407      865.480
10/05/2014  23:37:00      -87.348      -56.441       -0.132       47.994       25.633       24.395     2303.381      657.061      595.126        0.718        0.178      103.996       18.493        0.032      340.345       14.302      865.475
10/05/2014  23:38:00     -110.782      -51.705       -2.724       27.257       24.371       15.645      742.956      593.926      244.761        0.827        0.079      122.254       11.550        0.009      340.338       14.290      865.491
10/05/2014  23:39:00      -94.182      -48.712       -1.872       48.008       23.218       15.844     2304.792      539.058      251.027        0.717        0.155      106.034       20.289        0.037      340.294       14.216      865.489
10/05/2014  23:40:00     -117.067      -54.690       -1.918       27.263       24.218       15.663      743.248      586.526      245.343        0.914        0.079      129.211       13.645        0.011      340.299       14.223      865.495
10/05/2014  23:41:00     -111.029      -53.435        1.416       33.441       29.983       18.612     1118.300      898.974      346.390        0.877        0.118      123.218       14.128        0.013      340.309       14.240      865.493
10/05/2014  23:42:00      -52.534      -33.781        2.096       36.887       22.237       18.779     1360.652      494.482      352.665        0.306        0.110       62.458       18.193        0.085      340.253       14.145      865.507
10/05/2014  23:43:00      -54.058      -37.869        2.352       27.839       23.345       18.610      774.993      544.970      346.315        0.301        0.083       66.002       15.243        0.053      340.292       14.210      865.523
10/05/2014  23:44:00      -17.723      -20.977        0.629       19.701       22.323       10.855      388.142      498.328      117.831        0.088        0.050       27.461        5.816        0.045      340.259       14.153      865.530
10/05/2014  23:45:00       -5.645      -10.117        6.754       10.680       13.895       10.233      114.054      193.085      104.716        0.030        0.021       11.585        8.336        0.518      340.201       14.058      865.554
10/05/2014  23:46:00       -2.034      -45.184       -2.996       15.572       13.950       16.103      242.480      194.612      259.313        0.138        0.035       45.230        6.556        0.021      340.440       14.461      865.556
10/05/2014  23:47:00      -16.019      -14.230        0.892       16.024       16.388       12.763      256.777      268.578      162.890        0.057        0.034       21.427       11.075        0.267      340.406       14.404      865.565
10/05/2014  23:48:00       -3.870      -17.619        1.167       13.977       14.590       11.518      195.350      212.858      132.665        0.043        0.027       18.039        9.430        0.273      340.410       14.412      865.569
10/05/2014  23:49:00       -6.365       -7.696        4.145       14.704       11.183       14.421      216.219      125.049      207.954        0.033        0.027        9.987        4.115        0.170      340.237       14.120      865.562
10/05/2014  23:50:00      -13.860      -18.605        8.298       25.290       16.581       12.593      639.605      274.927      158.574        0.084        0.054       23.201        7.417        0.102      340.271       14.175      865.560
10/05/2014  23:51:00      -41.874       -9.493        8.849       38.086       23.288       17.012     1450.550      542.318      289.406        0.210        0.114       42.937       22.242        0.268      340.216       14.082      865.556
10/05/2014  23:52:00      -66.515      -64.092        5.255       38.532       32.539       23.971     1484.718     1058.777      574.587        0.584        0.156       92.369       22.119        0.057      340.325       14.269      865.543
10/05/2014  23:53:00      -52.686      -53.148        8.480       33.932       32.547       20.896     1151.406     1059.317      436.630        0.416        0.132       74.837       17.994        0.058      340.372       14.348      865.539
10/05/2014  23:54:00      -65.776      -54.754       -4.033       34.346       20.473       13.988     1179.625      419.148      195.653        0.457        0.090       85.584        9.948        0.014      340.353       14.314      865.554
10/05/2014  23:55:00      -51.560      -52.884       -2.110       30.295       33.802       20.054      917.804     1142.566      402.176        0.396        0.123       73.859       17.177        0.054      340.338       14.292      865.550
10/05/2014  23:56:00      -73.709      -55.008       -1.337       24.725       21.982       13.227      611.316      483.217      174.950        0.486        0.063       91.972        7.800        0.007      340.342       14.294      865.544
10/05/2014  23:57:00      -83.859      -44.060       -8.168       29.628       32.069        8.683      877.792     1028.406       75.387        0.551        0.099       94.729        8.509        0.008      340.305       14.232      865.554
10/05/2014  23:58:00      -56.847      -53.780        1.344       32.453       25.147       19.825     1053.220      632.361      393.049        0.410        0.104       78.255       17.691        0.051      340.331       14.278      865.549
10/05/2014  23:59:00      -77.608      -52.301       -5.221       25.773       30.756       17.162      664.262      945.952      294.541        0.534        0.095       93.587       14.329        0.023      340.340       14.295      865.546
